Site Date LOGGERID PROGID AIRTEMP_MEAN_150_0_04 AIRTEMP_MEAN_250_0_03 AIRTEMP_MEAN_350_0_02 AIRTEMP_MEAN_450_0_01 AIRTEMP_MEAN_350_0_08 RELHUM_MEAN_150_0_04 RELHUM_MEAN_450_0_01 DEWPT_MEAN_150_0_04 DEWPT_MEAN_450_0_01 SOILTEMP_MEAN_0_10_01 SOILTEMP_MEAN_0_20_02 SOILTEMP_MEAN_0_50_03 SOILTEMP_MEAN_0_100_04 SOILWC_MEAN_0_10_01 SOILWC_MEAN_0_20_02 SOILWC_MEAN_0_50_03 SOILWC_MEAN_0_100_04 WINDSPEED_Avg WIND_DIR PRECIP_INST_455_0_01 PRECIP_TOT_455_0_01 AIRTEMP_150_DIAG AIRTEMP_250_DIAG AIRTEMP_MAX_150_0_04 AIRTEMP_MAX_250_0_03 AIRTEMP_MAX_350_0_02 AIRTEMP_MAX_350_0_08 AIRTEMP_MAX_450_0_01 DEWPT_MAX_150_0_04 DEWPT_MAX_450_0_01 WSPD_PRO_MAX_1000_0_01 AIRTEMP_MIN_150_0_04 AIRTEMP_MIN_250_0_03 AIRTEMP_MIN_350_0_02 AIRTEMP_MIN_350_0_08 AIRTEMP_MIN_450_0_01 DEWPT_MIN_150_0_04 DEWPT_MIN_450_0_01 WSPD_PRO_MEAN_1000_0_01 WDIR_PRO_MEAN_1000_0_01 WDIR_PRO_STDDEV_1000_0_01 WDIAG_SNC_NS_1000_0_02 WDIAG_SNC_NSG_1000_0_02 diag_Max WUX_SNC_MEAN_1000_0_02 WUY_SNC_MEAN_1000_0_02 WAIR_SNC_MEAN_1000_0_02 WUX_SNC_STDEV_1000_0_02 WUY_SNC_STDEV_1000_0_02 WAIR_SNC_STDDEV_1000_0_02 WSPD_SNC_MEAN_1000_0_02 WDIR_SNC_MEAN_1000_0_02 WDIR_SNC_STDDEV_1000_0_02 WSPD_SNC_MAX_1000_0_02 BATTERY_V_CHECK PUMPVOLTS_Avg PUMPVOLTS_CHECK SATVP_MEAN_150_0_04 VAP_MEAN_150_0_04 VPD_MEAN_150_0_04 SATVP_MEAN_450_0_01 VAP_MEAN_450_0_01 VPD_MEAN_450_0_01
UPLMET_235 2015-10-01 00:00:00 235 12631.0 8.61 9.240 9.620 9.720 9.320 76.520 66.940 4.726 3.888 8.930 9.010 9.150 8.990 0.282 0.195 0.269 0.263     305.400 0.00 1 1 8.680 9.290 9.660 9.420 9.740 4.948 3.994 0.5520 8.550 9.200 9.610 9.250 9.710 4.578 3.790 0.4360 243.60 0.02 20 0                             11.181 8.557 2.625 12.050 8.068 3.984
UPLMET_235 2015-09-30 23:55:00 235 12631.0 8.65 9.230 9.620 9.650 9.380 76.090 67.150 4.687 3.862 8.930 9.010 9.150 8.990 0.282 0.195 0.269 0.263     305.300 0.00 1 1 8.710 9.280 9.680 9.430 9.710 4.878 3.947 0.6150 8.540 9.170 9.550 9.300 9.590 4.618 3.799 0.4800 243.70 0.03 20 0                             11.211 8.534 2.681 11.994 8.054 3.940
UPLMET_235 2015-09-30 23:50:00 235 12631.0 8.42 9.050 9.460 9.550 9.230 77.340 67.920 4.697 3.928 8.930 9.010 9.150 8.990 0.282 0.195 0.269 0.263     305.300 0.00 1 1 8.530 9.150 9.530 9.380 9.610 4.886 3.956 0.5520 8.300 8.940 9.400 9.110 9.510 4.618 3.885 0.4290 243.80 0.19 20 0                             11.038 8.540 2.501 11.913 8.091 3.822
UPLMET_235 2015-09-30 23:45:00 235 12631.0 8.17 8.800 9.320 9.470 9.190 79.910 69.030 4.919 4.078 8.940 9.010 9.150 8.990 0.282 0.195 0.269 0.263     305.400 0.00 1 1 8.280 8.930 9.410 9.350 9.520 5.119 4.186 0.7480 8.090 8.610 9.160 8.940 9.420 4.709 3.997 0.4900 243.40 1.15 20 0                             10.852 8.673 2.180 11.849 8.177 3.670
UPLMET_235 2015-09-30 23:40:00 235 12631.0 8.34 8.800 9.300 9.510 8.930 79.860 69.470 5.071 4.210 8.940 9.010 9.150 8.990 0.282 0.195 0.269 0.263     305.300 0.00 1 1 8.500 8.960 9.420 9.090 9.550 5.142 4.347 0.7130 8.160 8.620 9.160 8.800 9.440 4.947 4.077 0.5590 237.30 1.96 20 0                             10.978 8.766 2.211 11.881 8.253 3.627
UPLMET_235 2015-09-30 23:35:00 235 12631.0 8.62 9.010 9.390 9.460 9.230 77.890 69.380 4.993 4.149 8.940 9.010 9.150 8.990 0.282 0.195 0.269 0.263     305.300 0.00 1 1 8.680 9.060 9.450 9.320 9.530 5.097 4.245 0.5520 8.510 8.980 9.310 9.120 9.420 4.845 4.056 0.4130 236.00 0.02 20 0                             11.188 8.718 2.474 11.841 8.218 3.626
UPLMET_235 2015-09-30 23:30:00 235 12631.0 8.72 8.970 9.320 9.430 9.060 75.930 68.250 4.715 3.877 8.940 9.010 9.150 8.990 0.282 0.195 0.269 0.263     305.400 0.00 1 1 8.760 9.050 9.360 9.210 9.470 4.884 4.092 0.6770 8.650 8.920 9.300 8.990 9.400 4.577 3.712 0.4450 236.00 0.02 20 0                             11.264 8.551 2.711 11.818 8.062 3.752
UPLMET_235 2015-09-30 23:25:00 235 12631.0 8.69 9.140 9.440 9.570 9.200 76.080 68.320 4.722 4.025 8.940 9.000 9.150 8.990 0.282 0.195 0.269 0.263     305.300 0.00 1 1 8.760 9.180 9.480 9.380 9.610 4.793 4.139 0.5970 8.610 9.060 9.370 9.010 9.480 4.594 3.827 0.4550 235.90 0.04 20 0                             11.242 8.555 2.689 11.929 8.147 3.779
UPLMET_235 2015-09-30 23:20:00 235 12631.0 8.46 9.050 9.400 9.510 9.320 76.770 67.240 4.629 3.742 8.950 9.000 9.150 8.990 0.282 0.195 0.269 0.263     305.400 0.00 1 1 8.590 9.170 9.470 9.430 9.590 4.838 3.985 0.5430 8.310 8.920 9.330 9.160 9.430 4.476 3.459 0.3760 237.60 1.28 20 0                             11.068 8.499 2.571 11.881 7.986 3.892
UPLMET_235 2015-09-30 23:15:00 235 12631.0 8.30 8.880 9.330 9.500 9.050 78.720 68.480 4.832 3.994 8.950 9.000 9.150 8.990 0.282 0.195 0.269 0.263     305.500 0.00 1 1 8.360 8.990 9.410 9.150 9.560 5.004 4.133 0.4810 8.250 8.810 9.290 9.000 9.430 4.488 3.811 0.3800 239.90 0.01 20 0                             10.948 8.621 2.330 11.873 8.129 3.742
UPLMET_235 2015-09-30 23:10:00 235 12631.0 8.21 8.940 9.400 9.560 9.170 79.830 68.610 4.947 4.078 8.950 9.000 9.150 8.990 0.282 0.195 0.269 0.263     305.400 0.00 1 1 8.320 9.000 9.430 9.210 9.580 5.077 4.179 0.5790 8.160 8.860 9.370 9.120 9.530 4.785 3.952 0.3200 240.20 0.19 20 0                             10.881 8.690 2.195 11.921 8.177 3.742
UPLMET_235 2015-09-30 23:05:00 235 12631.0 8.31 8.900 9.410 9.610 9.140 80.200 68.760 5.106 4.157 8.950 9.000 9.150 8.990 0.282 0.195 0.269 0.263     305.500 0.00 1 1 8.450 9.000 9.490 9.240 9.700 5.167 4.349 0.5790 8.190 8.840 9.370 9.010 9.550 5.040 4.035 0.4400 240.40 0.02 20 0                             10.956 8.787 2.169 11.962 8.223 3.737
UPLMET_235 2015-09-30 23:00:00 235 12631.0 8.56 9.240 9.660 9.650 9.460 78.050 68.270 4.958 4.094 8.950 9.000 9.150 8.990 0.282 0.195 0.269 0.263     305.400 0.00 1 1 8.610 9.360 9.750 9.590 9.730 5.194 4.348 0.7840 8.490 9.040 9.530 9.110 9.550 4.743 3.960 0.5550 240.30 0.11 20 0                             11.143 8.697 2.446 11.994 8.186 3.806
UPLMET_235 2015-09-30 22:55:00 235 12631.0 8.56 9.030 9.460 9.620 9.190 78.800 69.060 5.094 4.230 8.960 9.000 9.150 8.990 0.282 0.195 0.269 0.263     305.400 0.00 1 1 8.730 9.130 9.530 9.370 9.740 5.289 4.447 0.6240 8.460 8.950 9.400 9.130 9.540 4.889 4.022 0.5140 235.70 1.78 20 0                             11.143 8.780 2.362 11.970 8.265 3.703
UPLMET_235 2015-09-30 22:50:00 235 12631.0 8.75 9.290 9.650 9.790 9.480 78.110 68.790 5.158 4.341 8.960 9.000 9.150 8.990 0.282 0.195 0.269 0.263     305.300 0.00 1 1 8.830 9.360 9.680 9.650 9.820 5.289 4.428 0.4720 8.630 9.150 9.560 9.180 9.750 5.031 4.183 0.2730 234.10 0.08 20 0                             11.287 8.819 2.471 12.107 8.329 3.779
UPLMET_235 2015-09-30 22:45:00 235 12631.0 8.44 9.140 9.610 9.780 9.400 79.620 68.430 5.125 4.254 8.960 9.000 9.150 8.990 0.282 0.195 0.269 0.263     305.400 0.00 1 1 8.580 9.260 9.640 9.550 9.810 5.403 4.486 0.5970 8.360 9.040 9.590 9.310 9.740 4.909 4.001 0.4430 234.30 0.05 20 0                             11.053 8.799 2.253 12.099 8.279 3.820
UPLMET_235 2015-09-30 22:40:00 235 12631.0 8.51 9.140 9.630 9.800 9.310 81.000 69.790 5.449 4.552 8.960 9.000 9.150 8.990 0.282 0.195 0.269 0.263     305.300 0.00 1 1 8.610 9.170 9.650 9.340 9.820 5.491 4.605 0.6240 8.400 9.060 9.610 9.280 9.770 5.385 4.491 0.5600 234.30 0.03 20 0                             11.105 9.000 2.110 12.115 8.454 3.660
UPLMET_235 2015-09-30 22:35:00 235 12631.0 8.70 9.280 9.710 9.720 9.540 80.400 70.410 5.518 4.605 8.960 9.000 9.150 8.990 0.282 0.195 0.269 0.263     305.300 0.00 1 1 8.750 9.380 9.780 9.690 9.780 5.554 4.708 0.5430 8.610 9.180 9.580 9.360 9.640 5.478 4.549 0.4090 234.30 0.02 20 0                             11.249 9.043 2.205 12.050 8.485 3.566
UPLMET_235 2015-09-30 22:30:00 235 12631.0 8.91 9.230 9.580 9.700 9.330 79.800 71.840 5.622 4.873 8.960 9.000 9.150 8.990 0.282 0.195 0.269 0.263     305.400 0.00 1 1 9.020 9.320 9.650 9.460 9.740 5.687 4.927 0.3560 8.760 9.140 9.510 9.230 9.640 5.540 4.737 0.2270 233.20 0.29 20 0                             11.410 9.109 2.305 12.034 8.646 3.389
UPLMET_235 2015-09-30 22:25:00 235 12631.0 9.00 9.360 9.670 9.720 9.510 79.590 72.370 5.673 4.998 8.960 8.990 9.150 8.990 0.282 0.195 0.269 0.263     305.400 0.00 1 1 9.030 9.370 9.670 9.540 9.750 5.763 5.054 0.5610 8.980 9.320 9.660 9.470 9.690 5.560 4.932 0.3270 234.30 2.00 20 0                             11.480 9.141 2.343 12.050 8.721 3.329
UPLMET_235 2015-09-30 22:20:00 235 12631.0 9.04 9.350 9.630 9.720 9.390 79.330 72.560 5.664 5.040 8.960 8.990 9.150 8.990 0.282 0.195 0.269 0.263     305.400 0.00 1 1 9.100 9.390 9.670 9.510 9.780 5.749 5.094 0.4630 9.000 9.320 9.600 9.290 9.680 5.603 4.988 0.3500 237.40 0.04 20 0                             11.511 9.135 2.379 12.050 8.747 3.307
UPLMET_235 2015-09-30 22:15:00 235 12631.0 9.14 9.470 9.770 9.840 9.460 78.750 71.920 5.657 5.028 8.960 8.990 9.150 8.990 0.282 0.195 0.269 0.263     305.300 0.00 1 1 9.180 9.520 9.840 9.520 9.890 5.688 5.070 0.5880 9.090 9.380 9.670 9.380 9.800 5.603 4.949 0.4060 237.50 0.00 20 0                             11.589 9.131 2.463 12.148 8.740 3.411
UPLMET_235 2015-09-30 22:10:00 235 12631.0 9.07 9.530 9.880 9.900 9.570 78.800 71.460 5.595 4.989 8.960 8.990 9.150 8.990 0.282 0.195 0.269 0.263     305.400 0.00 1 1 9.150 9.550 9.910 9.610 9.930 5.672 5.018 0.5880 9.010 9.520 9.850 9.530 9.870 5.537 4.962 0.5100 237.50 0.02 20 0                             11.534 9.092 2.445 12.197 8.716 3.481
UPLMET_235 2015-09-30 22:05:00 235 12631.0 8.82 9.530 9.910 9.890 9.710 79.910 71.400 5.552 4.972 8.960 8.990 9.150 8.990 0.282 0.195 0.269 0.263     305.400 0.00 1 1 8.990 9.570 9.930 9.770 9.930 5.626 5.000 0.6240 8.690 9.450 9.850 9.620 9.840 5.503 4.906 0.5610 238.30 0.71 20 0                             11.341 9.064 2.278 12.189 8.706 3.486
UPLMET_235 2015-09-30 22:00:00 235 12631.0 8.68 9.310 9.780 9.780 9.530 81.100 71.550 5.624 4.893 8.960 8.990 9.160 8.990 0.282 0.195 0.269 0.263     305.300 0.00 1 1 8.720 9.430 9.840 9.640 9.840 5.680 4.954 0.6410 8.640 9.250 9.730 9.450 9.720 5.540 4.830 0.4580 238.90 0.02 20 0                             11.234 9.110 2.123 12.099 8.658 3.442
UPLMET_235 2015-09-30 21:55:00 235 12631.0 8.76 9.200 9.640 9.630 9.410 79.580 71.690 5.430 4.775 8.960 8.990 9.150 8.990 0.282 0.195 0.269 0.263     305.300 0.00 1 1 8.840 9.260 9.720 9.500 9.710 5.513 4.841 0.4720 8.700 9.120 9.560 9.320 9.580 5.359 4.720 0.3730 238.90 0.00 20 0                             11.295 8.988 2.306 11.978 8.587 3.391
UPLMET_235 2015-09-30 21:50:00 235 12631.0 8.91 9.230 9.570 9.560 9.330 77.950 71.320 5.284 4.637 8.960 8.990 9.160 8.990 0.282 0.195 0.269 0.263     305.400 0.00 1 1 8.940 9.250 9.580 9.380 9.580 5.416 4.705 0.5170 8.870 9.140 9.560 9.290 9.540 5.196 4.597 0.3880 238.90 0.00 20 0                             11.410 8.897 2.516 11.921 8.504 3.419
UPLMET_235 2015-09-30 21:45:00 235 12631.0 8.88 9.230 9.530 9.550 9.370 76.530 69.870 4.992 4.333 8.960 8.980 9.160 8.990 0.282 0.195 0.269 0.263     305.300 0.00 1 1 8.920 9.260 9.560 9.420 9.590 5.243 4.617 0.5170 8.830 9.220 9.510 9.340 9.510 4.735 3.953 0.1630 239.00 0.05 20 0                             11.387 8.718 2.673 11.913 8.325 3.589
UPLMET_235 2015-09-30 21:40:00 235 12631.0 8.79 9.210 9.510 9.530 9.350 75.880 68.740 4.775 4.081 8.960 8.980 9.160 8.990 0.282 0.195 0.269 0.263     305.300 0.00 1 1 8.840 9.240 9.530 9.380 9.550 4.883 4.167 0.4450 8.750 9.190 9.490 9.290 9.510 4.698 3.969 0.3180 239.30 0.04 20 0                             11.318 8.587 2.730 11.897 8.179 3.719
UPLMET_235 2015-09-30 21:35:00 235 12631.0 8.64 9.140 9.470 9.500 9.310 75.740 67.730 4.602 3.844 8.960 8.980 9.160 8.990 0.282 0.195 0.269 0.263     305.400 0.00 1 1 8.720 9.180 9.490 9.390 9.560 4.667 4.149 0.4810 8.570 9.100 9.440 9.140 9.450 4.526 3.675 0.3360 239.30 0.02 20 0                             11.204 8.483 2.718 11.873 8.043 3.832
UPLMET_235 2015-09-30 21:30:00 235 12631.0 8.70 9.130 9.470 9.480 9.190 77.070 68.140 4.915 3.906 8.960 8.980 9.160 8.990 0.282 0.195 0.269 0.263     305.400 0.00 1 1 8.820 9.180 9.510 9.270 9.510 5.009 3.983 0.5260 8.590 9.090 9.430 9.120 9.450 4.725 3.818 0.4320 239.30 0.03 20 0                             11.249 8.671 2.579 11.857 8.079 3.778
UPLMET_235 2015-09-30 21:25:00 235 12631.0 8.80 9.210 9.510 9.550 9.310 75.360 68.170 4.692 3.977 8.950 8.980 9.160 8.990 0.282 0.195 0.269 0.263     305.400 0.00 1 1 8.840 9.230 9.530 9.360 9.580 4.800 4.027 0.4450 8.710 9.190 9.500 9.260 9.510 4.534 3.881 0.3760 239.40 0.07 20 0                             11.326 8.537 2.791 11.913 8.119 3.792
UPLMET_235 2015-09-30 21:20:00 235 12631.0 8.54 9.130 9.480 9.520 9.280 76.450 67.710 4.639 3.860 8.950 8.980 9.160 8.990 0.282 0.195 0.269 0.263     305.300 0.00 1 1 8.680 9.200 9.510 9.320 9.550 4.736 3.892 0.4370 8.390 9.060 9.440 9.220 9.490 4.549 3.821 0.3230 239.50 0.02 20 0                             11.128 8.505 2.621 11.889 8.052 3.839
UPLMET_235 2015-09-30 21:15:00 235 12631.0 8.33 8.980 9.390 9.500 9.130 78.890 68.320 4.887 3.962 8.950 8.980 9.160 8.990 0.282 0.195 0.269 0.263     305.300 0.00 1 1 8.390 9.040 9.420 9.220 9.520 5.025 4.060 0.4720 8.280 8.900 9.360 9.060 9.480 4.722 3.883 0.4250 239.50 0.02 20 0                             10.970 8.654 2.316 11.873 8.110 3.761
UPLMET_235 2015-09-30 21:10:00 235 12631.0 8.34 8.920 9.420 9.530 9.150 79.290 68.360 4.975 4.004 8.950 8.970 9.160 8.990 0.282 0.195 0.269 0.263     305.300 0.00 1 1 8.440 8.980 9.470 9.240 9.560 5.058 4.047 0.5430 8.300 8.870 9.380 9.090 9.500 4.876 3.972 0.4250 239.50 0.02 20 0                             10.978 8.707 2.274 11.897 8.134 3.764
UPLMET_235 2015-09-30 21:05:00 235 12631.0 8.58 9.050 9.490 9.580 9.310 78.100 67.760 4.991 3.927 8.950 8.970 9.160 8.990 0.282 0.195 0.269 0.263     305.400 0.00 1 1 8.720 9.090 9.510 9.420 9.600 5.033 4.045 0.7130 8.460 9.000 9.480 9.250 9.560 4.942 3.625 0.4790 236.20 2.47 20 0                             11.158 8.717 2.444 11.937 8.091 3.849
UPLMET_235 2015-09-30 21:00:00 235 12631.0 9.03 9.190 9.570 9.710 9.170 75.830 68.130 4.997 4.124 8.940 8.970 9.160 8.990 0.282 0.195 0.269 0.263     305.400 0.00 1 1 9.250 9.400 9.760 9.310 9.810 5.085 4.159 0.4810 8.730 9.050 9.460 9.070 9.610 4.822 4.079 0.3670 232.60 0.05 20 0                             11.503 8.721 2.780 12.042 8.203 3.838
UPLMET_235 2015-09-30 20:55:00 235 12631.0 9.34 9.560 9.870 9.860 9.570 73.650 67.540 4.885 4.144 8.940 8.970 9.160 8.990 0.282 0.195 0.269 0.263     305.500 0.00 1 1 9.400 9.620 9.890 9.670 9.880 5.052 4.232 0.5350 9.270 9.420 9.780 9.340 9.830 4.785 4.078 0.4350 232.50 0.02 20 0                             11.746 8.653 3.095 12.164 8.215 3.948
UPLMET_235 2015-09-30 20:50:00 235 12631.0 9.39 9.650 9.940 9.930 9.680 73.440 67.580 4.888 4.223 8.940 8.970 9.160 8.990 0.282 0.195 0.269 0.263     305.500 0.00 1 1 9.410 9.660 9.970 9.770 9.980 4.979 4.282 0.5080 9.370 9.630 9.900 9.610 9.880 4.819 4.134 0.4400 232.50 0.00 20 0                             11.786 8.655 3.130 12.221 8.261 3.962
UPLMET_235 2015-09-30 20:45:00 235 12631.0 9.37 9.690 10.000 10.000 9.770 74.720 68.020 5.124 4.385 8.940 8.970 9.160 8.990 0.282 0.195 0.269 0.263     305.300 0.00 1 1 9.410 9.700 10.020 9.810 10.040 5.199 4.521 0.5700 9.330 9.660 9.980 9.740 9.980 5.021 4.254 0.4890 232.50 0.04 20 0                             11.770 8.798 2.975 12.279 8.355 3.927
UPLMET_235 2015-09-30 20:40:00 235 12631.0 9.28 9.690 10.000 10.050 9.740 76.070 68.910 5.291 4.615 8.930 8.970 9.160 8.990 0.282 0.195 0.269 0.263     305.400 0.00 1 1 9.320 9.690 10.010 9.780 10.080 5.475 4.757 0.5350 9.250 9.680 10.000 9.710 10.020 5.185 4.517 0.4350 220.90 1.97 20 0                             11.699 8.901 2.800 12.320 8.491 3.830
UPLMET_235 2015-09-30 20:35:00 235 12631.0 9.26 9.660 9.990 10.060 9.780 77.400 69.430 5.515 4.733 8.930 8.960 9.160 8.990 0.282 0.195 0.269 0.263     305.500 0.00 1 1 9.340 9.700 10.010 9.920 10.090 5.635 4.800 0.5790 9.210 9.610 9.960 9.600 10.030 5.357 4.660 0.3920 218.80 0.04 20 0                             11.683 9.041 2.640 12.328 8.561 3.769
UPLMET_235 2015-09-30 20:30:00 235 12631.0 9.38 9.730 10.120 10.220 9.770 76.180 68.780 5.404 4.746 8.920 8.960 9.160 8.990 0.282 0.195 0.269 0.263     305.600 0.00 1 1 9.440 9.810 10.220 9.870 10.330 5.453 4.800 0.4900 9.320 9.670 10.020 9.680 10.110 5.333 4.695 0.4360 218.80 0.02 20 0                             11.778 8.972 2.805 12.461 8.569 3.890
UPLMET_235 2015-09-30 20:25:00 235 12631.0 9.50 9.950 10.320 10.400 10.040 74.960 67.500 5.293 4.651 8.920 8.960 9.160 8.990 0.282 0.195 0.269 0.263     305.400 0.00 1 1 9.550 10.030 10.360 10.190 10.430 5.451 4.702 0.4900 9.450 9.840 10.240 9.880 10.330 5.143 4.563 0.3910 219.00 0.57 20 0                             11.873 8.903 2.973 12.612 8.512 4.099
UPLMET_235 2015-09-30 20:20:00 235 12631.0 9.37 9.880 10.280 10.370 10.100 74.900 66.640 5.154 4.440 8.920 8.960 9.160 8.990 0.282 0.195 0.269 0.263     305.400 0.00 1 1 9.440 9.990 10.330 10.180 10.410 5.280 4.533 0.5970 9.320 9.780 10.210 9.970 10.300 5.059 4.326 0.3900 220.10 0.08 20 0                             11.770 8.817 2.954 12.586 8.388 4.199
UPLMET_235 2015-09-30 20:15:00 235 12631.0 9.34 9.820 10.210 10.340 9.990 74.440 66.150 5.035 4.310 8.910 8.960 9.160 8.990 0.282 0.195 0.269 0.263     305.400 0.00 1 1 9.380 9.850 10.230 10.040 10.370 5.168 4.443 0.7570 9.300 9.780 10.200 9.940 10.300 4.959 4.177 0.5780 218.20 2.65 20 0                             11.746 8.744 3.002 12.561 8.311 4.252
UPLMET_235 2015-09-30 20:10:00 235 12631.0 9.22 9.820 10.220 10.330 10.080 73.650 65.220 4.769 4.097 8.910 8.960 9.160 8.990 0.282 0.195 0.269 0.263     305.500 0.00 1 1 9.310 9.850 10.240 10.160 10.360 4.932 4.219 0.6860 9.110 9.750 10.180 9.990 10.300 4.486 3.849 0.5130 223.90 5.16 20 0                             11.652 8.583 3.070 12.553 8.188 4.366
UPLMET_235 2015-09-30 20:05:00 235 12631.0 9.03 9.730 10.190 10.300 9.930 71.280 62.120 4.119 3.373 8.900 8.950 9.160 8.990 0.282 0.195 0.269 0.263     305.400 0.00 1 1 9.090 9.760 10.230 10.050 10.340 4.386 3.678 0.5700 8.970 9.690 10.170 9.840 10.280 3.928 3.153 0.4010 242.40 1.17 20 0                             11.503 8.201 3.304 12.528 7.780 4.746
UPLMET_235 2015-09-30 20:00:00 235 12631.0 9.06 9.770 10.250 10.410 9.920 70.110 59.400 3.912 2.846 8.900 8.950 9.160 8.990 0.282 0.195 0.269 0.263     305.400 0.00 1 1 9.120 9.790 10.290 9.950 10.490 4.089 3.029 0.6330 8.990 9.740 10.230 9.890 10.350 3.626 2.663 0.4890 243.60 1.49 20 0                             11.526 8.082 3.445 12.620 7.495 5.124
UPLMET_235 2015-09-30 19:55:00 235 12631.0 9.09 9.790 10.300 10.410 10.100 68.590 58.160 3.630 2.548 8.890 8.950 9.160 8.990 0.282 0.195 0.269 0.263     305.500 0.00 1 1 9.150 9.880 10.390 10.280 10.510 3.908 2.809 0.9800 9.020 9.700 10.200 9.930 10.210 3.397 2.386 0.7010 245.40 16.81 20 0                             11.550 7.923 3.628 12.620 7.338 5.280
UPLMET_235 2015-09-30 19:50:00 235 12631.0 9.04 9.650 10.130 10.210 9.810 69.090 58.650 3.685 2.477 8.890 8.950 9.160 8.990 0.282 0.195 0.269 0.263     305.400 0.00 1 1 9.210 9.720 10.170 9.920 10.270 3.941 2.676 0.9350 8.920 9.590 10.090 9.710 10.170 3.370 2.292 0.6240 246.40 13.72 20 0                             11.511 7.954 3.558 12.453 7.301 5.149
UPLMET_235 2015-09-30 19:45:00 235 12631.0 9.16 9.820 10.300 10.350 9.960 67.200 57.400 3.403 2.308 8.880 8.950 9.160 8.990 0.282 0.195 0.269 0.263     305.300 0.00 1 1 9.210 9.860 10.370 10.130 10.390 3.684 2.504 0.8820 9.100 9.760 10.190 9.780 10.280 3.212 2.049 0.5840 247.60 0.22 20 0                             11.604 7.797 3.806 12.570 7.213 5.355
UPLMET_235 2015-09-30 19:40:00 235 12631.0 9.26 9.740 10.220 10.240 9.990 67.740 57.430 3.615 2.210 8.880 8.950 9.160 8.990 0.282 0.195 0.269 0.263     305.500 0.00 1 1 9.380 9.810 10.350 10.070 10.340 3.875 2.389 1.1230 9.110 9.690 10.070 9.850 10.170 3.325 2.093 0.7980 248.30 1.93 20 0                             11.683 7.914 3.769 12.478 7.163 5.312
UPLMET_235 2015-09-30 19:35:00 235 12631.0 9.35 9.620 10.040 10.180 9.810 66.160 58.070 3.368 2.310 8.870 8.940 9.160 8.990 0.282 0.195 0.269 0.263     305.400 0.00 1 1 9.380 9.680 10.060 9.900 10.200 3.515 2.487 0.6150 9.320 9.580 10.030 9.760 10.160 3.209 2.037 0.5000 245.70 0.03 20 0                             11.754 7.778 3.978 12.428 7.214 5.211
UPLMET_235 2015-09-30 19:30:00 235 12631.0 9.39 9.740 10.120 10.220 9.790 65.440 57.300 3.252 2.161 8.860 8.940 9.160 8.990 0.282 0.195 0.269 0.263     305.400 0.00 1 1 9.440 9.790 10.180 9.820 10.270 3.336 2.269 0.6150 9.370 9.680 10.070 9.740 10.160 3.195 2.055 0.5270 245.70 0.02 20 0                             11.786 7.714 4.073 12.461 7.138 5.321
UPLMET_235 2015-09-30 19:25:00 235 12631.0 9.39 9.890 10.280 10.320 9.960 64.880 56.860 3.121 2.147 8.860 8.940 9.160 8.990 0.282 0.195 0.269 0.263     305.400 0.00 1 1 9.440 9.940 10.350 10.130 10.350 3.270 2.273 0.6770 9.330 9.810 10.190 9.810 10.280 2.923 2.022 0.5440 245.70 0.00 20 0                             11.786 7.643 4.139 12.545 7.131 5.412
UPLMET_235 2015-09-30 19:20:00 235 12631.0 9.38 9.850 10.250 10.220 9.980 65.430 56.790 3.241 2.032 8.850 8.940 9.160 8.990 0.282 0.195 0.269 0.263     305.400 0.00 1 1 9.420 9.920 10.340 10.140 10.320 3.647 2.124 0.7130 9.320 9.800 10.170 9.800 10.150 3.063 1.911 0.6010 245.70 0.03 20 0                             11.778 7.708 4.072 12.461 7.072 5.384
UPLMET_235 2015-09-30 19:15:00 235 12631.0 9.47 9.800 10.170 10.140 9.910 64.720 57.040 3.162 2.019 8.840 8.940 9.160 8.990 0.282 0.195 0.269 0.263     305.500 0.00 1 1 9.490 9.800 10.170 9.960 10.160 3.270 2.113 0.5880 9.420 9.790 10.160 9.810 10.120 3.080 1.946 0.4410 245.80 0.03 20 0                             11.849 7.665 4.180 12.394 7.066 5.325
UPLMET_235 2015-09-30 19:10:00 235 12631.0 9.45 9.810 10.150 10.120 9.890 64.630 57.820 3.126 2.197 8.840 8.940 9.160 8.990 0.282 0.195 0.269 0.263     305.400 0.00 1 1 9.500 9.830 10.160 9.910 10.140 3.188 2.284 0.5610 9.370 9.770 10.130 9.870 10.110 3.068 2.104 0.4930 245.80 0.00 20 0                             11.833 7.645 4.186 12.378 7.156 5.221
UPLMET_235 2015-09-30 19:05:00 235 12631.0 9.28 9.700 10.070 10.100 9.940 65.860 57.990 3.235 2.214 8.830 8.940 9.160 8.990 0.282 0.195 0.269 0.263     305.400 0.00 1 1 9.380 9.760 10.130 10.000 10.130 3.314 2.268 0.6060 9.190 9.620 10.000 9.850 10.040 3.180 2.180 0.5350 245.80 0.00 20 0                             11.699 7.705 3.994 12.361 7.165 5.193
UPLMET_235 2015-09-30 19:00:00 235 12631.0 8.98 9.480 9.870 9.950 9.840 67.660 59.050 3.330 2.330 8.820 8.940 9.160 8.990 0.282 0.195 0.269 0.263     305.500 0.00 1 1 9.160 9.620 9.990 10.010 10.030 3.449 2.395 0.6240 8.810 9.350 9.750 9.660 9.870 3.203 2.146 0.5380 245.80 0.02 20 0                             11.464 7.757 3.708 12.238 7.225 5.011
UPLMET_235 2015-09-30 18:55:00 235 12631.0 8.67 9.170 9.670 9.870 9.450 71.160 60.050 3.738 2.489 8.810 8.930 9.160 8.990 0.282 0.195 0.269 0.263     305.400 0.00 1 1 8.770 9.340 9.730 9.640 9.930 4.335 2.780 0.5970 8.600 9.050 9.630 9.310 9.840 3.397 2.258 0.5340 246.40 0.38 20 0                             11.226 7.983 3.238 12.172 7.307 4.863
UPLMET_235 2015-09-30 18:50:00 235 12631.0 9.04 9.380 9.860 10.080 9.430 72.040 60.120 4.279 2.706 8.810 8.930 9.160 8.990 0.282 0.195 0.269 0.263     305.300 0.00 1 1 9.340 9.660 10.070 9.710 10.150 4.390 2.918 0.7660 8.760 9.120 9.660 9.260 9.950 4.158 2.447 0.6370 246.30 0.45 20 0                             11.511 8.293 3.218 12.345 7.421 4.923
UPLMET_235 2015-09-30 18:45:00 235 12631.0 9.34 9.740 10.100 10.170 9.850 67.790 59.580 3.699 2.661 8.800 8.930 9.160 8.990 0.282 0.195 0.269 0.263     305.500 0.00 1 1 9.400 9.780 10.130 9.940 10.190 4.032 2.801 0.5970 9.250 9.670 10.070 9.740 10.150 3.528 2.533 0.4400 245.80 0.00 20 0                             11.746 7.962 3.783 12.419 7.397 5.020
UPLMET_235 2015-09-30 18:40:00 235 12631.0 9.20 9.640 10.040 10.130 9.840 68.450 58.970 3.707 2.482 8.790 8.930 9.160 8.990 0.282 0.195 0.269 0.263     305.400 0.00 1 1 9.250 9.680 10.070 9.890 10.190 3.982 2.750 0.6410 9.150 9.580 10.000 9.750 10.070 3.536 2.190 0.5180 245.80 0.02 20 0                             11.636 7.966 3.671 12.386 7.303 5.082
UPLMET_235 2015-09-30 18:35:00 235 12631.0 9.07 9.640 10.030 10.130 9.730 69.100 59.060 3.718 2.499 8.780 8.930 9.160 8.990 0.282 0.195 0.269 0.263     305.500 0.00 1 1 9.140 9.660 10.040 9.770 10.140 4.255 2.552 0.6950 9.000 9.580 10.000 9.700 10.100 3.577 2.433 0.6280 245.90 0.27 20 0                             11.534 7.972 3.564 12.386 7.312 5.071
UPLMET_235 2015-09-30 18:30:00 235 12631.0 9.09 9.660 10.110 10.230 9.780 71.520 59.610 4.220 2.726 8.770 8.930 9.160 8.990 0.282 0.195 0.269 0.263     305.400 0.00 1 1 9.140 9.740 10.160 9.920 10.270 4.619 2.868 0.7040 9.030 9.580 10.040 9.630 10.170 3.559 2.590 0.5510 247.10 0.04 20 0                             11.550 8.259 3.289 12.469 7.431 5.036
UPLMET_235 2015-09-30 18:25:00 235 12631.0 9.21 9.800 10.260 10.380 9.870 71.730 59.170 4.375 2.759 8.770 8.930 9.160 8.990 0.282 0.195 0.269 0.263     305.400 0.00 1 1 9.270 9.900 10.330 10.040 10.420 4.651 3.062 0.8020 9.090 9.590 10.090 9.620 10.280 4.126 2.549 0.6370 245.20 1.12 20 0                             11.644 8.349 3.292 12.595 7.449 5.142
UPLMET_235 2015-09-30 18:20:00 235 12631.0 9.16 9.820 10.270 10.370 10.030 71.280 60.010 4.244 2.956 8.760 8.930 9.170 8.990 0.282 0.195 0.269 0.263     305.400 0.00 1 1 9.280 9.890 10.310 10.080 10.410 4.371 3.129 0.7480 9.030 9.710 10.200 9.980 10.310 4.162 2.671 0.6200 248.60 1.26 20 0                             11.604 8.273 3.333 12.586 7.554 5.033
UPLMET_235 2015-09-30 18:15:00 235 12631.0 9.06 9.680 10.160 10.290 9.960 74.090 60.680 4.698 3.035 8.750 8.920 9.170 8.990 0.282 0.195 0.269 0.263     305.400 0.00 1 1 9.090 9.760 10.200 10.050 10.310 4.962 3.261 0.8460 9.010 9.620 10.130 9.850 10.260 4.260 2.730 0.5290 249.30 0.49 20 0                             11.526 8.540 2.986 12.519 7.596 4.923
UPLMET_235 2015-09-30 18:10:00 235 12631.0 9.14 9.690 10.120 10.300 9.860 75.270 61.490 5.000 3.233 8.740 8.920 9.170 8.990 0.282 0.195 0.269 0.263     305.300 0.00 1 1 9.230 9.740 10.170 10.050 10.370 5.285 3.374 0.5970 9.060 9.640 10.080 9.760 10.260 4.606 3.049 0.4290 248.70 0.00 20 0                             11.589 8.723 2.866 12.528 7.704 4.824
UPLMET_235 2015-09-30 18:05:00 235 12631.0 9.32 9.830 10.250 10.490 9.900 75.210 62.340 5.166 3.599 8.730 8.920 9.170 8.990 0.282 0.195 0.269 0.263     305.300 0.00 1 1 9.440 10.060 10.430 10.170 10.590 5.409 3.745 0.6950 9.210 9.700 10.150 9.750 10.370 4.688 3.351 0.5000 248.70 0.25 20 0                             11.730 8.824 2.908 12.688 7.906 4.778
UPLMET_235 2015-09-30 18:00:00 235 12631.0 9.47 10.050 10.480 10.640 10.190 74.710 62.090 5.213 3.692 8.720 8.920 9.170 8.990 0.282 0.195 0.269 0.263     305.400 0.00 1 1 9.500 10.070 10.520 10.270 10.690 5.340 3.852 0.6770 9.420 10.030 10.450 10.140 10.580 5.040 3.339 0.5150 248.90 0.23 20 0                             11.849 8.853 2.997 12.815 7.958 4.858
UPLMET_235 2015-09-30 17:55:00 235 12631.0 9.44 10.040 10.540 10.780 10.260 75.090 61.150 5.261 3.604 8.710 8.920 9.170 8.990 0.282 0.195 0.269 0.263     305.200 0.00 1 1 9.530 10.070 10.580 10.300 10.870 5.656 3.750 0.7310 9.400 10.000 10.510 10.210 10.700 4.946 3.250 0.5350 249.60 0.47 20 0                             11.826 8.883 2.946 12.935 7.908 5.025
UPLMET_235 2015-09-30 17:50:00 235 12631.0 9.64 10.230 10.750 11.000 10.420 75.030 60.380 5.443 3.630 8.700 8.920 9.170 8.990 0.282 0.195 0.269 0.263     305.200 0.00 1 1 9.750 10.380 10.900 10.600 11.100 5.660 3.940 0.8730 9.550 10.070 10.600 10.300 10.890 5.028 3.473 0.4790 250.00 0.22 20 0                             11.986 8.996 2.993 13.126 7.923 5.201
UPLMET_235 2015-09-30 17:45:00 235 12631.0 9.87 10.530 11.000 11.220 10.670 73.980 60.080 5.463 3.773 8.690 8.920 9.170 8.990 0.282 0.195 0.269 0.263     305.300 0.00 1 1 9.940 10.650 11.110 10.850 11.310 5.840 4.093 0.8820 9.780 10.340 10.880 10.460 11.110 4.891 3.439 0.4670 249.50 0.18 20 0                             12.172 9.009 3.167 13.319 8.003 5.317
UPLMET_235 2015-09-30 17:40:00 235 12631.0 9.87 10.570 11.090 11.360 10.820 73.170 58.850 5.297 3.608 8.680 8.920 9.170 8.990 0.282 0.195 0.269 0.263     305.300 0.00 1 1 9.910 10.640 11.160 10.940 11.470 5.808 3.870 0.7570 9.830 10.510 11.030 10.620 11.290 4.775 3.406 0.4340 258.40 9.26 20 0                             12.172 8.905 3.266 13.444 7.911 5.532
UPLMET_235 2015-09-30 17:35:00 235 12631.0 10.02 10.730 11.330 11.570 10.910 76.150 59.720 6.018 4.010 8.670 8.920 9.170 8.990 0.282 0.195 0.269 0.263     305.200 0.00 1 1 10.150 10.910 11.510 11.350 11.640 6.470 4.492 1.0870 9.900 10.570 11.170 10.630 11.480 5.692 3.238 0.4580 265.40 5.96 20 0                             12.295 9.362 2.932 13.632 8.138 5.491
UPLMET_235 2015-09-30 17:30:00 235 12631.0 10.31 10.820 11.300 11.550 10.950 74.350 60.670 5.953 4.222 8.660 8.920 9.170 8.990 0.282 0.195 0.269 0.263     305.200 0.00 1 1 10.490 10.930 11.360 11.180 11.660 6.187 4.512 0.8640 10.160 10.720 11.230 10.810 11.480 5.625 3.765 0.6530 255.60 3.35 20 0                             12.536 9.320 3.216 13.614 8.260 5.354
UPLMET_235 2015-09-30 17:25:00 235 12631.0 10.62 11.080 11.540 11.830 11.180 74.180 61.530 6.219 4.689 8.650 8.920 9.170 8.990 0.282 0.195 0.269 0.263     305.300 0.00 1 1 10.760 11.160 11.620 11.330 11.950 6.488 4.800 0.5520 10.490 10.950 11.390 10.950 11.710 6.005 4.584 0.3800 254.10 0.84 20 0                             12.798 9.493 3.305 13.868 8.535 5.335
UPLMET_235 2015-09-30 17:20:00 235 12631.0 10.92 11.330 11.780 12.060 11.470 72.590 59.340 6.197 4.388 8.640 8.920 9.170 8.990 0.282 0.195 0.269 0.263     305.200 0.00 1 1 11.010 11.470 11.880 11.680 12.150 6.579 4.745 0.3210 10.780 11.230 11.670 11.320 11.990 5.628 4.134 0.0220 255.50 0.00 20 0                             13.056 9.479 3.579 14.080 8.357 5.725
UPLMET_235 2015-09-30 17:15:00 235 12631.0 11.18 11.590 12.020 12.310 11.490 72.060 59.540 6.337 4.670 8.630 8.920 9.170 8.990 0.282 0.195 0.269 0.263     305.500 0.00 1 1 11.290 11.820 12.240 11.950 12.460 6.938 5.013 0.5350 11.030 11.400 11.860 11.190 12.160 5.622 4.225 0.1590 278.00 0.11 20 0                             13.284 9.571 3.712 14.314 8.524 5.791
UPLMET_235 2015-09-30 17:10:00 235 12631.0 11.31 11.910 12.290 12.390 12.210 68.400 57.130 5.704 4.153 8.620 8.920 9.170 8.990 0.282 0.195 0.269 0.263     305.500 0.00 1 1 11.360 12.010 12.370 12.540 12.460 6.265 4.561 1.5680 11.190 11.730 12.120 11.820 12.250 4.606 3.294 0.3440 288.00 23.32 20 0                             13.399 9.161 4.234 14.389 8.220 6.169
UPLMET_235 2015-09-30 17:05:00 235 12631.0 11.21 11.690 12.100 12.280 11.870 70.890 59.380 6.132 4.606 8.610 8.920 9.170 8.990 0.282 0.195 0.269 0.263     305.300 0.00 1 1 11.270 11.770 12.120 12.030 12.320 6.304 4.819 0.8910 11.160 11.640 12.080 11.760 12.240 5.714 4.276 0.2540 273.90 18.51 20 0                             13.310 9.436 3.875 14.286 8.486 5.803
UPLMET_235 2015-09-30 17:00:00 235 12631.0 11.35 11.780 12.150 12.350 12.010 71.180 59.850 6.329 4.776 8.600 8.920 9.170 8.990 0.282 0.195 0.269 0.263     305.400 0.00 1 1 11.430 11.880 12.230 12.510 12.390 6.880 5.601 0.9440 11.310 11.730 12.100 11.690 12.320 5.872 4.127 0.3960 280.60 36.60 20 0                             13.435 9.566 3.872 14.351 8.587 5.762
UPLMET_235 2015-09-30 16:55:00 235 12631.0 11.55 11.900 12.290 12.520 11.950 71.840 61.690 6.656 5.376 8.590 8.920 9.170 8.990 0.282 0.195 0.269 0.263     305.400 0.00 1 1 11.670 12.040 12.430 12.180 12.660 6.971 5.468 0.6500 11.450 11.820 12.190 11.840 12.400 6.423 5.254 0.2040 247.40 0.22 20 0                             13.614 9.784 3.834 14.513 8.954 5.560
UPLMET_235 2015-09-30 16:50:00 235 12631.0 11.79 12.150 12.570 12.860 12.130 73.930 62.640 7.308 5.916 8.580 8.920 9.170 8.990 0.282 0.195 0.269 0.263     305.400 0.00 1 1 11.940 12.280 12.740 12.390 13.030 7.696 6.499 0.5970 11.670 12.050 12.440 11.900 12.640 6.818 5.516 0.1320 250.20 2.72 20 0                             13.831 10.232 3.606 14.840 9.296 5.544
UPLMET_235 2015-09-30 16:45:00 235 12631.0 12.02 12.450 12.890 13.090 12.670 71.640 60.420 7.067 5.608 8.570 8.920 9.170 8.990 0.282 0.195 0.269 0.263     305.600 0.00 1 1 12.090 12.570 13.030 13.400 13.140 7.594 6.038 0.7220 11.960 12.290 12.750 12.310 13.000 6.684 4.887 0.1920 176.90 62.46 20 0                             14.043 10.064 3.983 15.065 9.100 5.963
UPLMET_235 2015-09-30 16:40:00 235 12631.0 12.14 12.600 12.970 13.090 12.690 70.900 61.120 7.032 5.777 8.560 8.920 9.170 8.990 0.282 0.195 0.269 0.263     305.500 0.00 1 1 12.190 12.700 13.060 12.890 13.130 7.443 6.257 1.0870 12.090 12.510 12.890 12.390 13.020 6.434 5.474 0.2010 251.20 26.96 20 0                             14.154 10.040 4.119 15.065 9.207 5.857
UPLMET_235 2015-09-30 16:35:00 235 12631.0 12.26 12.670 12.990 13.100 12.780 71.610 61.920 7.294 5.978 8.560 8.920 9.170 8.990 0.282 0.195 0.269 0.263     305.500 0.00 1 1 12.300 12.790 13.070 12.950 13.130 7.715 6.464 0.8460 12.210 12.590 12.940 12.580 13.070 6.729 5.160 0.4120 271.30 18.52 20 0                             14.267 10.222 4.050 15.075 9.336 5.740
UPLMET_235 2015-09-30 16:30:00 235 12631.0 12.34 12.760 13.090 13.280 12.680 72.410 62.920 7.522 6.369 8.550 8.920 9.170 8.990 0.282 0.195 0.269 0.263     305.600 0.00 1 1 12.410 13.200 13.660 13.730 13.550 8.150 7.353 1.7550 12.220 12.590 12.920 12.310 13.090 5.888 4.989 0.7670 271.30 23.18 20 0                             14.342 10.383 3.957 15.253 9.592 5.656
UPLMET_235 2015-09-30 16:25:00 235 12631.0 12.15 12.570 12.940 13.120 12.490 75.460 64.500 7.946 6.580 8.540 8.920 9.170 8.990 0.282 0.195 0.269 0.263     305.500 0.00 1 1 12.250 12.740 13.120 12.840 13.180 8.510 7.347 1.8350 12.050 12.440 12.810 12.150 13.050 6.947 5.126 0.6460 251.30 33.25 20 0                             14.164 10.688 3.476 15.094 9.733 5.359
UPLMET_235 2015-09-30 16:20:00 235 12631.0 12.34 12.670 13.080 13.400 12.590 75.840 65.670 8.210 7.117 8.530 8.920 9.170 8.990 0.282 0.195 0.269 0.263     305.500 0.00 1 1 12.520 12.800 13.300 12.870 13.710 8.570 7.568 1.0250 12.270 12.600 12.940 12.370 13.230 7.745 6.371 0.5320 260.60 30.09 20 0                             14.342 10.881 3.465 15.373 10.099 5.277
UPLMET_235 2015-09-30 16:15:00 235 12631.0 12.70 13.010 13.540 13.840 12.970 73.580 62.700 8.110 6.856 8.520 8.920 9.170 8.990 0.282 0.195 0.269 0.263     305.600 0.00 1 1 12.930 13.140 13.650 13.380 14.000 8.390 7.229 1.5320 12.540 12.840 13.380 12.760 13.750 7.775 5.833 0.7350 351.40 65.88 20 0                             14.685 10.808 3.880 15.819 9.919 5.901
UPLMET_235 2015-09-30 16:10:00 235 12631.0 13.21 13.530 13.970 14.270 13.480 72.340 61.110 8.350 6.888 8.510 8.920 9.170 8.990 0.282 0.195 0.269 0.263     305.500 0.00 1 1 13.370 13.840 14.290 14.390 14.450 8.540 7.116 1.1670 12.950 13.200 13.650 12.950 14.010 7.482 5.778 0.4510 247.00 41.11 20 0                             15.183 10.985 4.200 16.267 9.941 6.326
UPLMET_235 2015-09-30 16:05:00 235 12631.0 13.35 13.870 14.240 14.450 14.200 69.100 58.280 7.809 6.373 8.500 8.920 9.170 8.990 0.282 0.195 0.269 0.263     305.300 0.00 1 1 13.410 14.010 14.340 14.600 14.480 8.370 6.979 0.9980 13.300 13.670 14.100 13.720 14.410 7.127 5.981 0.3480 36.83 28.87 20 0                             15.323 10.588 4.735 16.457 9.595 6.866
UPLMET_235 2015-09-30 16:00:00 235 12631.0 13.63 13.870 14.390 14.790 13.630 70.780 59.050 8.430 6.873 8.490 8.920 9.170 8.990 0.282 0.195 0.269 0.263     305.400 0.00 1 1 13.900 14.170 14.720 14.260 14.980 8.910 7.359 0.5430 13.370 13.610 14.050 13.240 14.480 7.801 5.986 0.0700 339.40 48.78 20 0                             15.605 11.045 4.560 16.823 9.931 6.889
UPLMET_235 2015-09-30 15:55:00 235 12631.0 14.20 14.440 14.880 15.170 14.380 66.710 56.570 8.080 6.602 8.480 8.920 9.170 8.990 0.282 0.195 0.269 0.263     305.400 0.00 1 1 14.350 14.710 15.130 15.160 15.320 8.780 7.615 0.7660 13.970 14.220 14.700 14.030 14.980 6.041 5.462 0.1670 190.00 25.10 20 0                             16.193 10.786 5.391 17.239 9.747 7.487
UPLMET_235 2015-09-30 15:50:00 235 12631.0 14.53 14.600 14.980 15.300 14.460 66.250 56.110 8.320 6.606 8.480 8.920 9.170 8.990 0.282 0.195 0.269 0.263     305.500 0.00 1 1 14.850 14.770 15.100 15.010 15.430 8.890 7.717 1.3630 14.280 14.500 14.910 14.110 15.220 6.496 5.232 0.4670 100.00 28.94 20 0                             16.543 10.963 5.583 17.384 9.750 7.630
UPLMET_235 2015-09-30 15:45:00 235 12631.0 15.33 15.310 15.550 15.730 14.810 63.050 55.500 8.340 6.840 8.470 8.920 9.170 8.990 0.282 0.195 0.269 0.263     305.500 0.00 1 1 15.670 15.660 15.880 15.230 15.960 9.100 8.080 0.9530 14.920 14.880 15.140 14.200 15.520 7.507 5.803 0.2630 129.50 43.22 20 0                             17.418 10.978 6.436 17.870 9.908 7.952
UPLMET_235 2015-09-30 15:40:00 235 12631.0 15.87 15.950 16.130 16.150 15.460 55.310 51.300 6.929 6.083 8.460 8.920 9.170 8.990 0.282 0.195 0.269 0.263     305.400 0.00 1 1 16.050 16.170 16.320 15.980 16.260 8.000 7.429 1.2030 15.670 15.710 15.910 14.900 15.960 5.810 5.267 0.5990 50.41 14.12 20 0                             18.031 9.969 8.058 18.356 9.404 8.939
UPLMET_235 2015-09-30 15:35:00 235 12631.0 16.11 16.310 16.460 16.350 16.040 50.740 47.700 5.905 5.233 8.460 8.930 9.170 8.990 0.282 0.195 0.269 0.263     305.500 0.00 1 1 16.160 16.410 16.550 16.300 16.400 6.778 5.897 1.4880 16.060 16.190 16.320 15.630 16.270 5.155 4.731 0.6210 129.10 50.61 20 0                             18.309 9.289 9.019 18.592 8.866 9.723
UPLMET_235 2015-09-30 15:30:00 235 12631.0 16.03 16.210 16.410 16.400 16.040 51.760 47.730 6.112 5.294 8.450 8.930 9.170 8.990 0.282 0.195 0.269 0.263     305.400 0.00 1 1 16.130 16.330 16.480 16.310 16.460 7.002 6.000 2.3610 15.950 16.120 16.350 15.680 16.360 5.393 4.940 0.7890 27.57 54.80 20 0                             18.216 9.423 8.787 18.651 8.903 9.749
UPLMET_235 2015-09-30 15:25:00 235 12631.0 16.11 16.290 16.470 16.460 16.030 49.330 45.730 5.503 4.737 8.440 8.930 9.170 8.990 0.282 0.195 0.269 0.263     305.500 0.00 1 1 16.140 16.330 16.520 16.220 16.500 6.053 5.043 1.5150 16.090 16.210 16.380 15.860 16.430 5.015 4.337 0.5430 78.83 50.11 20 0                             18.309 9.034 9.277 18.722 8.564 10.161
UPLMET_235 2015-09-30 15:20:00 235 12631.0 15.92 16.220 16.450 16.470 16.190 51.050 45.790 5.814 4.764 8.440 8.930 9.170 8.990 0.283 0.195 0.269 0.263     305.400 0.00 1 1 16.070 16.410 16.620 16.520 16.540 6.888 5.742 2.4950 15.820 16.070 16.300 15.720 16.420 4.851 4.280 0.7800 337.40 64.92 20 0                             18.088 9.231 8.854 18.734 8.580 10.156
UPLMET_235 2015-09-30 15:15:00 235 12631.0 16.17 16.250 16.500 16.640 15.970 51.730 45.700 6.241 4.887 8.430 8.930 9.170 8.990 0.283 0.195 0.269 0.263     305.500 0.00 1 1 16.530 16.430 16.660 16.090 16.880 6.995 5.843 1.1140 15.980 16.170 16.400 15.810 16.480 5.257 4.205 0.4770 213.20 62.34 20 0                             18.379 9.508 8.872 18.938 8.654 10.283
UPLMET_235 2015-09-30 15:10:00 235 12631.0 16.71 16.880 17.040 16.990 16.610 46.280 42.550 5.106 4.178 8.430 8.930 9.180 8.990 0.283 0.195 0.269 0.263     305.400 0.00 1 1 16.800 17.020 17.150 16.850 17.020 6.601 5.232 1.1050 16.610 16.560 16.760 16.100 16.920 4.094 3.207 0.6400 81.20 83.70 20 0                             19.022 8.787 10.219 19.363 8.235 11.124
UPLMET_235 2015-09-30 15:05:00 235 12631.0 16.59 16.850 17.040 17.050 16.690 44.330 40.370 4.406 3.487 8.420 8.930 9.170 8.990 0.283 0.195 0.269 0.263     305.700 0.00 1 1 16.610 16.900 17.080 16.830 17.070 5.278 3.821 1.2210 16.570 16.800 16.980 16.430 17.000 3.522 3.010 0.5810 308.70 42.24 20 0                             18.878 8.368 10.509 19.437 7.843 11.590
UPLMET_235 2015-09-30 15:00:00 235 12631.0 16.84 16.980 17.100 17.110 16.420 46.970 41.890 5.442 4.066 8.420 8.940 9.180 8.990 0.283 0.195 0.269 0.263     305.500 0.00 1 1 17.030 17.260 17.320 16.830 17.240 6.797 4.997 0.9180 16.640 16.770 16.940 16.060 17.020 3.860 3.318 0.2650 136.90 51.22 20 0                             19.180 8.995 10.171 19.511 8.170 11.338
UPLMET_235 2015-09-30 14:55:00 235 12631.0 17.16 17.320 17.400 17.360 16.550 43.220 40.300 4.559 3.740 8.410 8.940 9.180 8.990 0.283 0.195 0.269 0.263     305.600 0.00 1 1 17.290 17.380 17.490 16.760 17.530 5.600 4.597 1.8800 17.040 17.270 17.330 16.250 17.240 3.235 2.796 0.5180 30.86 37.70 20 0                             19.573 8.458 11.113 19.822 7.985 11.834
UPLMET_235 2015-09-30 14:50:00 235 12631.0 17.20 17.280 17.490 17.740 16.840 41.230 38.310 3.903 3.353 8.410 8.940 9.180 8.990 0.283 0.195 0.269 0.263     305.600 0.00 1 1 17.330 17.370 17.580 17.070 17.990 5.589 4.474 1.9240 17.100 17.200 17.430 16.660 17.570 2.730 2.280 1.0790 75.64 32.06 20 0                             19.622 8.077 11.532 20.303 7.769 12.525
UPLMET_235 2015-09-30 14:45:00 235 12631.0 17.25 17.410 17.570 17.870 16.890 42.830 38.880 4.507 3.689 8.410 8.940 9.180 8.990 0.283 0.195 0.269 0.263     305.600 0.00 1 1 17.470 17.510 17.620 16.990 18.040 5.583 4.562 1.3360 17.090 17.330 17.520 16.680 17.630 3.626 2.909 0.5240 341.20 63.18 20 0                             19.684 8.427 11.254 20.470 7.956 12.511
UPLMET_235 2015-09-30 14:40:00 235 12631.0 17.36 17.530 17.600 17.510 17.170 38.780 37.120 3.189 2.710 8.400 8.940 9.180 8.990 0.283 0.195 0.269 0.263     305.600 0.00 1 1 17.470 17.590 17.660 17.290 17.580 4.243 3.714 2.7530 17.260 17.450 17.550 17.080 17.450 2.113 1.376 1.3430 60.07 43.56 20 0                             19.822 7.680 12.135 20.010 7.423 12.583
UPLMET_235 2015-09-30 14:35:00 235 12631.0 17.20 17.410 17.550 17.600 17.100 41.400 38.470 3.983 3.300 8.400 8.940 9.180 8.990 0.283 0.195 0.269 0.263     305.600 0.00 1 1 17.260 17.470 17.590 17.230 17.720 4.837 3.724 1.9240 17.150 17.350 17.490 16.940 17.510 3.232 2.785 0.9340 36.46 59.83 20 0                             19.622 8.122 11.499 20.124 7.740 12.383
UPLMET_235 2015-09-30 14:30:00 235 12631.0 17.15 17.400 17.590 17.690 17.160 42.190 38.840 4.189 3.515 8.400 8.950 9.180 8.990 0.283 0.195 0.269 0.263     305.600 0.00 1 1 17.230 17.500 17.660 17.380 17.730 5.727 4.442 1.4790 17.100 17.350 17.550 16.800 17.660 3.061 2.692 0.5380 0.79 57.00 20 0                             19.560 8.241 11.308 20.239 7.859 12.378
UPLMET_235 2015-09-30 14:25:00 235 12631.0 17.18 17.510 17.680 17.770 17.080 45.460 41.320 5.285 4.450 8.400 8.950 9.180 8.990 0.283 0.195 0.269 0.263     305.600 0.00 1 1 17.230 17.610 17.790 17.510 17.850 6.392 5.382 2.7350 17.070 17.350 17.560 16.550 17.690 3.497 2.728 0.8660 32.56 60.03 20 0                             19.597 8.898 10.688 20.341 8.393 11.936
UPLMET_235 2015-09-30 14:20:00 235 12631.0 16.90 17.200 17.520 17.920 17.010 42.760 37.520 4.166 3.238 8.400 8.950 9.180 8.990 0.283 0.195 0.269 0.263     305.700 0.00 1 1 17.040 17.420 17.650 17.350 18.000 5.216 3.884 1.4430 16.820 17.090 17.450 16.780 17.840 3.565 2.948 0.4160 249.80 82.40 20 0                             19.253 8.228 11.020 20.534 7.706 12.830
UPLMET_235 2015-09-30 14:15:00 235 12631.0 16.96 17.190 17.620 17.890 16.860 41.760 36.790 3.880 2.918 8.390 8.950 9.180 8.990 0.283 0.195 0.269 0.263     305.600 0.00 1 1 17.000 17.260 17.740 17.100 17.940 5.459 3.850 2.0490 16.880 17.070 17.440 16.550 17.840 2.844 2.194 0.8400 269.30 16.90 20 0                             19.326 8.064 11.256 20.495 7.533 12.955
UPLMET_235 2015-09-30 14:10:00 235 12631.0 17.02 17.250 17.660 17.990 17.000 40.050 34.570 3.348 2.146 8.390 8.950 9.180 8.990 0.283 0.195 0.269 0.263     305.900 0.00 1 1 17.080 17.340 17.750 17.140 18.060 4.299 2.810 2.1110 16.970 17.190 17.570 16.830 17.950 2.694 1.716 1.3930 274.60 26.41 20 0                             19.400 7.767 11.630 20.625 7.130 13.495
UPLMET_235 2015-09-30 14:05:00 235 12631.0 17.19 17.410 17.750 18.120 16.940 37.460 33.070 2.555 1.628 8.390 8.960 9.180 8.990 0.283 0.195 0.269 0.263     306.000 0.00 1 1 17.300 17.560 17.940 17.160 18.260 3.893 3.038 0.9620 17.080 17.300 17.620 16.660 17.990 1.687 1.044 0.3930 195.40 43.94 20 0                             19.610 7.341 12.264 20.794 6.870 13.917
UPLMET_235 2015-09-30 14:00:00 235 12631.0 17.42 17.630 18.060 18.270 17.190 39.290 33.720 3.430 2.039 8.390 8.960 9.180 8.990 0.283 0.195 0.269 0.263     305.900 0.00 1 1 17.490 17.700 18.130 17.360 18.330 4.465 2.697 0.7130 17.320 17.520 17.980 17.050 18.210 2.447 1.608 0.3390 235.90 26.84 20 0                             19.897 7.812 12.080 20.991 7.076 13.913
UPLMET_235 2015-09-30 13:55:00 235 12631.0 17.54 17.660 18.060 18.240 17.190 38.030 33.910 3.057 2.083 8.390 8.960 9.180 8.990 0.283 0.195 0.269 0.263     305.900 0.00 1 1 17.620 17.710 18.130 17.470 18.310 4.747 3.461 1.7110 17.490 17.570 18.020 16.880 18.150 1.402 1.169 0.8300 309.00 51.48 20 0                             20.048 7.608 12.424 20.951 7.098 13.847
UPLMET_235 2015-09-30 13:50:00 235 12631.0 17.74 17.800 18.460 18.250 17.140 37.060 33.420 2.888 1.896 8.390 8.960 9.180 8.990 0.283 0.195 0.269 0.263     305.900 0.00 1 1 17.960 17.880 18.810 17.300 18.380 4.304 2.949 1.2210 17.620 17.680 18.180 16.960 18.180 2.094 1.445 0.5020 259.00 27.65 20 0                             20.303 7.517 12.779 20.964 7.004 13.958
UPLMET_235 2015-09-30 13:45:00 235 12631.0 18.37 18.320 19.260 18.730 17.410 37.320 32.980 3.527 2.122 8.390 8.970 9.180 8.990 0.283 0.195 0.269 0.263     305.900 0.00 1 1 18.740 18.610 19.420 17.710 18.920 5.155 4.062 1.2470 18.050 17.960 18.960 17.120 18.440 2.034 1.140 0.4730 220.20 37.34 20 0                             21.123 7.865 13.240 21.604 7.118 14.479
UPLMET_235 2015-09-30 13:40:00 235 12631.0 19.45 19.250 19.380 18.840 17.730 34.680 32.390 3.448 1.973 8.390 8.970 9.180 8.990 0.283 0.195 0.269 0.263     306.000 0.00 1 1 19.950 19.950 19.530 17.950 19.000 5.087 2.580 1.0070 18.830 18.690 19.230 17.560 18.730 1.882 1.509 0.5080 155.60 38.01 20 0                             22.596 7.822 14.760 21.753 7.043 14.707
UPLMET_235 2015-09-30 13:35:00 235 12631.0 19.94 20.020 19.520 18.970 17.960 33.750 35.000 3.505 3.167 8.390 8.970 9.180 8.990 0.283 0.195 0.269 0.263     305.900 0.00 1 1 20.000 20.190 19.690 18.100 19.120 5.023 4.805 1.3450 19.820 19.690 19.230 17.790 18.770 2.642 2.323 0.4770 56.31 62.24 20 0                             23.294 7.853 15.432 21.930 7.668 14.255
UPLMET_235 2015-09-30 13:30:00 235 12631.0 19.94 19.620 19.140 18.620 17.810 34.160 34.780 3.665 2.776 8.400 8.970 9.180 8.990 0.283 0.195 0.269 0.263     305.900 0.00 1 1 20.020 19.770 19.290 18.400 18.740 5.295 3.708 1.3270 19.770 19.530 19.020 17.530 18.520 2.348 1.677 0.6950 67.34 54.92 20 0                             23.294 7.942 15.336 21.456 7.458 13.994
UPLMET_235 2015-09-30 13:25:00 235 12631.0 19.72 19.540 19.200 18.860 17.690 34.420 33.510 3.574 2.461 8.400 8.980 9.180 8.990 0.283 0.195 0.269 0.263     306.000 0.00 1 1 19.810 19.720 19.430 18.050 19.050 5.460 4.014 1.9150 19.490 19.340 18.930 17.540 18.600 2.216 1.269 0.9500 72.15 20.01 20 0                             22.978 7.892 15.069 21.780 7.292 14.482
UPLMET_235 2015-09-30 13:20:00 235 12631.0 19.45 19.300 19.280 19.010 17.540 34.540 34.100 3.369 2.837 8.400 8.980 9.180 8.990 0.283 0.195 0.269 0.263     305.700 0.00 1 1 19.580 19.520 19.390 17.750 19.100 6.300 4.478 0.7570 19.350 19.170 19.190 17.430 18.900 2.285 2.086 0.2440 161.90 68.45 20 0                             22.596 7.778 14.791 21.985 7.490 14.488
UPLMET_235 2015-09-30 13:15:00 235 12631.0 19.78 19.730 19.480 18.780 17.650 35.600 36.580 4.097 3.612 8.400 8.980 9.180 8.990 0.283 0.195 0.269 0.263     305.900 0.00 1 1 19.850 19.920 19.640 17.870 18.860 5.688 4.975 1.1310 19.630 19.340 19.280 17.490 18.670 1.969 1.953 0.3380 49.73 84.40 20 0                             23.064 8.188 14.853 21.672 7.913 13.744
UPLMET_235 2015-09-30 13:10:00 235 12631.0 19.58 19.330 19.070 18.620 17.480 33.850 34.260 3.221 2.564 8.400 8.980 9.180 8.990 0.283 0.195 0.269 0.263     305.700 0.00 1 1 19.720 19.650 19.290 17.840 18.700 5.083 3.907 1.2830 19.500 19.100 18.880 17.140 18.530 1.960 1.777 0.6650 113.60 62.84 20 0                             22.779 7.697 15.068 21.456 7.346 14.105
UPLMET_235 2015-09-30 13:05:00 235 12631.0 19.61 19.240 18.890 18.340 17.140 35.580 35.170 3.956 2.677 8.400 8.980 9.180 8.990 0.283 0.195 0.269 0.263     305.600 0.00 1 1 19.740 19.310 19.020 17.350 18.520 5.753 3.826 0.5610 19.540 19.130 18.750 17.000 18.190 2.482 1.368 0.1550 131.20 40.84 20 0                             22.822 8.107 14.702 21.083 7.405 13.668
UPLMET_235 2015-09-30 13:00:00 235 12631.0 20.19 19.820 19.330 18.750 17.880 31.720 33.280 2.848 2.263 8.410 8.980 9.180 8.990 0.283 0.195 0.269 0.263     305.600 0.00 1 1 20.320 20.190 19.710 18.340 18.950 3.966 3.976 1.9070 19.830 19.250 18.850 17.410 18.380 1.849 1.207 0.8370 171.40 88.50 20 0                             23.657 7.496 16.153 21.631 7.190 14.432
UPLMET_235 2015-09-30 12:55:00 235 12631.0 19.55 19.530 19.230 18.520 17.960 35.070 35.680 3.690 3.026 8.410 8.990 9.180 9.000 0.283 0.195 0.269 0.263     305.700 0.00 1 1 20.050 20.000 19.580 18.420 18.790 5.452 4.444 0.8550 19.150 19.140 18.750 17.620 18.060 1.751 1.394 0.4110 67.06 42.10 20 0                             22.737 7.956 14.763 21.322 7.591 13.714
UPLMET_235 2015-09-30 12:50:00 235 12631.0 18.85 18.380 17.950 17.520 17.180 33.400 34.810 2.390 1.810 8.410 8.990 9.180 8.990 0.283 0.195 0.269 0.263     305.700 0.00 1 1 19.070 18.990 18.570 18.360 17.920 5.408 3.785 2.0400 18.780 18.130 17.700 16.740 17.370 1.225 0.851 1.1720 55.88 21.59 20 0                             21.767 7.255 14.497 20.023 6.961 13.053
UPLMET_235 2015-09-30 12:45:00 235 12631.0 18.99 18.450 17.950 17.530 16.900 35.260 35.300 3.248 1.995 8.420 8.990 9.180 8.990 0.283 0.195 0.269 0.263     305.800 0.00 1 1 19.160 18.930 18.270 17.320 17.780 6.039 4.985 2.6280 18.850 18.250 17.770 16.770 17.390 1.066 0.798 1.8390 92.30 19.24 20 0                             21.958 7.712 14.216 20.036 7.054 12.963
UPLMET_235 2015-09-30 12:40:00 235 12631.0 18.68 18.240 17.980 17.670 16.660 40.380 40.550 4.912 4.080 8.420 8.990 9.180 9.000 0.283 0.195 0.269 0.263     305.700 0.00 1 1 18.980 18.720 18.260 17.310 17.810 6.751 5.522 1.9330 18.540 18.010 17.820 16.220 17.560 2.359 2.252 0.7400 70.37 9.65 20 0                             21.537 8.669 12.840 20.213 8.178 12.017
UPLMET_235 2015-09-30 12:35:00 235 12631.0 18.99 18.590 18.370 18.020 16.970 38.120 37.450 4.386 3.279 8.420 9.000 9.180 9.000 0.283 0.195 0.269 0.263     305.700 0.00 1 1 19.200 18.910 18.630 17.160 18.130 5.972 4.727 1.0510 18.630 18.130 18.040 16.460 17.780 2.848 2.268 0.3100 216.90 51.33 20 0                             21.958 8.356 13.588 20.664 7.729 12.925
UPLMET_235 2015-09-30 12:30:00 235 12631.0 19.33 18.980 18.580 18.130 17.150 37.130 38.290 4.303 3.686 8.420 9.000 9.180 9.000 0.283 0.195 0.269 0.263     305.700 0.00 1 1 19.500 19.230 18.750 17.530 18.210 6.184 5.078 1.4700 19.110 18.680 18.380 16.950 18.090 2.729 2.250 0.6200 26.21 86.60 20 0                             22.428 8.307 14.100 20.807 7.954 12.840
UPLMET_235 2015-09-30 12:25:00 235 12631.0 19.07 18.860 18.450 17.850 16.890 39.280 40.060 4.875 4.085 8.430 9.000 9.180 9.000 0.283 0.195 0.269 0.263     305.600 0.00 1 1 19.390 19.170 18.700 17.380 18.100 6.437 5.141 1.6480 18.730 18.440 18.100 16.410 17.590 3.001 3.033 0.5700 68.00 47.82 20 0                             22.068 8.647 13.400 20.444 8.181 12.254
UPLMET_235 2015-09-30 12:20:00 235 12631.0 18.57 18.340 18.030 17.430 16.380 39.540 40.170 4.547 3.757 8.430 9.000 9.180 9.000 0.283 0.195 0.269 0.263     305.600 0.00 1 1 18.750 18.510 18.170 16.670 17.550 5.881 4.730 0.9440 18.410 18.070 17.810 16.090 17.320 3.305 2.822 0.3860 113.70 32.48 20 0                             21.389 8.451 12.932 19.910 7.994 11.912
UPLMET_235 2015-09-30 12:15:00 235 12631.0 18.49 18.020 17.680 17.230 16.100 39.800 41.090 4.561 3.886 8.440 9.010 9.180 9.000 0.283 0.195 0.269 0.263     305.500 0.00 1 1 18.740 18.210 17.790 16.320 17.320 6.607 5.632 1.1050 18.390 17.870 17.580 15.930 17.140 3.265 2.570 0.4320 128.30 37.55 20 0                             21.282 8.459 12.812 19.660 8.067 11.581
UPLMET_235 2015-09-30 12:10:00 235 12631.0 18.82 18.460 18.050 17.610 16.400 40.860 42.270 5.235 4.634 8.440 9.010 9.180 9.000 0.283 0.195 0.269 0.263     305.600 0.00 1 1 18.970 18.600 18.150 16.820 17.700 6.767 6.276 1.6660 18.620 18.210 17.860 16.080 17.450 3.818 3.020 0.7530 89.70 38.00 20 0                             21.726 8.867 12.849 20.137 8.502 11.625
UPLMET_235 2015-09-30 12:05:00 235 12631.0 18.69 18.300 17.970 17.630 16.210 38.240 39.460 4.178 3.682 8.440 9.010 9.180 9.000 0.283 0.195 0.269 0.263     305.500 0.00 1 1 18.790 18.500 18.190 16.430 17.780 5.428 4.760 1.8350 18.570 18.160 17.850 16.040 17.480 3.438 3.013 0.5620 72.57 21.64 20 0                             21.550 8.235 13.309 20.163 7.952 12.206
UPLMET_235 2015-09-30 12:00:00 235 12631.0 18.43 18.000 17.630 17.320 16.070 40.030 40.260 4.592 3.690 8.450 9.010 9.180 9.000 0.283 0.195 0.269 0.263     305.500 0.00 1 1 18.550 18.200 17.840 16.530 17.500 5.608 4.768 0.9530 18.220 17.790 17.360 15.640 17.060 3.182 3.114 0.3140 280.00 71.46 20 0                             21.202 8.477 12.715 19.772 7.956 11.812
UPLMET_235 2015-09-30 11:55:00 235 12631.0 18.18 17.930 17.510 17.200 16.070 42.050 42.500 5.074 4.351 8.450 9.020 9.180 9.000 0.284 0.195 0.269 0.263     305.500 0.00 1 1 18.340 18.070 17.620 16.320 17.230 6.344 5.577 0.8370 18.080 17.770 17.340 15.630 17.110 3.444 3.141 0.3260 355.50 67.10 20 0                             20.872 8.768 12.096 19.622 8.335 11.283
UPLMET_235 2015-09-30 11:50:00 235 12631.0 18.11 17.780 17.350 17.030 15.990 40.880 42.300 4.618 4.134 8.460 9.020 9.180 9.000 0.284 0.195 0.269 0.263     305.500 0.00 1 1 18.330 18.100 17.600 16.550 17.230 5.780 5.569 0.6240 17.900 17.490 17.180 15.600 16.840 3.618 3.420 0.1820 350.70 58.22 20 0                             20.781 8.493 12.286 19.412 8.209 11.201
UPLMET_235 2015-09-30 11:45:00 235 12631.0 17.80 17.570 17.280 17.010 15.790 43.810 44.320 5.323 4.761 8.460 9.020 9.180 9.000 0.284 0.195 0.269 0.263     305.500 0.00 1 1 17.920 17.610 17.360 15.960 17.070 7.018 6.467 0.9710 17.720 17.500 17.210 15.630 16.950 3.542 3.346 0.2570 351.40 46.20 20 0                             20.380 8.921 11.451 19.388 8.578 10.795
UPLMET_235 2015-09-30 11:40:00 235 12631.0 17.87 17.520 17.230 16.920 15.580 46.940 48.940 6.358 6.106 8.470 9.030 9.180 9.000 0.284 0.195 0.269 0.263     305.500 0.00 1 1 17.930 17.620 17.320 15.780 16.980 8.320 7.026 0.7130 17.830 17.430 17.140 15.320 16.830 3.825 4.078 0.1400 63.84 24.56 20 0                             20.470 9.585 10.861 19.277 9.419 9.843
UPLMET_235 2015-09-30 11:35:00 235 12631.0 17.76 17.450 17.170 16.880 15.620 48.470 48.620 6.741 5.987 8.470 9.030 9.180 9.000 0.284 0.195 0.269 0.263     305.500 0.00 1 1 17.830 17.480 17.310 15.870 17.090 8.150 6.860 1.0690 17.710 17.380 17.120 15.280 16.760 5.108 4.734 0.3100 54.96 19.66 20 0                             20.328 9.841 10.475 19.229 9.342 9.880
UPLMET_235 2015-09-30 11:30:00 235 12631.0 17.78 17.490 17.350 17.180 16.010 44.530 43.650 5.542 4.718 8.480 9.030 9.180 9.000 0.284 0.195 0.269 0.263     305.600 0.00 1 1 17.920 17.570 17.430 16.170 17.280 6.521 5.585 0.9350 17.640 17.420 17.250 15.830 17.100 4.504 3.870 0.2650 288.20 62.00 20 0                             20.354 9.058 11.290 19.597 8.552 11.043
UPLMET_235 2015-09-30 11:25:00 235 12631.0 17.47 17.120 17.010 16.890 15.780 44.340 44.080 5.204 4.594 8.480 9.030 9.180 9.000 0.284 0.195 0.269 0.263     305.400 0.00 1 1 17.750 17.350 17.230 16.110 17.020 6.386 5.300 0.9530 17.330 16.960 16.870 15.630 16.740 4.555 4.073 0.3530 76.35 55.08 20 0                             19.960 8.848 11.110 19.241 8.479 10.759
UPLMET_235 2015-09-30 11:20:00 235 12631.0 17.64 17.330 17.210 17.060 15.840 43.990 43.340 5.238 4.503 8.490 9.040 9.180 9.000 0.284 0.195 0.269 0.263     305.500 0.00 1 1 18.090 17.680 17.560 16.250 17.400 6.324 5.335 0.9350 17.410 17.100 16.980 15.540 16.860 4.217 3.880 0.4010 2.39 48.89 20 0                             20.175 8.869 11.300 19.449 8.425 11.020
UPLMET_235 2015-09-30 11:15:00 235 12631.0 18.04 17.960 17.920 17.530 16.500 44.130 43.770 5.649 5.070 8.500 9.040 9.180 9.000 0.284 0.195 0.269 0.263     305.600 0.00 1 1 18.260 18.340 18.160 17.110 17.660 7.067 5.955 1.0330 17.720 17.570 17.670 15.930 17.310 4.136 4.276 0.3440 305.70 47.08 20 0                             20.690 9.126 11.559 20.036 8.765 11.266
UPLMET_235 2015-09-30 11:10:00 235 12631.0 17.80 17.690 17.690 17.290 16.050 44.610 44.960 5.598 5.249 8.500 9.040 9.180 9.000 0.284 0.195 0.269 0.263     305.500 0.00 1 1 18.040 17.930 17.760 16.540 17.440 6.667 5.904 0.3740 17.580 17.480 17.610 15.650 17.190 4.927 4.449 0.1170 338.40 31.93 20 0                             20.380 9.094 11.288 19.734 8.875 10.862
UPLMET_235 2015-09-30 11:05:00 235 12631.0 17.93 17.810 17.650 17.320 16.330 44.900 45.070 5.789 5.297 8.510 9.040 9.180 9.000 0.284 0.195 0.269 0.263     305.500 0.00 1 1 18.070 17.940 17.780 16.590 17.420 7.006 6.584 1.1230 17.690 17.610 17.530 15.950 17.250 4.716 4.463 0.4270 21.58 58.46 20 0                             20.547 9.215 11.321 19.772 8.905 10.861
UPLMET_235 2015-09-30 11:00:00 235 12631.0 17.49 17.260 17.170 16.980 15.980 44.750 44.230 5.353 4.724 8.510 9.050 9.180 9.000 0.284 0.195 0.269 0.263     305.500 0.00 1 1 17.680 17.490 17.430 16.510 17.250 6.193 5.851 0.4990 17.360 17.070 16.970 15.440 16.780 4.383 3.943 0.1190 354.30 31.83 20 0                             19.985 8.940 11.042 19.351 8.556 10.792
UPLMET_235 2015-09-30 10:55:00 235 12631.0 17.72 17.570 17.480 17.260 15.990 40.490 40.440 4.133 3.709 8.520 9.050 9.180 9.000 0.284 0.195 0.269 0.263     305.500 0.00 1 1 17.880 17.700 17.620 16.340 17.380 4.587 4.285 1.2650 17.470 17.290 17.130 15.470 17.020 3.682 2.990 0.6210 72.13 23.89 20 0                             20.277 8.209 12.067 19.697 7.967 11.731
UPLMET_235 2015-09-30 10:50:00 235 12631.0 17.38 17.300 17.340 17.180 16.070 38.780 37.020 3.163 2.349 8.530 9.050 9.180 9.000 0.284 0.195 0.269 0.263     305.500 0.00 1 1 17.470 17.410 17.510 16.240 17.280 5.692 4.559 1.2120 17.320 17.210 17.210 15.930 17.090 1.035 0.875 0.3420 216.40 79.32 20 0                             19.847 7.665 12.150 19.597 7.234 12.342
UPLMET_235 2015-09-30 10:45:00 235 12631.0 17.57 17.410 17.380 17.320 16.040 41.330 40.290 4.263 3.684 8.530 9.050 9.180 9.000 0.284 0.195 0.269 0.263     305.600 0.00 1 1 17.980 17.620 17.530 16.260 17.500 5.603 4.964 0.6860 17.380 17.260 17.260 15.830 17.120 2.481 2.145 0.3010 125.80 68.12 20 0                             20.086 8.284 11.785 19.772 7.953 11.806
UPLMET_235 2015-09-30 10:40:00 235 12631.0 18.46 17.880 17.680 17.370 15.970 41.080 41.600 4.974 4.195 8.540 9.060 9.180 9.000 0.284 0.195 0.269 0.263     305.600 0.00 1 1 18.680 17.990 17.750 16.270 17.500 8.160 6.031 0.9000 18.070 17.670 17.580 15.550 17.250 3.250 3.085 0.3960 192.10 28.48 20 0                             21.242 8.707 12.516 19.834 8.244 11.583
UPLMET_235 2015-09-30 10:35:00 235 12631.0 18.48 17.870 17.650 17.220 16.060 44.470 46.420 6.163 5.633 8.550 9.060 9.190 9.000 0.284 0.195 0.270 0.263     305.700 0.00 1 1 18.630 18.000 17.700 16.320 17.310 6.882 6.656 0.7840 18.360 17.780 17.560 15.720 17.140 4.925 4.811 0.4460 77.39 16.94 20 0                             21.269 9.457 11.811 19.647 9.116 10.527
UPLMET_235 2015-09-30 10:30:00 235 12631.0 18.09 17.690 17.360 16.940 16.270 44.030 45.720 5.662 5.164 8.550 9.060 9.190 9.000 0.284 0.195 0.270 0.263     305.500 0.00 1 1 18.310 17.890 17.690 16.910 17.200 7.026 6.045 1.0690 17.810 17.380 16.960 15.680 16.670 4.719 4.563 0.2960 42.36 46.48 20 0                             20.755 9.134 11.616 19.302 8.823 10.477
UPLMET_235 2015-09-30 10:25:00 235 12631.0 17.76 17.360 17.040 16.700 15.700 44.150 45.670 5.398 4.935 8.560 9.070 9.180 9.000 0.284 0.195 0.270 0.263     305.600 0.00 1 1 17.920 17.520 17.160 15.960 16.760 6.457 5.846 1.2560 17.570 17.180 16.950 15.530 16.600 4.363 4.082 0.8050 71.09 15.52 20 0                             20.328 8.968 11.353 19.010 8.683 10.328
UPLMET_235 2015-09-30 10:20:00 235 12631.0 17.28 16.860 16.680 16.270 15.440 44.480 45.670 5.084 4.537 8.570 9.070 9.180 9.000 0.284 0.195 0.270 0.263     305.500 0.00 1 1 17.540 17.200 16.980 15.830 16.580 6.288 6.039 1.1940 17.090 16.590 16.310 15.190 15.970 4.248 3.928 0.5610 80.70 17.40 20 0                             19.722 8.774 10.950 18.497 8.445 10.049
UPLMET_235 2015-09-30 10:15:00 235 12631.0 17.23 16.670 16.220 16.110 14.960 41.840 43.830 4.158 3.814 8.570 9.070 9.180 9.000 0.284 0.195 0.270 0.263     305.500 0.00 1 1 17.560 17.000 16.530 15.190 16.300 4.782 4.057 1.2920 17.010 16.460 16.040 14.740 16.010 3.695 3.669 0.7690 60.11 23.96 20 0                             19.660 8.223 11.434 18.309 8.026 10.284
UPLMET_235 2015-09-30 10:10:00 235 12631.0 17.57 17.020 16.660 16.350 15.260 42.710 44.700 4.750 4.296 8.580 9.070 9.180 9.000 0.284 0.195 0.270 0.263     305.600 0.00 1 1 17.690 17.170 16.850 15.670 16.420 6.268 5.483 1.3270 17.440 16.880 16.500 14.940 16.230 3.678 3.479 0.7110 70.12 18.15 20 0                             20.086 8.572 11.507 18.592 8.303 10.281
UPLMET_235 2015-09-30 10:05:00 235 12631.0 17.35 16.710 16.350 15.880 15.000 44.990 46.730 5.302 4.510 8.590 9.070 9.190 9.000 0.284 0.195 0.270 0.263     305.500 0.00 1 1 17.420 16.870 16.490 15.350 16.160 6.535 5.146 1.1050 17.290 16.600 16.200 14.550 15.700 4.533 4.103 0.6080 32.20 55.48 20 0                             19.809 8.908 10.897 18.042 8.429 9.611
UPLMET_235 2015-09-30 10:00:00 235 12631.0 17.57 16.810 16.300 15.810 14.580 42.050 45.270 4.537 4.000 8.600 9.080 9.180 9.000 0.284 0.195 0.270 0.263     305.500 0.00 1 1 17.730 17.100 16.590 14.910 15.970 6.410 4.451 1.3990 17.350 16.460 15.990 14.250 15.640 4.009 3.559 0.9290 78.16 17.08 20 0                             20.086 8.445 11.640 17.962 8.132 9.830
UPLMET_235 2015-09-30 09:55:00 235 12631.0 17.49 17.020 16.490 15.960 14.730 43.240 45.740 4.860 4.275 8.600 9.080 9.190 9.000 0.284 0.195 0.270 0.263     305.700 0.00 1 1 17.650 17.200 16.620 14.920 16.050 5.678 4.883 1.1940 17.230 16.830 16.350 14.590 15.800 4.229 3.711 0.7570 69.38 15.69 20 0                             19.985 8.638 11.344 18.135 8.291 9.840
UPLMET_235 2015-09-30 09:50:00 235 12631.0 17.21 16.610 16.180 15.700 14.510 44.590 47.070 5.044 4.446 8.610 9.080 9.190 9.000 0.284 0.195 0.270 0.263     305.700 0.00 1 1 17.290 16.770 16.290 14.820 15.780 6.104 5.730 1.2210 17.140 16.510 16.090 14.320 15.630 4.329 4.010 0.7200 79.47 21.41 20 0                             19.635 8.749 10.880 17.836 8.391 9.440
UPLMET_235 2015-09-30 09:45:00 235 12631.0 17.18 16.490 16.100 15.560 14.460 45.820 48.210 5.407 4.665 8.620 9.090 9.190 9.000 0.284 0.195 0.270 0.263     305.700 0.00 1 1 17.270 16.600 16.180 14.760 15.630 6.583 5.437 1.1760 17.050 16.410 16.060 14.210 15.520 4.470 3.927 0.7790 83.50 14.04 20 0                             19.597 8.974 10.618 17.676 8.521 9.155
UPLMET_235 2015-09-30 09:40:00 235 12631.0 17.09 16.450 16.060 15.540 14.300 45.330 48.330 5.177 4.687 8.630 9.090 9.190 9.000 0.284 0.195 0.270 0.263     305.700 0.00 1 1 17.140 16.560 16.150 14.390 15.680 6.347 5.216 1.2740 17.040 16.370 15.990 14.160 15.490 4.710 4.316 0.8290 82.50 25.66 20 0                             19.486 8.831 10.653 17.654 8.534 9.122
UPLMET_235 2015-09-30 09:35:00 235 12631.0 17.31 16.670 16.230 15.640 14.370 44.910 48.200 5.244 4.734 8.630 9.090 9.190 9.000 0.284 0.195 0.270 0.263     305.700 0.00 1 1 17.410 16.820 16.440 14.690 15.740 6.191 5.627 1.2740 17.200 16.450 16.080 14.170 15.550 4.482 4.249 0.8010 74.98 19.92 20 0                             19.759 8.872 10.885 17.767 8.562 9.203
UPLMET_235 2015-09-30 09:30:00 235 12631.0 17.12 16.580 16.160 15.640 14.200 44.740 47.050 5.021 4.390 8.640 9.090 9.190 9.000 0.284 0.195 0.270 0.263     305.600 0.00 1 1 17.180 16.670 16.250 14.400 15.690 5.882 4.924 1.1760 17.070 16.470 15.990 14.090 15.560 4.250 4.042 0.6210 73.80 42.77 20 0                             19.523 8.735 10.789 17.767 8.358 9.408
UPLMET_235 2015-09-30 09:25:00 235 12631.0 16.98 16.580 16.090 15.600 14.170 44.930 46.740 4.949 4.263 8.650 9.090 9.180 9.000 0.284 0.195 0.270 0.263     305.700 0.00 1 1 17.160 16.820 16.300 14.490 15.700 6.175 4.752 1.3010 16.840 16.380 15.890 13.920 15.540 4.229 3.914 0.8020 60.26 11.47 20 0                             19.351 8.692 10.656 17.722 8.284 9.439
UPLMET_235 2015-09-30 09:20:00 235 12631.0 16.86 16.320 15.910 15.560 14.050 46.400 48.140 5.293 4.637 8.650 9.100 9.180 9.000 0.284 0.195 0.270 0.263     305.700 0.00 1 1 16.910 16.480 16.080 14.370 15.620 6.658 5.988 1.1760 16.800 16.190 15.810 13.780 15.520 4.405 4.082 0.5470 68.56 17.54 20 0                             19.204 8.903 10.293 17.676 8.504 9.167
UPLMET_235 2015-09-30 09:15:00 235 12631.0 16.96 16.330 16.070 15.680 14.020 46.450 48.250 5.404 4.782 8.660 9.100 9.190 9.000 0.284 0.195 0.270 0.263     305.700 0.00 1 1 17.010 16.410 16.140 14.280 15.750 6.356 5.481 1.2030 16.860 16.210 15.840 13.800 15.560 4.495 4.069 0.4590 70.76 30.67 20 0                             19.326 8.972 10.349 17.813 8.591 9.218
UPLMET_235 2015-09-30 09:10:00 235 12631.0 16.65 16.180 15.910 15.430 13.990 49.710 50.570 6.098 5.228 8.670 9.100 9.180 9.000 0.284 0.195 0.270 0.263     305.800 0.00 1 1 16.850 16.320 16.050 14.160 15.650 7.485 5.961 0.5880 16.360 15.980 15.760 13.810 15.150 4.768 4.444 0.1520 62.35 22.92 20 0                             18.950 9.414 9.530 17.530 8.862 8.665
UPLMET_235 2015-09-30 09:05:00 235 12631.0 16.37 15.860 15.620 15.070 13.860 47.940 49.030 5.320 4.458 8.680 9.100 9.180 9.000 0.284 0.195 0.270 0.263     305.700 0.00 1 1 16.410 15.940 15.730 14.060 15.150 6.588 5.454 1.3720 16.330 15.760 15.540 13.670 15.000 4.481 4.027 0.7640 75.73 15.27 20 0                             18.615 8.919 9.691 17.129 8.398 8.731
UPLMET_235 2015-09-30 09:00:00 235 12631.0 16.37 15.910 15.520 15.120 13.740 46.200 48.010 4.792 4.203 8.680 9.110 9.180 9.000 0.284 0.195 0.270 0.263     305.700 0.00 1 1 16.440 16.030 15.680 13.890 15.170 6.177 4.760 1.3720 16.300 15.780 15.400 13.650 15.050 4.231 3.954 0.8580 78.77 17.38 20 0                             18.615 8.597 10.015 17.184 8.249 8.934
UPLMET_235 2015-09-30 08:55:00 235 12631.0 16.40 15.930 15.720 15.300 13.710 47.130 47.640 5.107 4.258 8.690 9.110 9.180 9.000 0.284 0.195 0.270 0.263     305.800 0.00 1 1 16.480 16.090 15.910 13.860 15.400 5.686 4.595 1.0780 16.300 15.740 15.410 13.520 15.140 4.611 3.815 0.8080 79.01 8.58 20 0                             18.651 8.788 9.861 17.384 8.281 9.102
UPLMET_235 2015-09-30 08:50:00 235 12631.0 16.38 15.850 15.660 15.190 13.780 47.120 48.050 5.082 4.280 8.700 9.110 9.180 9.000 0.284 0.195 0.270 0.263     305.500 0.00 1 1 16.520 16.010 15.820 14.010 15.320 6.685 4.960 1.0780 16.280 15.700 15.510 13.600 15.050 4.445 3.813 0.6530 68.70 15.94 20 0                             18.627 8.773 9.850 17.262 8.294 8.967
UPLMET_235 2015-09-30 08:45:00 235 12631.0 16.54 16.010 15.590 15.150 13.690 45.880 47.360 4.845 4.030 8.710 9.110 9.180 9.010 0.284 0.196 0.270 0.263     305.600 0.00 1 1 16.570 16.140 15.680 13.870 15.230 5.850 4.900 1.0070 16.500 15.870 15.510 13.580 15.070 3.522 3.011 0.7940 81.20 17.75 20 0                             18.818 8.629 10.184 17.217 8.149 9.063
UPLMET_235 2015-09-30 08:40:00 235 12631.0 16.59 15.870 15.500 15.030 13.360 48.620 48.340 5.690 4.219 8.710 9.120 9.180 9.010 0.284 0.196 0.270 0.263     305.800 0.00 1 1 16.670 16.080 15.610 13.640 15.230 8.000 5.271 0.9350 16.490 15.750 15.430 12.820 14.890 4.384 3.902 0.4700 80.30 19.25 20 0                             18.878 9.152 9.699 17.085 8.258 8.826
UPLMET_235 2015-09-30 08:35:00 235 12631.0 16.38 15.740 15.510 14.930 13.050 54.160 50.390 7.083 4.707 8.720 9.120 9.180 9.010 0.284 0.196 0.270 0.263     305.700 0.00 1 1 16.600 15.870 15.570 13.220 14.980 8.500 6.379 0.7310 16.110 15.540 15.380 12.780 14.840 5.182 3.672 0.4620 80.30 11.47 20 0                             18.627 10.075 8.539 16.975 8.546 8.421
UPLMET_235 2015-09-30 08:30:00 235 12631.0 15.80 15.440 15.360 14.790 12.950 54.120 48.940 6.534 4.169 8.730 9.120 9.180 9.010 0.284 0.196 0.270 0.263     305.600 0.00 1 1 16.080 15.530 15.410 13.100 14.840 8.050 4.789 0.7390 15.380 15.310 15.310 12.830 14.710 4.838 3.977 0.4420 89.60 5.56 20 0                             17.950 9.702 8.236 16.823 8.229 8.590
UPLMET_235 2015-09-30 08:25:00 235 12631.0 14.73 14.940 15.100 14.560 12.950 54.290 49.900 5.601 4.237 8.740 9.120 9.180 9.010 0.284 0.196 0.270 0.263     305.600 0.00 1 1 15.310 15.270 15.340 13.100 14.720 6.907 5.710 0.5880 14.110 14.400 14.640 12.790 14.290 4.501 3.767 0.3970 93.80 4.58 20 0                             16.758 9.095 7.660 16.575 8.269 8.304
UPLMET_235 2015-09-30 08:20:00 235 12631.0 13.57 13.870 14.120 14.000 12.770 55.290 50.900 4.781 4.009 8.750 9.120 9.180 9.010 0.284 0.196 0.270 0.263     305.500 0.00 1 1 14.040 14.340 14.580 13.010 14.240 5.866 4.281 0.7840 13.150 13.630 13.870 12.610 13.770 4.393 3.835 0.4460 69.62 4.48 20 0                             15.544 8.590 6.950 15.985 8.137 7.848
UPLMET_235 2015-09-30 08:15:00 235 12631.0 12.90 13.590 14.040 13.710 12.610 57.730 51.430 4.779 3.882 8.750 9.120 9.180 9.010 0.284 0.196 0.270 0.263     305.400 0.00 1 1 13.110 13.680 14.220 12.690 13.770 5.462 4.072 0.9800 12.660 13.410 13.810 12.490 13.650 4.376 3.721 0.6060 75.91 5.70 20 0                             14.879 8.589 6.289 15.686 8.065 7.619
UPLMET_235 2015-09-30 08:10:00 235 12631.0 12.24 12.760 13.830 13.640 12.570 64.440 52.310 5.727 4.060 8.760 9.130 9.180 9.010 0.284 0.196 0.270 0.263     305.500 0.00 1 1 12.620 13.370 14.230 12.640 13.830 6.363 4.275 0.8640 11.930 12.160 13.180 12.470 13.300 4.790 3.912 0.4400 89.10 6.34 20 0                             14.248 9.175 5.067 15.615 8.167 7.447
UPLMET_235 2015-09-30 08:05:00 235 12631.0 11.78 11.950 12.520 12.770 12.260 65.580 55.330 5.549 4.049 8.770 9.130 9.180 9.010 0.284 0.196 0.270 0.263     305.500 0.00 1 1 11.910 12.130 13.100 12.570 13.250 5.960 4.579 0.5350 11.680 11.850 12.240 11.860 12.350 4.658 3.825 0.2670 89.70 1.58 20 0                             13.822 9.063 4.758 14.753 8.160 6.590
UPLMET_235 2015-09-30 08:00:00 235 12631.0 11.60 11.790 12.210 12.260 11.950 66.230 57.100 5.526 4.022 8.780 9.130 9.180 9.010 0.284 0.195 0.270 0.263     305.700 0.00 1 1 11.690 11.840 12.260 12.290 12.330 5.980 4.328 0.2670 11.530 11.760 12.170 11.800 12.230 5.236 3.698 0.0220 91.80 0.01 20 0                             13.659 9.048 4.613 14.267 8.145 6.120
UPLMET_235 2015-09-30 07:55:00 235 12631.0 11.50 11.720 12.260 12.160 12.030 66.190 55.890 5.412 3.626 8.780 9.130 9.180 9.010 0.284 0.195 0.270 0.263     305.500 0.00 1 1 11.550 11.760 12.280 12.220 12.230 6.246 4.295 0.4010 11.460 11.690 12.220 11.740 12.100 4.693 3.298 0.0560 91.60 0.10 20 0                             13.569 8.977 4.588 14.173 7.921 6.252
UPLMET_235 2015-09-30 07:50:00 235 12631.0 11.37 11.670 12.210 12.050 11.960 66.930 57.460 5.458 3.914 8.790 9.130 9.180 9.010 0.284 0.195 0.270 0.263     305.800 0.00 1 1 11.470 11.700 12.260 12.050 12.100 5.949 4.243 0.5080 11.270 11.580 12.090 11.870 11.980 4.794 3.688 0.3060 93.80 1.49 20 0                             13.452 9.005 4.449 14.071 8.083 5.986
UPLMET_235 2015-09-30 07:45:00 235 12631.0 11.10 11.450 11.910 11.880 11.820 65.830 58.770 4.965 4.077 8.800 9.140 9.180 9.010 0.284 0.195 0.270 0.263     305.700 0.00 1 1 11.240 11.570 12.070 11.950 11.990 5.177 4.149 0.5170 10.940 11.280 11.780 11.710 11.750 4.634 3.905 0.2960 66.86 17.81 20 0                             13.214 8.701 4.515 13.914 8.176 5.737
UPLMET_235 2015-09-30 07:40:00 235 12631.0 10.79 11.130 11.770 11.680 11.590 67.800 59.960 5.079 4.179 8.810 9.140 9.180 9.010 0.284 0.195 0.270 0.263     305.600 0.00 1 1 10.940 11.270 11.780 11.710 11.750 6.011 4.612 0.5880 10.670 10.970 11.750 11.200 11.630 4.721 4.064 0.2950 49.51 0.03 20 0                             12.944 8.771 4.168 13.731 8.235 5.498
UPLMET_235 2015-09-30 07:35:00 235 12631.0 10.66 11.010 11.760 11.630 11.150 75.540 64.270 6.523 5.119 8.810 9.140 9.180 9.010 0.284 0.195 0.270 0.263     305.600 0.00 1 1 10.700 11.050 11.790 11.260 11.650 6.744 5.514 0.6240 10.620 10.970 11.630 11.040 11.610 6.197 4.317 0.1340 84.40 53.50 20 0                             12.832 9.695 3.139 13.686 8.795 4.890
UPLMET_235 2015-09-30 07:30:00 235 12631.0 10.47 11.020 11.430 11.630 11.180 74.940 66.040 6.223 5.509 8.820 9.140 9.180 9.010 0.284 0.196 0.270 0.263     305.400 0.00 1 1 10.610 11.050 11.600 11.250 11.660 6.478 5.704 0.0000 10.340 10.980 11.370 11.110 11.590 5.873 5.361 0.0000 0.00 0.00 20 0                             12.671 9.496 3.175 13.686 9.037 4.648
UPLMET_235 2015-09-30 07:25:00 235 12631.0 10.27 10.900 11.310 11.480 11.170 73.370 64.230 5.723 4.969 8.830 9.140 9.180 9.010 0.284 0.196 0.270 0.263     305.300 0.00 1 1 10.340 10.970 11.370 11.240 11.580 5.901 5.360 0.0000 10.240 10.870 11.250 11.100 11.440 5.517 4.660 0.0000 0.00 0.00 20 0                             12.503 9.173 3.329 13.551 8.704 4.847
UPLMET_235 2015-09-30 07:20:00 235 12631.0 10.21 10.810 11.240 11.420 11.080 74.860 63.290 5.962 4.701 8.840 9.150 9.180 9.010 0.284 0.196 0.270 0.263     305.400 0.00 1 1 10.250 10.870 11.250 11.130 11.440 6.040 4.803 0.0000 10.160 10.760 11.220 11.020 11.410 5.792 4.469 0.0000 0.00 0.00 20 0                             12.453 9.326 3.131 13.497 8.542 4.955
UPLMET_235 2015-09-30 07:15:00 235 12631.0 10.02 10.540 11.180 11.400 10.950 74.600 61.790 5.728 4.341 8.840 9.150 9.180 9.010 0.284 0.196 0.270 0.263     305.400 0.00 1 1 10.150 10.750 11.260 11.040 11.440 5.896 4.767 0.0000 9.950 10.330 11.040 10.730 11.350 5.517 4.003 0.0000 0.00 0.00 20 0                             12.295 9.176 3.123 13.479 8.329 5.150
UPLMET_235 2015-09-30 07:10:00 235 12631.0 10.03 10.460 10.940 11.230 10.660 74.280 65.430 5.667 4.993 8.850 9.150 9.180 9.010 0.284 0.195 0.270 0.263     305.300 0.00 1 1 10.050 10.550 11.030 10.820 11.360 5.860 5.115 0.0000 9.990 10.340 10.820 10.450 10.980 5.415 4.688 0.0000 0.00 0.00 20 0                             12.303 9.137 3.164 13.328 8.718 4.608
UPLMET_235 2015-09-30 07:05:00 235 12631.0 9.97 10.610 10.900 10.810 10.660 71.800 65.310 5.126 4.576 8.860 9.150 9.190 9.010 0.284 0.195 0.270 0.263     305.300 0.00 1 1 10.020 10.660 10.930 10.750 10.960 5.423 4.900 0.0000 9.870 10.540 10.840 10.440 10.720 4.834 4.315 0.0000 0.00 0.00 20 0                             12.254 8.800 3.456 12.961 8.468 4.496
UPLMET_235 2015-09-30 07:00:00 235 12631.0 9.67 10.270 10.620 10.590 10.610 70.260 63.800 4.524 4.028 8.870 9.150 9.180 9.010 0.284 0.195 0.270 0.263     305.300 0.00 1 1 9.840 10.530 10.870 10.770 10.720 4.785 4.311 0.0000 9.510 9.980 10.330 10.260 10.430 4.296 3.607 0.0000 0.00 0.00 20 0                             12.010 8.437 3.572 12.773 8.148 4.624
UPLMET_235 2015-09-30 06:55:00 235 12631.0 9.43 9.910 10.250 10.300 10.190 69.210 62.090 4.084 3.364 8.870 9.150 9.190 9.010 0.284 0.195 0.270 0.263     305.400 0.00 1 1 9.490 9.960 10.310 10.240 10.410 4.291 3.607 0.1960 9.330 9.870 10.200 10.170 10.200 3.787 3.075 0.0270 242.70 0.01 20 0                             11.818 8.180 3.639 12.528 7.775 4.749
UPLMET_235 2015-09-30 06:50:00 235 12631.0 9.13 9.760 10.090 10.050 10.080 67.980 60.890 3.544 2.858 8.880 9.160 9.190 9.010 0.284 0.195 0.270 0.263     305.200 0.00 1 1 9.300 9.860 10.200 10.180 10.190 3.751 3.056 0.2230 8.950 9.580 9.940 9.930 9.910 3.393 2.693 0.0230 242.80 0.00 20 0                             11.581 7.875 3.708 12.320 7.501 4.818
UPLMET_235 2015-09-30 06:45:00 235 12631.0 8.79 9.380 9.770 9.770 9.810 67.850 60.840 3.185 2.584 8.890 9.160 9.190 9.010 0.284 0.195 0.270 0.263     305.400 0.00 1 1 8.940 9.560 9.920 9.920 9.910 3.398 2.702 0.2670 8.600 9.200 9.620 9.630 9.630 2.922 2.406 0.1370 242.80 0.00 20 0                             11.318 7.677 3.639 12.091 7.357 4.735
UPLMET_235 2015-09-30 06:40:00 235 12631.0 8.38 9.080 9.510 9.480 9.510 67.340 60.370 2.692 2.202 8.900 9.160 9.190 9.010 0.284 0.195 0.270 0.263     305.300 0.00 1 1 8.570 9.190 9.610 9.610 9.630 2.887 2.395 0.4010 8.160 8.930 9.410 9.360 9.330 2.430 1.827 0.3400 242.80 0.07 20 0                             11.008 7.413 3.595 11.857 7.159 4.699
UPLMET_235 2015-09-30 06:35:00 235 12631.0 8.01 8.720 9.190 9.130 9.050 67.600 59.490 2.386 1.665 8.900 9.160 9.190 9.010 0.284 0.195 0.270 0.263     305.300 0.00 1 1 8.140 8.910 9.400 9.330 9.320 2.536 1.798 0.5970 7.815 8.520 9.010 8.730 9.000 2.278 1.566 0.4750 243.00 0.15 20 0                             10.734 7.253 3.478 11.581 6.889 4.691
UPLMET_235 2015-09-30 06:30:00 235 12631.0 7.79 8.490 8.990 9.000 8.640 69.450 59.630 2.555 1.573 8.910 9.160 9.190 9.010 0.284 0.195 0.270 0.263     305.400 0.00 1 1 7.907 8.540 9.010 8.710 9.030 2.843 1.644 0.6860 7.715 8.450 8.970 8.570 8.970 2.297 1.497 0.5270 243.70 0.02 20 0                             10.573 7.341 3.230 11.480 6.843 4.634
UPLMET_235 2015-09-30 06:25:00 235 12631.0 8.06 8.590 8.980 8.910 8.750 69.120 60.490 2.747 1.692 8.920 9.160 9.180 9.010 0.284 0.195 0.270 0.263     305.400 0.00 1 1 8.140 8.670 9.000 8.860 8.980 2.866 1.858 0.6950 7.927 8.520 8.900 8.680 8.840 2.519 1.566 0.4780 243.80 0.01 20 0                             10.771 7.442 3.326 11.410 6.902 4.508
UPLMET_235 2015-09-30 06:20:00 235 12631.0 7.94 8.480 8.790 8.760 8.650 68.770 61.850 2.563 1.855 8.930 9.170 9.190 9.010 0.284 0.195 0.270 0.263     305.400 0.00 1 1 8.070 8.610 8.890 8.770 8.830 2.752 1.898 0.4540 7.835 8.370 8.730 8.560 8.730 2.495 1.827 0.3350 244.00 0.22 20 0                             10.685 7.346 3.337 11.295 6.983 4.309
UPLMET_235 2015-09-30 06:15:00 235 12631.0 7.86 8.350 8.730 8.760 8.520 71.720 63.050 3.077 2.122 8.930 9.170 9.190 9.010 0.284 0.195 0.270 0.263     305.300 0.00 1 1 7.940 8.370 8.740 8.550 8.780 3.306 2.326 0.4900 7.801 8.340 8.720 8.490 8.730 2.774 1.915 0.4380 244.30 0.12 20 0                             10.624 7.619 3.005 11.295 7.118 4.174
UPLMET_235 2015-09-30 06:10:00 235 12631.0 7.83 8.300 8.690 8.770 8.420 72.200 64.060 3.138 2.354 8.940 9.170 9.190 9.010 0.284 0.195 0.270 0.263     305.300 0.00 1 1 7.937 8.370 8.720 8.530 8.800 3.328 2.405 0.4900 7.765 8.230 8.650 8.260 8.740 3.056 2.300 0.4160 244.50 0.01 20 0                             10.601 7.652 2.947 11.303 7.237 4.062
UPLMET_235 2015-09-30 06:05:00 235 12631.0 7.63 8.240 8.690 8.770 8.430 73.260 64.110 3.158 2.365 8.950 9.170 9.190 9.010 0.284 0.195 0.270 0.263     305.200 0.00 1 1 7.782 8.320 8.740 8.550 8.800 3.568 2.498 0.4900 7.544 8.100 8.630 8.210 8.740 3.008 2.313 0.4390 244.50 0.09 20 0                             10.462 7.663 2.797 11.303 7.243 4.057
UPLMET_235 2015-09-30 06:00:00 235 12631.0 7.71 8.320 8.750 8.770 8.510 75.540 65.860 3.665 2.744 8.950 9.170 9.190 9.010 0.284 0.195 0.270 0.263     305.300 0.00 1 1 7.785 8.440 8.820 8.690 8.790 3.901 3.069 0.6060 7.626 8.110 8.640 8.220 8.740 3.444 2.492 0.4660 244.80 0.03 20 0                             10.514 7.942 2.572 11.303 7.441 3.859
UPLMET_235 2015-09-30 05:55:00 235 12631.0 7.82 8.300 8.680 8.790 8.390 78.060 69.220 4.242 3.468 8.960 9.170 9.190 9.010 0.284 0.195 0.270 0.263     305.300 0.00 1 1 7.976 8.420 8.790 8.520 8.880 4.574 3.871 0.5350 7.679 8.240 8.620 8.320 8.730 3.916 3.048 0.4170 244.90 0.03 20 0                             10.596 8.272 2.325 11.318 7.833 3.484
UPLMET_235 2015-09-30 05:50:00 235 12631.0 7.82 8.420 8.830 8.890 8.660 79.540 70.850 4.508 3.895 8.970 9.170 9.190 9.010 0.284 0.195 0.270 0.263     305.300 0.00 1 1 7.966 8.480 8.880 8.760 8.910 4.593 3.939 0.7480 7.689 8.240 8.740 8.460 8.840 4.462 3.857 0.4640 245.00 0.18 20 0                             10.594 8.428 2.168 11.395 8.072 3.322
UPLMET_235 2015-09-30 05:45:00 235 12631.0 7.93 8.290 8.720 8.920 8.410 79.270 70.590 4.568 3.869 8.980 9.180 9.190 9.010 0.284 0.195 0.270 0.263     305.400 0.00 1 1 8.110 8.480 8.880 8.620 9.030 4.598 3.904 0.5080 7.732 8.190 8.650 8.290 8.830 4.491 3.822 0.3430 243.60 0.39 20 0                             10.676 8.463 2.213 11.418 8.058 3.358
UPLMET_235 2015-09-30 05:40:00 235 12631.0 8.08 8.580 9.010 9.110 8.610 77.210 68.970 4.340 3.725 8.980 9.180 9.190 9.010 0.284 0.195 0.270 0.263     305.200 0.00 1 1 8.110 8.660 9.090 8.820 9.150 4.472 3.821 0.5880 8.050 8.490 8.900 8.430 9.050 4.245 3.629 0.4450 243.30 0.03 20 0                             10.786 8.329 2.458 11.565 7.976 3.589
UPLMET_235 2015-09-30 05:35:00 235 12631.0 8.04 8.640 9.070 9.090 8.880 76.320 67.870 4.138 3.483 8.990 9.180 9.190 9.010 0.284 0.195 0.270 0.263     305.400 0.00 1 1 8.060 8.660 9.100 8.910 9.160 4.286 3.639 0.9800 7.992 8.580 8.990 8.830 9.010 3.943 3.299 0.7040 244.20 0.75 20 0                             10.756 8.212 2.547 11.550 7.841 3.711
UPLMET_235 2015-09-30 05:30:00 235 12631.0 7.97 8.520 8.910 8.960 8.670 74.810 66.850 3.786 3.135 9.000 9.180 9.190 9.010 0.284 0.195 0.270 0.263     305.300 0.00 1 1 7.992 8.570 8.980 8.830 9.030 3.938 3.305 0.9180 7.959 8.470 8.850 8.570 8.880 3.632 2.929 0.7490 242.50 1.00 20 0                             10.708 8.011 2.697 11.449 7.650 3.795
UPLMET_235 2015-09-30 05:25:00 235 12631.0 8.08 8.480 8.860 8.900 8.590 72.750 65.480 3.496 2.790 9.010 9.180 9.190 9.010 0.284 0.195 0.270 0.263     305.400 0.00 1 1 8.170 8.510 8.880 8.700 8.920 3.584 2.917 0.7570 7.989 8.450 8.830 8.520 8.870 3.391 2.692 0.6190 241.80 0.03 20 0                             10.786 7.848 2.939 11.402 7.465 3.936
UPLMET_235 2015-09-30 05:20:00 235 12631.0 8.25 8.520 8.880 8.910 8.660 71.160 64.580 3.339 2.605 9.010 9.180 9.190 9.010 0.284 0.195 0.270 0.263     305.300 0.00 1 1 8.310 8.540 8.890 8.690 8.930 3.449 2.689 0.4990 8.170 8.500 8.870 8.610 8.880 3.215 2.465 0.4250 241.80 0.02 20 0                             10.911 7.762 3.147 11.410 7.368 4.041
UPLMET_235 2015-09-30 05:15:00 235 12631.0 8.34 8.580 8.920 8.960 8.670 69.710 63.470 3.138 2.406 9.020 9.180 9.190 9.010 0.284 0.195 0.270 0.263     305.300 0.00 1 1 8.360 8.590 8.930 8.740 9.010 3.227 2.494 0.5350 8.320 8.550 8.900 8.610 8.920 3.051 2.335 0.4670 241.80 0.03 20 0                             10.978 7.652 3.325 11.449 7.264 4.182
UPLMET_235 2015-09-30 05:10:00 235 12631.0 8.35 8.620 8.960 8.990 8.710 69.160 62.840 3.033 2.294 9.030 9.180 9.190 9.010 0.284 0.196 0.270 0.263     305.300 0.00 1 1 8.360 8.640 8.980 8.740 9.020 3.069 2.350 0.5170 8.320 8.600 8.940 8.660 8.970 2.953 2.236 0.4530 241.80 0.02 20 0                             10.985 7.595 3.388 11.472 7.206 4.263
UPLMET_235 2015-09-30 05:05:00 235 12631.0 8.32 8.610 8.980 8.960 8.770 69.310 62.890 3.039 2.282 9.030 9.180 9.190 9.010 0.284 0.196 0.270 0.263     305.300 0.00 1 1 8.360 8.640 9.000 8.800 9.010 3.192 2.353 0.6240 8.300 8.580 8.950 8.740 8.910 2.932 2.208 0.4900 241.80 0.03 20 0                             10.963 7.598 3.365 11.449 7.200 4.249
UPLMET_235 2015-09-30 05:00:00 235 12631.0 8.33 8.600 8.910 8.870 8.720 70.350 64.380 3.259 2.518 9.040 9.190 9.190 9.010 0.284 0.196 0.270 0.263     305.300 0.00 1 1 8.360 8.610 8.940 8.750 8.900 3.448 2.709 0.5350 8.310 8.590 8.880 8.690 8.820 3.115 2.309 0.5050 241.80 0.00 20 0                             10.970 7.718 3.253 11.379 7.322 4.053
UPLMET_235 2015-09-30 04:55:00 235 12631.0 8.28 8.570 8.840 8.820 8.680 72.880 66.860 3.709 3.008 9.050 9.190 9.190 9.010 0.284 0.196 0.270 0.263     305.500 0.00 1 1 8.320 8.610 8.870 8.700 8.840 3.992 3.300 0.5520 8.240 8.490 8.800 8.660 8.810 3.463 2.733 0.4990 241.80 0.00 20 0                             10.933 7.967 2.965 11.341 7.582 3.758
UPLMET_235 2015-09-30 04:50:00 235 12631.0 8.17 8.400 8.710 8.800 8.610 75.940 69.380 4.185 3.507 9.050 9.190 9.190 9.010 0.284 0.196 0.270 0.263     305.300 0.00 1 1 8.230 8.480 8.790 8.670 8.840 4.331 3.620 0.5880 8.120 8.340 8.660 8.510 8.720 4.010 3.346 0.5130 241.80 0.01 20 0                             10.852 8.239 2.611 11.326 7.854 3.468
UPLMET_235 2015-09-30 04:45:00 235 12631.0 8.12 8.350 8.640 8.720 8.500 77.470 71.090 4.421 3.786 9.060 9.190 9.190 9.010 0.284 0.196 0.270 0.263     305.400 0.00 1 1 8.140 8.370 8.660 8.550 8.750 4.493 3.849 0.5880 8.100 8.330 8.630 8.480 8.700 4.362 3.701 0.5200 241.80 0.02 20 0                             10.815 8.376 2.437 11.264 8.011 3.257
UPLMET_235 2015-09-30 04:40:00 235 12631.0 8.11 8.320 8.630 8.740 8.460 78.370 71.790 4.584 3.938 9.070 9.190 9.190 9.010 0.284 0.196 0.270 0.263     305.400 0.00 1 1 8.130 8.340 8.640 8.480 8.760 4.687 4.064 0.6060 8.090 8.290 8.620 8.420 8.690 4.502 3.783 0.5310 241.80 0.02 20 0                             10.808 8.473 2.338 11.280 8.097 3.182
UPLMET_235 2015-09-30 04:35:00 235 12631.0 8.18 8.320 8.650 8.790 8.410 79.170 72.530 4.790 4.137 9.080 9.190 9.190 9.010 0.284 0.196 0.270 0.263     305.400 0.00 1 1 8.220 8.420 8.700 8.430 8.850 4.857 4.235 0.5880 8.120 8.260 8.620 8.380 8.750 4.700 4.083 0.4940 241.80 0.05 20 0                             10.859 8.596 2.262 11.318 8.211 3.109
UPLMET_235 2015-09-30 04:30:00 235 12631.0 8.25 8.460 8.770 8.900 8.520 79.420 72.620 4.912 4.252 9.080 9.190 9.190 9.010 0.284 0.196 0.270 0.263     305.200 0.00 1 1 8.300 8.520 8.840 8.600 8.930 4.977 4.321 0.5170 8.220 8.430 8.700 8.440 8.850 4.835 4.170 0.4740 241.90 0.02 20 0                             10.911 8.669 2.245 11.402 8.278 3.122
UPLMET_235 2015-09-30 04:25:00 235 12631.0 8.33 8.570 8.880 8.890 8.640 78.940 72.650 4.897 4.258 9.090 9.190 9.190 9.010 0.284 0.196 0.270 0.263     305.400 0.00 1 1 8.360 8.630 8.940 8.700 8.930 4.983 4.310 0.5430 8.300 8.520 8.840 8.600 8.860 4.843 4.184 0.4570 241.90 0.00 20 0                             10.970 8.660 2.310 11.395 8.281 3.116
UPLMET_235 2015-09-30 04:20:00 235 12631.0 8.22 8.620 8.950 8.940 8.680 79.370 72.420 4.873 4.259 9.100 9.190 9.190 9.010 0.284 0.196 0.270 0.263     305.300 0.00 1 1 8.300 8.630 8.960 8.730 8.960 4.935 4.290 0.5880 8.140 8.600 8.940 8.640 8.910 4.825 4.217 0.4920 241.90 0.03 20 0                             10.889 8.646 2.246 11.433 8.282 3.153
UPLMET_235 2015-09-30 04:15:00 235 12631.0 8.06 8.570 8.920 8.940 8.710 80.400 72.390 4.899 4.247 9.100 9.190 9.190 9.010 0.284 0.196 0.270 0.263     305.400 0.00 1 1 8.140 8.610 8.950 8.740 8.970 5.013 4.297 0.4900 7.935 8.500 8.870 8.670 8.900 4.791 4.176 0.4670 241.90 0.03 20 0                             10.771 8.661 2.111 11.433 8.275 3.157
UPLMET_235 2015-09-30 04:10:00 235 12631.0 7.89 8.450 8.840 8.880 8.550 81.500 72.750 4.936 4.263 9.110 9.190 9.190 9.010 0.284 0.196 0.270 0.263     305.300 0.00 1 1 7.918 8.490 8.860 8.650 8.900 5.028 4.299 0.4990 7.866 8.430 8.810 8.450 8.850 4.782 4.178 0.4570 241.90 0.02 20 0                             10.650 8.684 1.970 11.387 8.284 3.103
UPLMET_235 2015-09-30 04:05:00 235 12631.0 7.78 8.390 8.770 8.790 8.560 81.800 73.070 4.873 4.244 9.110 9.190 9.190 9.010 0.284 0.196 0.270 0.263     305.400 0.00 1 1 7.875 8.440 8.830 8.670 8.850 4.940 4.276 0.5880 7.710 8.310 8.690 8.500 8.750 4.838 4.217 0.4820 242.00 0.04 20 0                             10.570 8.646 1.924 11.318 8.273 3.048
UPLMET_235 2015-09-30 04:00:00 235 12631.0 7.86 8.270 8.660 8.840 8.370 81.500 72.800 4.891 4.238 9.120 9.190 9.190 9.010 0.284 0.196 0.270 0.263     305.300 0.00 1 1 8.070 8.430 8.790 8.490 8.950 4.930 4.306 0.6950 7.710 8.210 8.620 8.260 8.750 4.857 4.132 0.5530 241.90 0.17 20 0                             10.623 8.657 1.965 11.356 8.269 3.089
UPLMET_235 2015-09-30 03:55:00 235 12631.0 8.18 8.600 8.940 9.030 8.700 78.860 71.030 4.739 4.063 9.130 9.200 9.190 9.010 0.284 0.196 0.270 0.263     305.400 0.00 1 1 8.210 8.660 8.980 8.810 9.060 4.863 4.155 0.4900 8.100 8.450 8.820 8.430 8.980 4.642 3.940 0.4120 241.60 0.05 20 0                             10.859 8.565 2.296 11.503 8.168 3.332
UPLMET_235 2015-09-30 03:50:00 235 12631.0 8.27 8.650 8.970 8.990 8.820 77.730 70.230 4.617 3.868 9.130 9.200 9.190 9.010 0.284 0.196 0.270 0.263     305.300 0.00 1 1 8.300 8.670 8.990 8.930 9.070 4.696 3.973 0.4450 8.210 8.630 8.940 8.750 8.920 4.560 3.772 0.3530 241.60 0.05 20 0                             10.926 8.492 2.433 11.472 8.057 3.415
UPLMET_235 2015-09-30 03:45:00 235 12631.0 8.20 8.580 8.900 8.890 8.740 77.250 70.590 4.464 3.846 9.140 9.200 9.190 9.010 0.284 0.196 0.270 0.263     305.200 0.00 1 1 8.270 8.630 8.930 8.780 8.930 4.569 3.902 0.5080 8.140 8.510 8.850 8.690 8.870 4.386 3.755 0.3150 241.70 0.00 20 0                             10.874 8.402 2.474 11.395 8.044 3.351
UPLMET_235 2015-09-30 03:40:00 235 12631.0 8.23 8.440 8.810 8.870 8.490 77.220 70.560 4.484 3.821 9.150 9.200 9.190 9.010 0.284 0.196 0.270 0.263     305.300 0.00 1 1 8.330 8.530 8.890 8.680 8.920 4.549 3.902 0.5430 8.150 8.400 8.760 8.360 8.840 4.424 3.779 0.3820 241.70 0.01 20 0                             10.896 8.413 2.482 11.379 8.030 3.350
UPLMET_235 2015-09-30 03:35:00 235 12631.0 8.39 8.630 8.990 8.960 8.650 75.840 69.740 4.380 3.736 9.150 9.200 9.190 9.010 0.284 0.196 0.270 0.263     305.300 0.00 1 1 8.430 8.710 9.050 8.850 8.980 4.465 3.821 0.4280 8.330 8.540 8.910 8.530 8.920 4.195 3.612 0.3700 241.70 0.02 20 0                             11.015 8.352 2.661 11.449 7.982 3.464
UPLMET_235 2015-09-30 03:30:00 235 12631.0 8.34 8.660 8.980 8.920 8.790 74.650 69.020 4.106 3.549 9.160 9.200 9.190 9.010 0.284 0.196 0.270 0.263     305.300 0.00 1 1 8.410 8.710 9.040 8.860 8.940 4.198 3.615 0.4900 8.260 8.600 8.940 8.710 8.890 4.039 3.464 0.4090 241.70 0.03 20 0                             10.978 8.193 2.783 11.418 7.878 3.537
UPLMET_235 2015-09-30 03:25:00 235 12631.0 8.24 8.560 8.900 8.890 8.670 75.010 68.650 4.082 3.446 9.160 9.200 9.190 9.010 0.284 0.196 0.270 0.263     305.500 0.00 1 1 8.270 8.600 8.940 8.710 8.900 4.121 3.487 0.4900 8.220 8.530 8.870 8.600 8.870 4.042 3.397 0.4260 241.70 0.02 20 0                             10.904 8.179 2.725 11.395 7.821 3.572
UPLMET_235 2015-09-30 03:20:00 235 12631.0 8.36 8.590 8.910 8.940 8.580 74.860 68.510 4.169 3.465 9.170 9.200 9.190 9.010 0.284 0.196 0.270 0.263     305.300 0.00 1 1 8.440 8.640 8.980 8.600 8.980 4.296 3.492 0.4900 8.270 8.550 8.880 8.560 8.880 4.099 3.433 0.4210 241.70 0.03 20 0                             10.993 8.229 2.764 11.433 7.831 3.600
UPLMET_235 2015-09-30 03:15:00 235 12631.0 8.49 8.710 9.050 9.020 8.710 74.610 68.200 4.251 3.481 9.180 9.200 9.190 9.010 0.283 0.196 0.270 0.263     305.400 0.00 1 1 8.520 8.760 9.080 8.850 9.060 4.306 3.546 0.4900 8.460 8.650 8.990 8.570 8.980 4.145 3.414 0.4500 241.70 0.00 20 0                             11.090 8.277 2.816 11.495 7.840 3.656
UPLMET_235 2015-09-30 03:10:00 235 12631.0 8.48 8.740 9.070 9.070 8.850 74.930 68.460 4.299 3.580 9.180 9.200 9.190 9.010 0.283 0.196 0.270 0.263     305.300 0.00 1 1 8.500 8.760 9.080 8.880 9.090 4.349 3.634 0.4990 8.470 8.720 9.070 8.820 9.040 4.261 3.495 0.4700 241.70 0.02 20 0                             11.083 8.305 2.778 11.534 7.895 3.638
UPLMET_235 2015-09-30 03:05:00 235 12631.0 8.43 8.740 9.080 9.110 8.810 74.470 67.880 4.159 3.500 9.190 9.200 9.190 9.010 0.283 0.196 0.270 0.263     305.400 0.00 1 1 8.470 8.760 9.100 8.850 9.140 4.267 3.598 0.5430 8.370 8.730 9.070 8.780 9.070 4.043 3.399 0.4900 241.70 0.02 20 0                             11.045 8.224 2.820 11.565 7.850 3.715
UPLMET_235 2015-09-30 03:00:00 235 12631.0 8.29 8.750 9.100 9.150 8.870 74.650 66.990 4.058 3.348 9.190 9.200 9.190 9.010 0.283 0.196 0.270 0.263     305.400 0.00 1 1 8.360 8.760 9.100 8.910 9.190 4.178 3.417 0.5260 8.170 8.750 9.090 8.850 9.120 4.009 3.284 0.4490 241.70 0.02 20 0                             10.941 8.165 2.773 11.597 7.767 3.828
UPLMET_235 2015-09-30 02:55:00 235 12631.0 8.06 8.670 9.040 9.120 8.870 76.040 66.990 4.103 3.326 9.200 9.200 9.190 9.010 0.283 0.196 0.270 0.263     305.400 0.00 1 1 8.170 8.740 9.090 8.970 9.170 4.328 3.441 0.4990 7.970 8.560 8.960 8.630 9.080 3.958 3.180 0.4060 241.70 0.04 20 0                             10.771 8.191 2.581 11.573 7.754 3.820
UPLMET_235 2015-09-30 02:50:00 235 12631.0 7.96 8.570 9.000 9.110 8.680 77.490 67.570 4.271 3.431 9.210 9.200 9.200 9.010 0.283 0.196 0.270 0.263     305.300 0.00 1 1 8.010 8.610 9.030 8.770 9.120 4.357 3.473 0.5170 7.904 8.540 8.940 8.540 9.090 4.105 3.375 0.4550 241.80 0.00 20 0                             10.696 8.289 2.408 11.565 7.812 3.751
UPLMET_235 2015-09-30 02:45:00 235 12631.0 7.89 8.610 8.990 9.060 8.780 77.940 68.110 4.289 3.503 9.210 9.200 9.190 9.010 0.283 0.196 0.270 0.263     305.400 0.00 1 1 7.920 8.640 9.030 8.810 9.110 4.389 3.571 0.6860 7.861 8.550 8.910 8.730 9.010 4.219 3.396 0.5170 241.80 0.02 20 0                             10.648 8.299 2.349 11.526 7.852 3.676
UPLMET_235 2015-09-30 02:40:00 235 12631.0 7.99 8.500 8.890 9.080 8.640 77.900 68.060 4.377 3.508 9.220 9.200 9.200 9.010 0.283 0.196 0.270 0.263     305.400 0.00 1 1 8.130 8.550 8.960 8.790 9.170 4.477 3.664 0.6860 7.894 8.450 8.860 8.510 9.020 4.284 3.336 0.4960 241.60 0.27 20 0                             10.718 8.351 2.369 11.542 7.855 3.687
UPLMET_235 2015-09-30 02:35:00 235 12631.0 8.32 8.740 9.130 9.240 8.710 76.330 67.260 4.407 3.495 9.220 9.200 9.200 9.010 0.283 0.196 0.270 0.263     305.300 0.00 1 1 8.460 8.860 9.220 8.920 9.270 4.489 3.600 0.5880 8.160 8.580 8.980 8.520 9.190 4.324 3.425 0.4670 239.50 0.00 20 0                             10.963 8.368 2.595 11.667 7.848 3.820
UPLMET_235 2015-09-30 02:30:00 235 12631.0 8.39 8.860 9.200 9.240 8.940 74.480 66.920 4.130 3.422 9.230 9.200 9.200 9.010 0.283 0.196 0.270 0.263     305.400 0.00 1 1 8.490 8.890 9.220 8.960 9.260 4.380 3.490 0.4990 8.260 8.810 9.160 8.920 9.220 4.026 3.253 0.3970 239.50 0.02 20 0                             11.015 8.207 2.811 11.667 7.807 3.860
UPLMET_235 2015-09-30 02:25:00 235 12631.0 8.18 8.760 9.150 9.240 8.850 75.860 66.500 4.182 3.332 9.230 9.200 9.200 9.010 0.283 0.196 0.270 0.263     305.400 0.00 1 1 8.250 8.800 9.190 8.910 9.260 4.372 3.392 0.5260 8.150 8.730 9.130 8.790 9.210 4.000 3.218 0.4420 239.50 0.03 20 0                             10.859 8.237 2.621 11.667 7.758 3.909
UPLMET_235 2015-09-30 02:20:00 235 12631.0 8.16 8.750 9.180 9.250 8.890 75.740 66.230 4.143 3.282 9.240 9.200 9.200 9.010 0.283 0.196 0.270 0.263     305.400 0.00 1 1 8.240 8.780 9.210 8.930 9.270 4.248 3.353 0.5880 8.110 8.720 9.150 8.850 9.220 4.035 3.230 0.5110 239.50 0.02 20 0                             10.844 8.214 2.631 11.675 7.730 3.943
UPLMET_235 2015-09-30 02:15:00 235 12631.0 8.39 8.830 9.210 9.320 8.900 73.930 65.370 4.017 3.163 9.240 9.200 9.200 9.010 0.283 0.196 0.270 0.263     305.400 0.00 1 1 8.550 8.910 9.280 8.920 9.450 4.117 3.228 0.4900 8.230 8.730 9.190 8.890 9.240 3.888 3.056 0.4200 239.50 0.01 20 0                             11.015 8.142 2.872 11.730 7.665 4.062
UPLMET_235 2015-09-30 02:10:00 235 12631.0 8.66 9.100 9.450 9.560 9.150 72.540 63.630 4.012 3.018 9.250 9.200 9.200 9.010 0.283 0.196 0.270 0.263     305.300 0.00 1 1 8.700 9.180 9.550 9.380 9.640 4.094 3.161 0.4900 8.560 8.930 9.290 8.920 9.450 3.909 2.870 0.3710 239.40 0.00 20 0                             11.219 8.139 3.081 11.921 7.587 4.336
UPLMET_235 2015-09-30 02:05:00 235 12631.0 8.72 9.230 9.580 9.630 9.430 71.570 62.790 3.879 2.897 9.250 9.200 9.200 9.010 0.283 0.196 0.270 0.263     305.400 0.00 1 1 8.770 9.280 9.620 9.580 9.670 4.009 2.987 0.6150 8.650 9.160 9.540 9.270 9.560 3.645 2.686 0.4350 240.90 2.34 20 0                             11.264 8.063 3.202 11.978 7.522 4.457
UPLMET_235 2015-09-30 02:00:00 235 12631.0 8.51 9.070 9.460 9.560 9.240 71.610 62.980 3.684 2.871 9.260 9.200 9.200 9.010 0.283 0.196 0.270 0.263     305.400 0.00 1 1 8.630 9.190 9.530 9.460 9.590 3.820 2.976 0.7310 8.450 9.000 9.410 9.070 9.540 3.560 2.711 0.5210 247.70 0.62 20 0                             11.105 7.953 3.153 11.921 7.508 4.413
UPLMET_235 2015-09-30 01:55:00 235 12631.0 8.63 9.090 9.550 9.690 9.140 72.660 63.160 4.010 3.032 9.260 9.200 9.200 9.010 0.283 0.196 0.270 0.263     305.500 0.00 1 1 8.790 9.220 9.720 9.410 9.760 4.072 3.146 0.4900 8.500 9.000 9.400 9.010 9.580 3.905 2.839 0.3750 247.90 0.03 20 0                             11.196 8.138 3.061 12.026 7.595 4.430
UPLMET_235 2015-09-30 01:50:00 235 12631.0 8.86 9.290 9.700 9.700 9.440 71.190 63.570 3.935 3.129 9.270 9.200 9.200 9.010 0.283 0.196 0.270 0.263     305.300 0.00 1 1 8.910 9.330 9.730 9.510 9.740 4.021 3.220 0.4900 8.780 9.230 9.640 9.390 9.670 3.837 3.042 0.3890 247.90 0.01 20 0                             11.372 8.095 3.276 12.034 7.647 4.384
UPLMET_235 2015-09-30 01:45:00 235 12631.0 8.73 9.250 9.590 9.660 9.340 71.730 64.200 3.919 3.232 9.270 9.190 9.200 9.010 0.283 0.196 0.270 0.263     305.400 0.00 1 1 8.840 9.290 9.630 9.410 9.680 3.981 3.273 0.5170 8.630 9.220 9.570 9.270 9.640 3.849 3.165 0.4420 247.90 0.03 20 0                             11.272 8.086 3.187 12.002 7.703 4.297
UPLMET_235 2015-09-30 01:40:00 235 12631.0 8.64 9.210 9.650 9.760 9.280 73.300 64.150 4.140 3.318 9.280 9.190 9.200 9.010 0.283 0.196 0.270 0.263     305.500 0.00 1 1 8.740 9.290 9.780 9.430 9.830 4.341 3.424 0.4720 8.590 9.180 9.590 9.210 9.690 3.950 3.197 0.3270 247.90 0.00 20 0                             11.204 8.213 2.991 12.083 7.750 4.332
UPLMET_235 2015-09-30 01:35:00 235 12631.0 8.77 9.340 9.760 9.820 9.530 72.120 63.650 4.034 3.264 9.280 9.190 9.200 9.010 0.283 0.196 0.270 0.263     305.500 0.00 1 1 8.790 9.380 9.790 9.610 9.840 4.187 3.345 0.3740 8.750 9.280 9.710 9.430 9.790 3.856 3.195 0.3050 247.90 0.02 20 0                             11.303 8.152 3.151 12.131 7.720 4.410
UPLMET_235 2015-09-30 01:30:00 235 12631.0 8.76 9.280 9.690 9.830 9.400 71.710 62.890 3.943 3.105 9.290 9.190 9.200 9.010 0.283 0.196 0.270 0.263     305.500 0.00 1 1 8.810 9.310 9.710 9.450 9.860 4.081 3.240 0.4900 8.720 9.250 9.660 9.340 9.800 3.714 2.937 0.3210 247.90 0.03 20 0                             11.295 8.100 3.195 12.140 7.634 4.505
UPLMET_235 2015-09-30 01:25:00 235 12631.0 9.10 9.420 9.840 9.990 9.460 70.380 62.170 4.002 3.088 9.290 9.190 9.200 9.010 0.283 0.196 0.270 0.263     305.400 0.00 1 1 9.300 9.630 10.020 9.670 10.080 4.150 3.210 0.5970 8.830 9.240 9.680 9.300 9.870 3.812 3.018 0.3020 247.90 0.08 20 0                             11.558 8.133 3.423 12.271 7.625 4.642
UPLMET_235 2015-09-30 01:20:00 235 12631.0 9.44 9.720 10.070 10.100 9.790 67.570 61.350 3.751 3.009 9.300 9.190 9.200 9.010 0.283 0.196 0.270 0.263     305.400 0.00 1 1 9.490 9.780 10.100 9.820 10.130 3.971 3.078 0.3920 9.320 9.640 10.030 9.690 10.080 3.594 2.941 0.2550 247.80 0.02 20 0                             11.826 7.991 3.835 12.361 7.582 4.778
UPLMET_235 2015-09-30 01:15:00 235 12631.0 9.43 9.770 10.100 10.120 9.950 66.310 60.720 3.473 2.883 9.300 9.190 9.200 9.010 0.283 0.196 0.270 0.263     305.400 0.00 1 1 9.490 9.810 10.130 9.990 10.130 3.680 3.001 0.4370 9.370 9.710 10.070 9.830 10.110 3.301 2.747 0.3620 247.80 0.02 20 0                             11.818 7.835 3.981 12.378 7.515 4.862
UPLMET_235 2015-09-30 01:10:00 235 12631.0 9.34 9.700 10.050 10.110 9.920 64.730 59.330 3.046 2.550 9.300 9.190 9.200 9.010 0.283 0.196 0.270 0.263     305.400 0.00 1 1 9.390 9.710 10.070 9.980 10.130 3.298 2.778 0.3650 9.310 9.650 10.020 9.850 10.090 2.731 2.185 0.2280 247.80 0.00 20 0                             11.746 7.602 4.143 12.370 7.339 5.031
UPLMET_235 2015-09-30 01:05:00 235 12631.0 9.25 9.640 10.000 10.020 9.940 62.360 56.080 2.431 1.675 9.310 9.190 9.200 9.010 0.283 0.196 0.270 0.263     305.400 0.00 1 1 9.310 9.650 10.020 9.970 10.100 2.677 2.134 0.4900 9.160 9.600 9.960 9.900 9.940 2.202 1.401 0.3240 247.80 0.01 20 0                             11.675 7.277 4.395 12.295 6.894 5.400
UPLMET_235 2015-09-30 01:00:00 235 12631.0 9.11 9.520 9.880 9.870 9.670 62.220 56.040 2.269 1.522 9.310 9.190 9.200 9.010 0.283 0.196 0.270 0.263     305.300 0.00 1 1 9.150 9.600 9.950 9.880 9.950 2.332 1.585 0.4900 9.060 9.460 9.810 9.550 9.820 2.188 1.467 0.4330 247.80 0.00 20 0                             11.565 7.193 4.369 12.172 6.818 5.351
UPLMET_235 2015-09-30 00:55:00 235 12631.0 9.02 9.410 9.760 9.780 9.550 61.430 55.500 2.003 1.303 9.320 9.190 9.200 9.010 0.283 0.196 0.270 0.263     305.300 0.00 1 1 9.060 9.450 9.800 9.600 9.820 2.223 1.534 0.5260 8.950 9.360 9.710 9.480 9.750 1.698 1.001 0.4640 247.80 0.01 20 0                             11.495 7.058 4.434 12.099 6.712 5.384
UPLMET_235 2015-09-30 00:50:00 235 12631.0 8.87 9.300 9.690 9.740 9.390 59.510 52.190 1.418 0.408 9.320 9.190 9.200 9.010 0.283 0.196 0.270 0.263     305.500 0.00 1 1 8.940 9.350 9.710 9.460 9.760 1.731 0.908 0.5430 8.820 9.260 9.680 9.270 9.710 1.188 0.171 0.4890 247.80 0.04 20 0                             11.379 6.768 4.608 12.066 6.292 5.769
UPLMET_235 2015-09-30 00:45:00 235 12631.0 9.00 9.370 9.740 9.770 9.400 57.460 50.080 1.050 -0.132 9.320 9.180 9.200 9.010 0.283 0.196 0.270 0.263     305.500 0.00 1 1 9.110 9.420 9.790 9.490 9.780 1.399 0.211 0.5080 8.860 9.300 9.700 9.320 9.750 0.741 -0.394 0.4700 247.80 0.02 20 0                             11.480 6.591 4.884 12.091 6.049 6.036
UPLMET_235 2015-09-30 00:40:00 235 12631.0 9.13 9.410 9.770 9.760 9.470 55.840 49.520 0.779 -0.294 9.330 9.180 9.200 9.010 0.283 0.196 0.270 0.263     305.300 0.00 1 1 9.160 9.430 9.790 9.520 9.790 0.873 -0.085 0.6860 9.100 9.390 9.760 9.430 9.740 0.643 -0.406 0.5320 247.90 0.04 20 0                             11.581 6.463 5.114 12.083 5.978 6.099
UPLMET_235 2015-09-30 00:35:00 235 12631.0 9.14 9.440 9.770 9.750 9.510 55.910 49.990 0.809 -0.170 9.330 9.180 9.200 9.010 0.283 0.196 0.270 0.263     305.400 0.00 1 1 9.160 9.450 9.780 9.540 9.760 0.853 -0.061 0.5430 9.120 9.430 9.760 9.490 9.740 0.760 -0.269 0.4930 248.00 0.02 20 0                             11.589 6.477 5.110 12.075 6.033 6.038
UPLMET_235 2015-09-30 00:30:00 235 12631.0 9.08 9.460 9.780 9.750 9.560 56.440 50.000 0.881 -0.168 9.330 9.180 9.200 9.010 0.283 0.196 0.270 0.263     305.400 0.00 1 1 9.140 9.470 9.790 9.580 9.770 0.974 -0.036 0.5260 9.010 9.450 9.770 9.520 9.730 0.733 -0.251 0.4620 248.10 0.04 20 0                             11.542 6.511 5.028 12.075 6.034 6.037
UPLMET_235 2015-09-30 00:25:00 235 12631.0 8.95 9.420 9.740 9.720 9.490 57.490 50.610 1.018 -0.032 9.340 9.180 9.200 9.010 0.283 0.196 0.270 0.263     305.400 0.00 1 1 9.000 9.440 9.770 9.560 9.740 1.266 0.044 0.4900 8.910 9.390 9.700 9.440 9.700 0.873 -0.113 0.4210 248.20 0.03 20 0                             11.441 6.575 4.864 12.050 6.094 5.952
UPLMET_235 2015-09-30 00:20:00 235 12631.0 8.88 9.330 9.650 9.680 9.480 59.220 52.340 1.364 0.395 9.340 9.180 9.200 9.010 0.283 0.196 0.270 0.263     305.400 0.00 1 1 8.920 9.390 9.700 9.500 9.700 1.447 0.625 0.4900 8.810 9.250 9.610 9.420 9.660 1.295 0.098 0.3920 248.20 0.00 20 0                             11.387 6.741 4.644 12.018 6.286 5.728
UPLMET_235 2015-09-30 00:15:00 235 12631.0 8.66 9.180 9.560 9.690 9.290 61.460 53.440 1.670 0.697 9.340 9.180 9.200 9.010 0.283 0.196 0.270 0.263     305.400 0.00 1 1 8.800 9.240 9.600 9.410 9.730 2.096 0.843 0.4900 8.570 9.140 9.530 9.150 9.650 1.429 0.472 0.4200 248.20 0.01 20 0                             11.219 6.891 4.324 12.026 6.425 5.599
UPLMET_235 2015-09-30 00:10:00 235 12631.0 8.70 9.280 9.670 9.780 9.300 65.230 54.640 2.543 1.087 9.340 9.180 9.200 9.010 0.283 0.196 0.270 0.263     305.300 0.00 1 1 8.760 9.360 9.750 9.470 9.820 2.774 1.257 0.5880 8.600 9.170 9.540 9.160 9.730 2.155 0.832 0.4760 248.20 0.03 20 0                             11.249 7.335 3.911 12.099 6.608 5.488
UPLMET_235 2015-09-30 00:05:00 235 12631.0 8.66 9.300 9.720 9.770 9.440 64.390 54.870 2.322 1.137 9.350 9.170 9.200 9.010 0.283 0.196 0.270 0.263     305.500 0.00 1 1 8.700 9.350 9.750 9.470 9.800 2.502 1.244 0.5430 8.630 9.240 9.670 9.390 9.750 2.200 1.003 0.4760 248.20 0.02 20 0                             11.219 7.220 3.995 12.091 6.632 5.457
UPLMET_235 2015-09-30 00:00:00 235 12631.0 8.54 9.170 9.620 9.740 9.410 65.090 55.110 2.356 1.166 9.350 9.170 9.200 9.010 0.283 0.196 0.270 0.263     305.400 0.00 1 1 8.640 9.250 9.660 9.430 9.760 2.750 1.449 0.7840 8.470 9.070 9.540 9.360 9.720 1.955 0.987 0.5540 248.60 0.39 20 0                             11.128 7.238 3.885 12.066 6.646 5.417
UPLMET_235 2015-09-29 23:55:00 235 12631.0 8.77 9.090 9.570 9.780 9.290 65.750 55.340 2.717 1.261 9.350 9.170 9.210 9.010 0.283 0.196 0.270 0.263     305.400 0.00 1 1 9.030 9.340 9.760 9.380 9.880 2.936 1.542 0.6860 8.570 8.990 9.510 9.120 9.720 2.512 1.015 0.5460 248.80 0.56 20 0                             11.303 7.426 3.871 12.099 6.692 5.403
UPLMET_235 2015-09-29 23:50:00 235 12631.0 9.06 9.460 9.820 9.860 9.540 60.700 53.500 1.877 0.872 9.350 9.170 9.210 9.010 0.283 0.196 0.270 0.263     305.400 0.00 1 1 9.110 9.490 9.840 9.590 9.890 2.529 1.006 0.4990 9.030 9.370 9.780 9.410 9.850 1.523 0.638 0.3820 248.00 0.03 20 0                             11.526 6.994 4.530 12.164 6.506 5.656
UPLMET_235 2015-09-29 23:45:00 235 12631.0 9.09 9.400 9.770 9.890 9.410 60.500 52.530 1.855 0.639 9.350 9.170 9.210 9.010 0.283 0.196 0.270 0.263     305.500 0.00 1 1 9.290 9.470 9.860 9.530 9.960 2.241 0.839 0.4990 8.990 9.360 9.740 9.310 9.840 1.412 0.438 0.4750 248.00 0.02 20 0                             11.550 6.983 4.562 12.189 6.398 5.786
UPLMET_235 2015-09-29 23:40:00 235 12631.0 9.35 9.600 9.960 10.000 9.650 59.010 52.370 1.752 0.701 9.360 9.170 9.210 9.010 0.283 0.196 0.270 0.263     305.500 0.00 1 1 9.380 9.630 9.990 9.740 10.030 2.285 0.817 0.4900 9.300 9.490 9.880 9.420 9.960 1.535 0.564 0.4330 248.00 0.02 20 0                             11.754 6.932 4.818 12.279 6.427 5.848
UPLMET_235 2015-09-29 23:35:00 235 12631.0 9.34 9.640 9.990 10.020 9.700 57.860 51.260 1.470 0.428 9.360 9.160 9.210 9.020 0.283 0.196 0.270 0.263     305.500 0.00 1 1 9.370 9.660 10.020 9.720 10.040 1.535 0.507 0.5880 9.310 9.620 9.980 9.670 10.010 1.425 0.325 0.4910 248.00 0.02 20 0                             11.746 6.793 4.950 12.295 6.301 5.993
UPLMET_235 2015-09-29 23:30:00 235 12631.0 9.42 9.700 10.040 10.040 9.750 57.640 51.260 1.493 0.445 9.360 9.160 9.210 9.020 0.283 0.196 0.270 0.263     305.500 0.00 1 1 9.450 9.740 10.060 9.770 10.070 1.637 0.795 0.5880 9.370 9.660 10.020 9.710 10.020 1.345 0.249 0.4920 248.00 0.02 20 0                             11.810 6.804 5.003 12.312 6.308 6.001
UPLMET_235 2015-09-29 23:25:00 235 12631.0 9.43 9.750 10.090 10.080 9.790 58.540 52.740 1.718 0.874 9.360 9.160 9.210 9.020 0.283 0.196 0.270 0.263     305.400 0.00 1 1 9.450 9.770 10.110 9.910 10.100 1.827 0.971 0.4990 9.410 9.730 10.060 9.720 10.060 1.560 0.802 0.4120 248.00 0.02 20 0                             11.818 6.915 4.900 12.345 6.507 5.834
UPLMET_235 2015-09-29 23:20:00 235 12631.0 9.41 9.750 10.090 10.080 9.940 57.430 51.480 1.430 0.534 9.360 9.160 9.210 9.010 0.283 0.196 0.270 0.263     305.400 0.00 1 1 9.450 9.770 10.120 9.960 10.090 1.687 0.832 0.5880 9.340 9.720 10.060 9.910 10.060 1.187 0.167 0.4470 248.00 0.00 20 0                             11.802 6.773 5.024 12.345 6.349 5.990
UPLMET_235 2015-09-29 23:15:00 235 12631.0 9.27 9.690 10.050 10.070 9.770 56.020 49.630 0.957 0.026 9.360 9.160 9.210 9.010 0.283 0.196 0.270 0.263     305.500 0.00 1 1 9.350 9.720 10.070 9.890 10.100 1.213 0.113 0.5880 9.200 9.670 10.030 9.720 10.050 0.851 -0.088 0.5070 248.30 0.18 20 0                             11.691 6.546 5.142 12.336 6.119 6.214
UPLMET_235 2015-09-29 23:10:00 235 12631.0 9.13 9.710 10.060 10.080 9.860 55.850 48.410 0.785 -0.309 9.360 9.150 9.210 9.010 0.283 0.196 0.270 0.263     305.500 0.00 1 1 9.220 9.750 10.090 9.940 10.100 0.982 -0.106 0.5880 9.070 9.610 9.980 9.680 10.060 0.687 -0.420 0.4650 248.50 0.02 20 0                             11.581 6.466 5.113 12.345 5.972 6.369
UPLMET_235 2015-09-29 23:05:00 235 12631.0 9.22 9.640 10.010 10.190 9.610 57.940 48.220 1.377 -0.263 9.360 9.150 9.210 9.020 0.283 0.196 0.270 0.263     305.500 0.00 1 1 9.470 9.760 10.130 9.670 10.320 1.886 -0.123 0.5880 9.080 9.610 9.970 9.520 10.080 0.937 -0.408 0.4780 248.50 0.02 20 0                             11.652 6.748 4.901 12.436 5.992 6.439
UPLMET_235 2015-09-29 23:00:00 235 12631.0 9.66 9.910 10.270 10.430 9.970 55.320 47.660 1.140 -0.200 9.360 9.150 9.210 9.010 0.283 0.196 0.270 0.263     305.400 0.00 1 1 9.720 9.970 10.330 10.130 10.510 1.795 -0.130 0.4900 9.520 9.780 10.150 9.720 10.330 0.750 -0.333 0.4110 248.50 0.02 20 0                             12.002 6.633 5.362 12.637 6.019 6.614
UPLMET_235 2015-09-29 22:55:00 235 12631.0 9.65 10.030 10.380 10.500 10.200 53.320 45.980 0.628 -0.635 9.360 9.150 9.210 9.010 0.283 0.196 0.270 0.263     305.500 0.00 1 1 9.710 10.080 10.410 10.260 10.510 0.747 -0.252 0.4900 9.600 9.970 10.340 10.130 10.470 0.432 -0.996 0.3880 248.50 0.00 20 0                             11.994 6.393 5.599 12.696 5.831 6.858
UPLMET_235 2015-09-29 22:50:00 235 12631.0 9.62 10.110 10.460 10.520 10.150 52.350 44.320 0.344 -1.118 9.360 9.150 9.210 9.020 0.283 0.196 0.270 0.263     305.400 0.00 1 1 9.660 10.130 10.480 10.220 10.550 0.776 -0.788 0.5880 9.560 10.080 10.410 10.110 10.490 0.056 -1.286 0.4530 248.60 0.02 20 0                             11.970 6.262 5.703 12.713 5.628 7.079
UPLMET_235 2015-09-29 22:45:00 235 12631.0 9.38 10.040 10.410 10.460 10.210 52.230 44.310 0.087 -1.168 9.360 9.140 9.210 9.020 0.283 0.196 0.270 0.263     305.600 0.00 1 1 9.560 10.120 10.470 10.240 10.520 0.259 -1.052 0.5880 9.180 9.890 10.320 10.140 10.400 -0.058 -1.284 0.4410 248.70 0.05 20 0                             11.778 6.147 5.626 12.662 5.608 7.052
UPLMET_235 2015-09-29 22:40:00 235 12631.0 9.00 9.740 10.230 10.350 10.050 55.640 45.390 0.603 -0.947 9.360 9.140 9.210 9.020 0.283 0.196 0.270 0.263     305.400 0.00 1 1 9.150 9.880 10.310 10.140 10.400 1.123 -0.742 0.6150 8.940 9.630 10.140 9.950 10.300 0.119 -1.275 0.4670 248.80 0.11 20 0                             11.480 6.381 5.092 12.570 5.699 6.864
UPLMET_235 2015-09-29 22:35:00 235 12631.0 9.11 9.710 10.180 10.340 9.940 55.060 44.130 0.563 -1.337 9.360 9.140 9.210 9.010 0.283 0.196 0.270 0.263     305.500 0.00 1 1 9.230 9.780 10.210 10.000 10.370 1.025 -0.962 0.8820 9.000 9.640 10.120 9.850 10.310 0.278 -1.579 0.5340 247.50 0.93 20 0                             11.565 6.363 5.197 12.561 5.538 7.018
UPLMET_235 2015-09-29 22:30:00 235 12631.0 9.39 9.810 10.250 10.420 9.860 54.570 44.180 0.708 -1.247 9.360 9.140 9.210 9.020 0.283 0.196 0.270 0.263     305.400 0.00 1 1 9.680 9.980 10.400 9.970 10.500 1.113 -1.050 0.5880 9.250 9.730 10.180 9.800 10.370 0.172 -1.506 0.4620 246.90 0.02 20 0                             11.786 6.430 5.354 12.629 5.575 7.049
UPLMET_235 2015-09-29 22:25:00 235 12631.0 9.78 10.070 10.450 10.500 10.180 50.370 43.060 -0.049 -1.524 9.360 9.140 9.210 9.020 0.283 0.196 0.270 0.263     305.300 0.00 1 1 9.820 10.090 10.470 10.240 10.520 0.762 -1.320 0.5700 9.680 10.000 10.420 10.010 10.490 -0.348 -1.649 0.4860 246.80 0.02 20 0                             12.099 6.086 6.005 12.696 5.463 7.229
UPLMET_235 2015-09-29 22:20:00 235 12631.0 9.81 10.040 10.440 10.550 10.250 49.390 43.510 -0.284 -1.339 9.360 9.130 9.210 9.020 0.283 0.196 0.270 0.263     305.300 0.00 1 1 9.830 10.060 10.460 10.280 10.570 -0.191 -1.133 0.5080 9.790 10.030 10.430 10.210 10.520 -0.366 -1.945 0.4280 246.80 0.03 20 0                             12.123 5.983 6.136 12.739 5.538 7.196
UPLMET_235 2015-09-29 22:15:00 235 12631.0 9.82 10.130 10.510 10.560 10.270 48.400 41.270 -0.551 -2.048 9.360 9.130 9.210 9.020 0.283 0.196 0.270 0.263     305.300 0.00 1 1 9.840 10.190 10.560 10.290 10.600 -0.149 -1.888 0.5880 9.800 10.060 10.460 10.240 10.520 -0.775 -2.220 0.4690 246.80 0.03 20 0                             12.131 5.867 6.260 12.747 5.255 7.486
UPLMET_235 2015-09-29 22:10:00 235 12631.0 9.83 10.260 10.630 10.650 10.300 48.410 41.510 -0.542 -1.885 9.360 9.130 9.210 9.020 0.283 0.196 0.270 0.263     305.300 0.00 1 1 9.870 10.310 10.690 10.460 10.690 -0.341 -1.616 0.5880 9.740 10.200 10.570 10.200 10.600 -0.755 -2.154 0.5160 246.80 0.03 20 0                             12.140 5.871 6.263 12.824 5.319 7.501
UPLMET_235 2015-09-29 22:05:00 235 12631.0 9.52 10.170 10.620 10.640 10.470 49.760 41.650 -0.450 -1.848 9.360 9.130 9.210 9.020 0.283 0.196 0.270 0.263     305.300 0.00 1 1 9.720 10.280 10.670 10.560 10.700 -0.300 -1.733 0.5880 9.300 10.050 10.560 10.300 10.600 -0.585 -2.057 0.4920 246.90 0.03 20 0                             11.889 5.911 5.973 12.815 5.334 7.478
UPLMET_235 2015-09-29 22:00:00 235 12631.0 9.33 10.020 10.560 10.620 10.220 53.800 43.600 0.449 -1.248 9.350 9.120 9.210 9.020 0.283 0.196 0.270 0.263     305.300 0.00 1 1 9.470 10.040 10.590 10.280 10.670 0.887 -0.758 0.7840 9.280 10.000 10.540 10.180 10.600 -0.297 -1.732 0.5710 248.90 0.61 20 0                             11.738 6.310 5.423 12.798 5.575 7.218
UPLMET_235 2015-09-29 21:55:00 235 12631.0 9.73 10.100 10.590 10.680 10.250 54.520 44.430 1.006 -0.935 9.350 9.120 9.210 9.020 0.283 0.196 0.270 0.263     305.300 0.00 1 1 10.070 10.330 10.700 10.400 10.750 1.334 -0.725 0.6410 9.480 9.990 10.540 10.130 10.640 0.662 -1.276 0.4770 247.70 0.40 20 0                             12.058 6.570 5.484 12.850 5.704 7.140
UPLMET_235 2015-09-29 21:50:00 235 12631.0 10.10 10.450 10.790 10.780 10.530 49.620 43.120 0.045 -1.254 9.350 9.120 9.210 9.020 0.283 0.196 0.270 0.263     305.200 0.00 1 1 10.120 10.480 10.800 10.620 10.800 0.700 -0.984 0.4900 10.060 10.360 10.730 10.320 10.740 -0.153 -1.433 0.4000 247.30 0.02 20 0                             12.361 6.128 6.228 12.935 5.572 7.358
UPLMET_235 2015-09-29 21:45:00 235 12631.0 9.98 10.420 10.790 10.800 10.580 49.690 42.930 -0.045 -1.293 9.350 9.120 9.210 9.020 0.283 0.196 0.270 0.263     305.300 0.00 1 1 10.060 10.450 10.800 10.640 10.810 0.059 -1.148 0.5350 9.860 10.370 10.770 10.540 10.780 -0.223 -1.501 0.4740 247.30 0.02 20 0                             12.262 6.088 6.169 12.953 5.556 7.392
UPLMET_235 2015-09-29 21:40:00 235 12631.0 9.69 10.290 10.720 10.800 10.490 50.710 42.760 -0.029 -1.353 9.340 9.110 9.210 9.020 0.283 0.196 0.270 0.263     305.200 0.00 1 1 9.850 10.370 10.760 10.650 10.810 0.479 -1.178 0.5880 9.570 10.180 10.650 10.310 10.780 -0.235 -1.536 0.5020 247.30 0.02 20 0                             12.026 6.095 5.928 12.953 5.532 7.414
UPLMET_235 2015-09-29 21:35:00 235 12631.0 9.72 10.250 10.690 10.830 10.290 53.960 43.360 0.854 -1.136 9.340 9.110 9.210 9.020 0.283 0.196 0.270 0.263     305.300 0.00 1 1 9.860 10.350 10.770 10.360 10.880 1.215 -1.030 0.5170 9.580 10.150 10.630 10.240 10.780 0.463 -1.267 0.4730 247.30 0.02 20 0                             12.050 6.498 5.548 12.979 5.621 7.351
UPLMET_235 2015-09-29 21:30:00 235 12631.0 10.02 10.470 10.870 10.950 10.440 51.690 42.920 0.539 -1.161 9.340 9.110 9.210 9.020 0.283 0.196 0.270 0.263     305.300 0.00 1 1 10.170 10.590 10.960 10.660 11.010 0.850 -1.067 0.5170 9.870 10.350 10.780 10.270 10.880 0.161 -1.334 0.4480 247.30 0.02 20 0                             12.295 6.352 5.940 13.083 5.611 7.468
UPLMET_235 2015-09-29 21:25:00 235 12631.0 10.11 10.590 10.940 10.980 10.760 48.440 41.370 -0.270 -1.636 9.330 9.100 9.210 9.020 0.283 0.196 0.270 0.263     305.300 0.00 1 1 10.190 10.630 10.970 10.850 11.000 0.196 -1.304 0.5880 10.010 10.570 10.910 10.670 10.950 -0.502 -1.938 0.4670 247.30 0.02 20 0                             12.370 5.989 6.378 13.109 5.418 7.686
UPLMET_235 2015-09-29 21:20:00 235 12631.0 9.93 10.540 10.880 10.970 10.600 49.700 42.050 -0.083 -1.424 9.330 9.100 9.220 9.020 0.283 0.196 0.270 0.263     305.300 0.00 1 1 10.010 10.560 10.910 10.670 11.000 0.205 -1.136 0.6330 9.870 10.520 10.860 10.540 10.950 -0.425 -1.929 0.5320 247.70 0.22 20 0                             12.221 6.071 6.147 13.100 5.503 7.591
UPLMET_235 2015-09-29 21:15:00 235 12631.0 9.80 10.500 10.870 10.980 10.600 52.800 43.130 0.626 -1.071 9.330 9.100 9.220 9.020 0.283 0.196 0.270 0.263     305.200 0.00 1 1 9.850 10.510 10.890 10.690 11.000 1.102 -0.906 0.5880 9.730 10.480 10.850 10.540 10.950 0.284 -1.305 0.4610 247.90 0.05 20 0                             12.115 6.392 5.718 13.109 5.648 7.455
UPLMET_235 2015-09-29 21:10:00 235 12631.0 9.72 10.450 10.820 10.980 10.530 55.170 43.290 1.163 -1.013 9.320 9.100 9.220 9.020 0.283 0.196 0.270 0.263     305.200 0.00 1 1 9.820 10.500 10.850 10.650 11.040 1.762 -0.713 0.6240 9.670 10.420 10.810 10.450 10.960 0.496 -1.237 0.5200 247.90 0.02 20 0                             12.050 6.644 5.402 13.109 5.672 7.434
UPLMET_235 2015-09-29 21:05:00 235 12631.0 9.90 10.580 10.950 11.110 10.560 57.710 45.080 1.957 -0.347 9.320 9.090 9.220 9.020 0.283 0.196 0.270 0.263     305.300 0.00 1 1 9.980 10.700 11.100 10.770 11.160 2.280 -0.165 0.6240 9.820 10.480 10.830 10.460 11.040 1.423 -0.585 0.5380 247.90 0.03 20 0                             12.197 7.034 5.158 13.222 5.955 7.262
UPLMET_235 2015-09-29 21:00:00 235 12631.0 9.90 10.680 11.080 11.170 10.820 56.780 45.190 1.730 -0.258 9.310 9.090 9.220 9.020 0.283 0.196 0.270 0.263     305.300 0.00 1 1 9.980 10.710 11.100 10.860 11.190 2.546 0.250 0.6330 9.810 10.610 11.040 10.760 11.160 1.239 -0.627 0.5710 247.90 0.02 20 0                             12.197 6.921 5.271 13.275 5.994 7.276
UPLMET_235 2015-09-29 20:55:00 235 12631.0 9.77 10.520 10.990 11.190 10.680 61.190 48.810 2.660 0.822 9.310 9.090 9.220 9.020 0.283 0.196 0.270 0.263     305.300 0.00 1 1 9.830 10.590 11.030 10.840 11.260 3.040 1.392 0.6500 9.730 10.430 10.930 10.570 11.160 1.841 0.301 0.5260 248.10 0.08 20 0                             12.091 7.396 4.692 13.293 6.483 6.805
UPLMET_235 2015-09-29 20:50:00 235 12631.0 9.81 10.590 11.120 11.330 10.750 63.100 50.280 3.129 1.363 9.300 9.090 9.220 9.020 0.283 0.196 0.270 0.263     305.300 0.00 1 1 9.890 10.630 11.160 10.830 11.420 3.558 1.859 0.7840 9.770 10.530 11.010 10.570 11.260 2.699 1.067 0.5510 248.50 0.30 20 0                             12.123 7.647 4.473 13.417 6.741 6.671
UPLMET_235 2015-09-29 20:45:00 235 12631.0 9.96 10.760 11.300 11.550 10.940 63.930 51.690 3.459 1.953 9.300 9.080 9.220 9.020 0.283 0.196 0.270 0.263     305.400 0.00 1 1 10.030 10.870 11.460 11.140 11.630 3.567 2.016 0.8640 9.890 10.640 11.160 10.780 11.420 3.320 1.868 0.7320 248.70 0.44 20 0                             12.246 7.828 4.417 13.614 7.032 6.577
UPLMET_235 2015-09-29 20:40:00 235 12631.0 10.01 10.830 11.450 11.560 11.200 62.290 49.970 3.138 1.489 9.290 9.080 9.220 9.020 0.283 0.196 0.270 0.263     305.200 0.00 1 1 10.050 10.880 11.500 11.250 11.610 3.418 1.827 0.7220 9.970 10.770 11.390 11.140 11.490 2.548 1.300 0.5850 248.60 1.73 20 0                             12.287 7.652 4.633 13.623 6.802 6.815
UPLMET_235 2015-09-29 20:35:00 235 12631.0 10.04 10.800 11.300 11.420 11.090 61.380 49.640 2.959 1.273 9.290 9.080 9.220 9.020 0.283 0.196 0.270 0.263     305.300 0.00 1 1 10.070 10.880 11.390 11.220 11.490 3.249 1.386 0.5880 10.000 10.690 11.180 10.910 11.360 2.632 1.132 0.4620 249.90 0.04 20 0                             12.312 7.555 4.755 13.497 6.697 6.797
UPLMET_235 2015-09-29 20:30:00 235 12631.0 10.08 10.690 11.200 11.440 10.880 60.110 48.660 2.706 1.012 9.280 9.070 9.220 9.020 0.283 0.196 0.270 0.263     305.300 0.00 1 1 10.140 10.890 11.380 11.130 11.530 3.102 1.266 0.5880 10.030 10.590 11.100 10.700 11.370 2.154 0.603 0.4360 249.90 0.03 20 0                             12.345 7.421 4.924 13.515 6.573 6.939
UPLMET_235 2015-09-29 20:25:00 235 12631.0 10.10 10.820 11.360 11.520 11.050 58.920 46.940 2.442 0.589 9.280 9.070 9.220 9.020 0.283 0.196 0.270 0.263     305.200 0.00 1 1 10.190 10.910 11.400 11.170 11.540 2.700 0.775 0.5970 10.050 10.740 11.320 10.970 11.490 1.905 0.405 0.5330 249.80 0.02 20 0                             12.361 7.282 5.078 13.587 6.375 7.209
UPLMET_235 2015-09-29 20:20:00 235 12631.0 10.29 10.970 11.440 11.540 11.080 58.230 46.270 2.454 0.410 9.270 9.070 9.220 9.020 0.283 0.196 0.270 0.263     305.300 0.00 1 1 10.410 11.090 11.530 11.300 11.570 2.695 0.514 0.6860 10.160 10.880 11.380 10.940 11.510 1.942 0.273 0.5910 249.80 0.00 20 0                             12.519 7.289 5.229 13.605 6.292 7.310
UPLMET_235 2015-09-29 20:15:00 235 12631.0 10.30 11.020 11.460 11.550 11.210 55.690 45.450 1.839 0.169 9.260 9.070 9.220 9.020 0.283 0.196 0.270 0.263     305.400 0.00 1 1 10.410 11.080 11.520 11.330 11.590 2.398 0.308 0.6060 10.190 10.850 11.350 11.010 11.500 1.373 -0.004 0.5310 249.80 0.02 20 0                             12.528 6.975 5.551 13.614 6.183 7.426
UPLMET_235 2015-09-29 20:10:00 235 12631.0 10.39 10.980 11.450 11.580 11.090 54.990 44.150 1.736 -0.208 9.260 9.060 9.220 9.020 0.283 0.196 0.270 0.263     305.300 0.00 1 1 10.510 11.120 11.550 11.230 11.620 2.182 0.211 0.6860 10.220 10.840 11.350 10.970 11.520 0.863 -0.783 0.5670 249.70 0.18 20 0                             12.603 6.924 5.673 13.641 6.016 7.618
UPLMET_235 2015-09-29 20:05:00 235 12631.0 10.42 11.160 11.550 11.600 11.270 50.510 40.700 0.583 -1.304 9.250 9.060 9.220 9.020 0.283 0.196 0.270 0.263     305.400 0.00 1 1 10.510 11.180 11.560 11.320 11.620 1.316 -0.747 0.6150 10.340 11.120 11.530 11.180 11.570 0.014 -1.884 0.5300 249.60 0.04 20 0                             12.629 6.372 6.250 13.659 5.552 8.100
UPLMET_235 2015-09-29 20:00:00 235 12631.0 10.39 11.070 11.480 11.540 11.300 49.680 37.950 0.326 -2.302 9.240 9.060 9.220 9.020 0.283 0.196 0.270 0.263     305.400 0.00 1 1 10.420 11.130 11.520 11.350 11.580 0.803 -1.682 0.6410 10.350 11.030 11.440 11.220 11.490 -0.107 -2.891 0.5230 249.60 0.02 20 0                             12.603 6.254 6.342 13.605 5.157 8.442
UPLMET_235 2015-09-29 19:55:00 235 12631.0 10.37 11.000 11.390 11.450 11.190 47.460 36.660 -0.311 -2.849 9.230 9.050 9.220 9.020 0.283 0.196 0.270 0.263     305.300 0.00 1 1 10.390 11.050 11.430 11.330 11.480 0.170 -2.192 0.6860 10.340 10.970 11.360 11.090 11.430 -0.732 -3.255 0.5680 250.00 0.60 20 0                             12.586 5.971 6.613 13.524 4.952 8.566
UPLMET_235 2015-09-29 19:50:00 235 12631.0 10.24 10.940 11.340 11.420 11.100 47.460 36.830 -0.433 -2.814 9.230 9.050 9.220 9.020 0.283 0.196 0.270 0.263     305.200 0.00 1 1 10.340 10.970 11.360 11.160 11.460 -0.039 -2.564 0.6860 10.160 10.890 11.320 11.070 11.400 -0.816 -3.028 0.6130 251.50 0.29 20 0                             12.478 5.918 6.556 13.497 4.965 8.526
UPLMET_235 2015-09-29 19:45:00 235 12631.0 10.14 10.870 11.340 11.510 11.030 49.770 37.830 0.123 -2.372 9.220 9.050 9.220 9.020 0.283 0.196 0.270 0.263     305.300 0.00 1 1 10.180 10.890 11.430 11.130 11.580 0.557 -1.985 0.6500 10.120 10.850 11.310 10.960 11.420 -0.517 -2.668 0.5430 252.30 0.28 20 0                             12.394 6.163 6.226 13.578 5.131 8.441
UPLMET_235 2015-09-29 19:40:00 235 12631.0 10.22 10.970 11.490 11.650 11.170 52.460 39.810 0.930 -1.554 9.210 9.050 9.220 9.020 0.284 0.196 0.270 0.263     305.300 0.00 1 1 10.280 11.030 11.540 11.220 11.730 1.480 -1.027 0.5880 10.170 10.900 11.440 11.130 11.580 0.414 -1.995 0.5180 252.50 0.01 20 0                             12.461 6.534 5.924 13.704 5.451 8.249
UPLMET_235 2015-09-29 19:35:00 235 12631.0 10.30 11.160 11.690 11.830 11.300 54.120 41.990 1.440 -0.666 9.200 9.040 9.220 9.020 0.284 0.196 0.270 0.263     305.300 0.00 1 1 10.360 11.250 11.790 11.530 11.880 1.716 -0.332 0.6330 10.220 11.030 11.550 11.140 11.740 1.091 -1.015 0.5560 252.50 0.04 20 0                             12.528 6.778 5.748 13.868 5.818 8.045
UPLMET_235 2015-09-29 19:30:00 235 12631.0 10.24 11.180 11.750 11.880 11.490 54.980 42.690 1.604 -0.394 9.190 9.040 9.220 9.020 0.284 0.196 0.270 0.263     305.300 0.00 1 1 10.280 11.240 11.800 11.570 11.900 1.973 -0.276 0.7840 10.210 11.130 11.720 11.400 11.860 1.144 -0.487 0.6430 252.30 0.44 20 0                             12.478 6.859 5.617 13.914 5.935 7.974
UPLMET_235 2015-09-29 19:25:00 235 12631.0 10.34 11.170 11.710 11.900 11.420 56.510 43.500 2.082 -0.118 9.190 9.040 9.220 9.020 0.284 0.196 0.270 0.263     305.300 0.00 1 1 10.410 11.210 11.740 11.470 11.940 2.266 -0.029 0.6860 10.280 11.100 11.680 11.390 11.870 1.832 -0.263 0.5860 251.70 0.10 20 0                             12.561 7.098 5.463 13.932 6.056 7.872
UPLMET_235 2015-09-29 19:20:00 235 12631.0 10.39 11.200 11.770 11.970 11.490 56.360 43.190 2.085 -0.152 9.180 9.030 9.220 9.020 0.284 0.196 0.270 0.263     305.300 0.00 1 1 10.430 11.250 11.790 11.580 11.990 2.685 -0.082 0.6860 10.360 11.160 11.740 11.420 11.930 1.495 -0.229 0.5270 251.70 0.02 20 0                             12.603 7.099 5.500 13.997 6.041 7.952
UPLMET_235 2015-09-29 19:15:00 235 12631.0 10.44 11.090 11.710 11.990 11.470 58.660 44.390 2.695 0.241 9.170 9.030 9.220 9.020 0.284 0.196 0.270 0.263     305.400 0.00 1 1 10.600 11.170 11.760 11.600 12.020 2.951 0.350 0.6150 10.350 11.050 11.670 11.390 11.960 2.006 -0.031 0.5630 251.80 0.06 20 0                             12.645 7.415 5.228 14.015 6.216 7.794
UPLMET_235 2015-09-29 19:10:00 235 12631.0 10.80 11.400 11.860 12.060 11.500 57.530 43.870 2.761 0.150 9.160 9.030 9.220 9.020 0.284 0.196 0.270 0.263     305.300 0.00 1 1 10.930 11.550 11.980 11.690 12.100 3.061 0.323 0.6860 10.610 11.190 11.740 11.350 12.010 2.034 0.038 0.5920 251.50 0.02 20 0                             12.953 7.450 5.501 14.080 6.175 7.903
UPLMET_235 2015-09-29 19:05:00 235 12631.0 10.85 11.540 11.960 12.100 11.670 54.550 44.420 2.062 0.353 9.150 9.030 9.220 9.020 0.284 0.196 0.270 0.263     305.300 0.00 1 1 10.930 11.550 11.980 11.710 12.120 2.224 0.481 0.6860 10.750 11.510 11.930 11.620 12.080 1.885 0.173 0.5420 251.60 0.40 20 0                             12.996 7.087 5.907 14.117 6.266 7.846
UPLMET_235 2015-09-29 19:00:00 235 12631.0 10.65 11.430 11.910 12.110 11.590 58.290 45.610 2.800 0.730 9.140 9.020 9.220 9.020 0.284 0.196 0.270 0.263     305.400 0.00 1 1 10.710 11.520 11.960 11.680 12.160 3.477 1.055 0.5880 10.600 11.380 11.880 11.520 12.070 2.063 0.320 0.4970 253.40 0.00 20 0                             12.824 7.470 5.349 14.127 6.440 7.683
UPLMET_235 2015-09-29 18:55:00 235 12631.0 10.73 11.530 12.020 12.210 11.690 60.250 45.830 3.342 0.882 9.130 9.020 9.230 9.020 0.284 0.196 0.270 0.263     305.300 0.00 1 1 10.770 11.560 12.080 11.820 12.240 3.882 1.183 0.5880 10.700 11.480 11.970 11.560 12.170 2.679 0.625 0.5280 254.20 0.59 20 0                             12.892 7.763 5.125 14.220 6.511 7.703
UPLMET_235 2015-09-29 18:50:00 235 12631.0 10.82 11.520 12.060 12.250 11.770 60.390 45.510 3.467 0.823 9.120 9.020 9.230 9.020 0.284 0.196 0.270 0.263     305.300 0.00 1 1 10.960 11.640 12.080 11.820 12.260 3.809 1.062 0.8460 10.700 11.430 12.040 11.740 12.220 2.589 0.625 0.6290 254.80 0.08 20 0                             12.970 7.832 5.137 14.257 6.483 7.769
UPLMET_235 2015-09-29 18:45:00 235 12631.0 10.95 11.680 12.110 12.310 11.790 59.250 46.720 3.314 1.247 9.110 9.020 9.230 9.020 0.284 0.196 0.270 0.263     305.400 0.00 1 1 10.980 11.700 12.140 11.820 12.380 3.827 1.417 0.6150 10.910 11.630 12.070 11.740 12.250 2.831 0.884 0.4860 255.00 0.38 20 0                             13.083 7.748 5.331 14.314 6.685 7.626
UPLMET_235 2015-09-29 18:40:00 235 12631.0 10.96 11.680 12.230 12.490 11.890 62.160 47.200 4.008 1.550 9.100 9.010 9.230 9.020 0.284 0.196 0.270 0.263     305.500 0.00 1 1 11.000 11.730 12.320 12.020 12.600 4.399 1.902 0.6330 10.920 11.640 12.140 11.800 12.380 3.456 1.126 0.4710 255.80 0.02 20 0                             13.091 8.137 4.954 14.484 6.832 7.648
UPLMET_235 2015-09-29 18:35:00 235 12631.0 11.08 11.820 12.440 12.760 12.060 62.310 46.010 4.155 1.445 9.090 9.010 9.230 9.020 0.284 0.196 0.270 0.263     305.500 0.00 1 1 11.130 11.980 12.610 12.230 12.900 4.615 1.841 0.6330 11.000 11.670 12.330 11.950 12.610 3.342 1.006 0.4940 256.10 0.06 20 0                             13.196 8.221 4.974 14.743 6.781 7.960
UPLMET_235 2015-09-29 18:30:00 235 12631.0 11.28 11.970 12.690 12.970 12.340 63.210 43.980 4.547 1.001 9.080 9.010 9.230 9.020 0.284 0.196 0.270 0.263     305.500 0.00 1 1 11.490 12.080 12.740 12.440 13.060 4.978 1.628 0.8370 11.100 11.910 12.610 12.200 12.890 3.883 0.539 0.6630 256.30 0.58 20 0                             13.372 8.451 4.920 14.947 6.567 8.373
UPLMET_235 2015-09-29 18:25:00 235 12631.0 11.72 12.250 12.820 13.200 12.440 60.730 43.540 4.389 1.072 9.060 9.010 9.230 9.020 0.284 0.196 0.270 0.263     305.600 0.00 1 1 11.940 12.380 12.900 12.580 13.340 4.992 1.706 0.5970 11.510 12.040 12.720 12.360 13.060 3.280 0.557 0.4650 254.00 0.07 20 0                             13.768 8.358 5.407 15.173 6.601 8.567
UPLMET_235 2015-09-29 18:20:00 235 12631.0 12.13 12.650 13.150 13.560 12.670 59.840 44.800 4.562 1.801 9.050 9.010 9.230 9.020 0.284 0.196 0.270 0.263     305.600 0.00 1 1 12.340 12.830 13.350 12.770 13.840 5.425 2.942 0.4900 11.970 12.410 12.930 12.400 13.360 3.368 1.027 0.3600 247.20 4.90 20 0                             14.145 8.460 5.681 15.534 6.956 8.575
UPLMET_235 2015-09-29 18:15:00 235 12631.0 12.56 13.100 13.620 13.950 13.230 56.950 41.900 4.245 1.200 9.040 9.000 9.230 9.020 0.284 0.196 0.270 0.263     305.600 0.00 1 1 12.720 13.220 13.720 13.470 14.010 5.269 2.454 0.4900 12.350 12.860 13.390 12.830 13.870 2.465 0.097 0.1740 242.10 0.31 20 0                             14.551 8.274 6.264 15.933 6.662 9.257
UPLMET_235 2015-09-29 18:10:00 235 12631.0 12.94 13.380 13.890 14.140 13.540 53.440 40.520 3.708 0.932 9.030 9.000 9.230 9.020 0.284 0.196 0.270 0.263     305.600 0.00 1 1 13.160 13.560 14.030 13.720 14.250 4.247 1.536 0.3560 12.730 13.210 13.720 13.280 14.020 2.595 0.477 0.1140 242.30 0.51 20 0                             14.918 7.967 6.946 16.130 6.535 9.594
UPLMET_235 2015-09-29 18:05:00 235 12631.0 13.42 13.780 14.230 14.480 13.690 51.740 41.820 3.698 1.673 9.020 9.000 9.230 9.020 0.284 0.196 0.270 0.263     305.500 0.00 1 1 13.700 14.040 14.500 13.890 14.700 4.891 2.430 0.7840 13.190 13.590 14.040 13.550 14.280 2.832 1.029 0.3200 265.90 23.76 20 0                             15.393 7.961 7.429 16.489 6.893 9.594
UPLMET_235 2015-09-29 18:00:00 235 12631.0 13.75 14.220 14.670 14.770 14.430 51.330 40.810 3.858 1.562 9.010 9.000 9.230 9.020 0.284 0.196 0.270 0.263     305.600 0.00 1 1 13.860 14.430 14.900 15.170 14.890 5.652 3.563 1.1850 13.640 14.020 14.450 13.900 14.690 1.212 -0.128 0.5170 280.40 21.98 20 0                             15.727 8.051 7.654 16.801 6.838 9.945
UPLMET_235 2015-09-29 17:55:00 235 12631.0 13.87 14.190 14.650 14.930 14.130 53.020 43.270 4.463 2.553 8.990 8.990 9.230 9.020 0.284 0.196 0.270 0.263     305.500 0.00 1 1 14.160 14.490 14.940 14.270 15.160 5.562 3.235 1.1760 13.670 14.040 14.460 14.030 14.760 3.637 1.688 0.4330 288.90 20.71 20 0                             15.850 8.401 7.446 16.975 7.340 9.630
UPLMET_235 2015-09-29 17:50:00 235 12631.0 14.24 14.770 15.250 15.340 14.840 50.020 41.200 3.949 2.223 8.980 8.990 9.230 9.020 0.284 0.196 0.270 0.263     305.600 0.00 1 1 14.300 14.980 15.430 15.430 15.420 5.294 3.641 2.7710 14.150 14.520 14.970 14.180 15.210 2.150 1.153 0.9420 307.20 83.60 20 0                             16.235 8.103 8.114 17.429 7.170 10.248
UPLMET_235 2015-09-29 17:45:00 235 12631.0 14.34 15.000 15.390 15.380 14.850 52.720 42.470 4.798 2.689 8.970 8.990 9.230 9.020 0.284 0.196 0.270 0.263     305.600 0.00 1 1 14.420 15.170 15.520 15.430 15.420 6.084 4.011 2.1200 14.230 14.770 15.210 14.260 15.330 2.478 1.596 0.6690 289.60 19.14 20 0                             16.341 8.600 7.726 17.474 7.412 10.053
UPLMET_235 2015-09-29 17:40:00 235 12631.0 13.86 14.780 15.280 15.120 15.460 52.870 43.020 4.382 2.637 8.960 8.990 9.230 9.020 0.284 0.196 0.270 0.263     305.500 0.00 1 1 14.240 15.180 15.600 15.820 15.400 6.177 4.375 2.3520 13.500 14.270 14.810 14.780 14.860 2.945 2.037 0.9730 6.87 63.46 20 0                             15.840 8.353 7.465 17.184 7.384 9.791
UPLMET_235 2015-09-29 17:35:00 235 12631.0 13.25 13.970 14.490 14.490 14.740 58.150 47.380 5.185 3.417 8.940 8.990 9.230 9.020 0.284 0.196 0.270 0.263     305.500 0.00 1 1 13.530 14.430 14.950 15.650 14.860 6.678 4.982 1.5770 13.050 13.630 14.090 13.880 14.220 3.299 2.410 0.4890 318.30 60.16 20 0                             15.223 8.836 6.371 16.500 7.805 8.682
UPLMET_235 2015-09-29 17:30:00 235 12631.0 13.15 13.690 14.180 14.330 13.880 65.980 53.650 6.938 5.050 8.930 8.980 9.230 9.020 0.284 0.196 0.270 0.263     305.700 0.00 1 1 13.240 13.840 14.280 14.360 14.410 7.706 6.184 1.7280 13.040 13.470 14.000 13.290 14.190 5.360 3.138 0.5510 258.90 60.48 20 0                             15.124 9.975 5.145 16.330 8.753 7.569
UPLMET_235 2015-09-29 17:25:00 235 12631.0 13.04 13.620 14.070 14.250 14.060 67.830 55.070 7.227 5.342 8.920 8.980 9.230 9.020 0.284 0.196 0.270 0.263     305.700 0.00 1 1 13.210 13.870 14.310 14.950 14.350 8.040 6.651 1.2740 12.950 13.460 13.930 13.620 14.180 4.874 3.894 0.3440 34.52 63.62 20 0                             15.016 10.175 4.831 16.246 8.933 7.299
UPLMET_235 2015-09-29 17:20:00 235 12631.0 13.11 13.640 14.200 14.460 13.810 70.550 57.980 7.887 6.300 8.910 8.980 9.230 9.020 0.284 0.196 0.270 0.263     305.700 0.00 1 1 13.170 13.770 14.400 14.310 14.540 8.410 7.077 1.6210 13.020 13.480 14.000 13.390 14.300 7.234 5.604 0.5060 271.50 61.04 20 0                             15.085 10.645 4.442 16.468 9.547 6.920
UPLMET_235 2015-09-29 17:15:00 235 12631.0 13.03 13.650 14.230 14.380 14.290 69.160 55.810 7.518 5.676 8.890 8.980 9.230 9.020 0.284 0.196 0.270 0.263     305.500 0.00 1 1 13.150 13.810 14.400 14.790 14.560 8.120 6.288 1.3010 12.830 13.210 13.710 13.790 13.890 5.648 4.765 0.4630 10.39 65.94 20 0                             15.006 10.380 4.628 16.383 9.143 7.240
UPLMET_235 2015-09-29 17:10:00 235 12631.0 13.05 13.390 13.800 14.060 13.250 73.430 61.610 8.420 6.801 8.880 8.980 9.230 9.020 0.284 0.196 0.270 0.263     305.600 0.00 1 1 13.210 13.680 14.110 13.500 14.270 8.820 7.614 1.0510 12.860 13.190 13.640 13.020 13.880 7.844 5.218 0.6070 267.10 16.13 20 0                             15.025 11.038 3.992 16.047 9.882 6.160
UPLMET_235 2015-09-29 17:05:00 235 12631.0 13.29 13.750 14.170 14.280 13.740 71.720 61.980 8.310 7.108 8.870 8.980 9.230 9.020 0.284 0.196 0.270 0.263     305.500 0.00 1 1 13.360 13.850 14.290 14.230 14.440 8.790 7.557 1.1050 13.230 13.670 14.070 13.640 14.180 7.997 5.452 0.5650 194.80 69.47 20 0                             15.263 10.956 4.316 16.277 10.093 6.189
UPLMET_235 2015-09-29 17:00:00 235 12631.0 13.46 13.960 14.380 14.520 13.930 72.070 61.020 8.540 7.104 8.860 8.980 9.230 9.020 0.284 0.196 0.270 0.263     305.500 0.00 1 1 13.580 14.130 14.510 14.240 14.580 8.980 7.529 0.7840 13.370 13.870 14.320 13.750 14.450 8.160 6.731 0.2590 265.20 27.07 20 0                             15.433 11.128 4.310 16.532 10.090 6.444
UPLMET_235 2015-09-29 16:55:00 235 12631.0 13.69 14.090 14.460 14.650 14.020 71.070 61.220 8.560 7.280 8.840 8.970 9.230 9.020 0.284 0.196 0.270 0.263     305.400 0.00 1 1 13.870 14.230 14.590 14.190 14.840 8.940 7.741 1.2560 13.560 14.010 14.390 13.910 14.530 8.030 6.861 0.7320 243.90 46.69 20 0                             15.666 11.143 4.532 16.671 10.212 6.465
UPLMET_235 2015-09-29 16:50:00 235 12631.0 14.05 14.460 14.850 15.130 14.280 70.010 59.740 8.680 7.368 8.830 8.970 9.230 9.020 0.284 0.196 0.270 0.263     305.400 0.00 1 1 14.220 14.740 15.130 14.560 15.360 9.070 7.836 0.5700 13.900 14.220 14.590 13.960 14.890 7.841 6.875 0.1520 245.30 18.21 20 0                             16.037 11.234 4.809 17.195 10.274 6.923
UPLMET_235 2015-09-29 16:45:00 235 12631.0 14.22 14.770 15.150 15.410 14.740 67.660 57.210 8.330 7.001 8.820 8.970 9.230 9.020 0.284 0.196 0.270 0.263     305.400 0.00 1 1 14.290 15.020 15.340 15.350 15.540 9.090 7.762 1.0420 14.130 14.610 14.980 14.410 15.330 7.410 5.432 0.5180 246.00 31.17 20 0                             16.214 10.970 5.244 17.507 10.019 7.491
UPLMET_235 2015-09-29 16:40:00 235 12631.0 14.50 15.050 15.500 15.810 14.760 70.040 58.660 9.120 7.746 8.800 8.970 9.230 9.020 0.284 0.196 0.270 0.263     305.400 0.00 1 1 14.640 15.410 15.860 15.390 15.970 9.540 8.120 1.0250 14.310 14.710 15.100 14.390 15.570 8.940 7.458 0.1940 229.30 13.15 20 0                             16.511 11.573 4.947 17.962 10.543 7.425
UPLMET_235 2015-09-29 16:35:00 235 12631.0 14.55 15.400 15.780 15.860 15.880 65.400 53.360 8.140 6.403 8.790 8.970 9.230 9.020 0.284 0.196 0.270 0.263     305.400 0.00 1 1 14.630 15.590 15.950 16.430 16.020 8.830 7.464 1.0420 14.430 14.930 15.430 15.170 15.660 7.156 5.394 0.3620 228.00 43.74 20 0                             16.564 10.830 5.731 18.019 9.615 8.404
UPLMET_235 2015-09-29 16:30:00 235 12631.0 14.60 15.000 15.480 15.840 14.940 68.500 56.580 8.880 7.245 8.780 8.970 9.230 9.020 0.284 0.196 0.270 0.263     305.500 0.00 1 1 14.830 15.230 15.710 15.280 16.100 9.320 8.080 0.8820 14.470 14.890 15.380 14.650 15.700 7.990 6.620 0.4350 272.90 55.86 20 0                             16.618 11.387 5.235 17.996 10.188 7.814
UPLMET_235 2015-09-29 16:25:00 235 12631.0 14.86 15.520 16.060 16.360 15.360 66.590 55.680 8.700 7.492 8.770 8.970 9.240 9.020 0.284 0.196 0.270 0.263     305.400 0.00 1 1 14.970 15.770 16.410 15.670 16.690 9.440 8.090 1.0600 14.790 15.280 15.800 14.960 16.140 7.650 6.714 0.2910 297.10 10.88 20 0                             16.899 11.249 5.646 18.603 10.361 8.245
UPLMET_235 2015-09-29 16:20:00 235 12631.0 14.95 15.830 16.520 16.600 16.160 65.780 51.470 8.610 6.570 8.760 8.970 9.240 9.020 0.284 0.196 0.270 0.263     305.400 0.00 1 1 14.980 15.980 16.640 16.410 16.670 9.090 7.431 1.3010 14.930 15.630 16.350 15.610 16.540 8.130 5.851 0.7130 246.80 7.60 20 0                             16.997 11.181 5.816 18.890 9.726 9.167
UPLMET_235 2015-09-29 16:15:00 235 12631.0 15.15 15.780 16.310 16.410 15.980 67.380 53.930 9.160 7.068 8.740 8.970 9.240 9.020 0.284 0.196 0.270 0.263     305.400 0.00 1 1 15.230 15.920 16.610 16.570 16.590 9.930 7.880 1.0690 14.970 15.600 16.090 15.440 16.260 8.170 6.200 0.3790 258.40 61.97 20 0                             17.217 11.604 5.616 18.663 10.065 8.598
UPLMET_235 2015-09-29 16:10:00 235 12631.0 15.38 15.670 16.080 16.380 15.510 66.060 56.600 9.090 7.750 8.730 8.970 9.240 9.020 0.284 0.196 0.270 0.263     305.400 0.00 1 1 15.660 15.810 16.240 16.010 16.620 9.840 8.410 1.5950 15.230 15.540 15.950 15.160 16.250 8.410 7.298 0.6780 255.10 31.24 20 0                             17.474 11.550 5.931 18.627 10.546 8.084
UPLMET_235 2015-09-29 16:05:00 235 12631.0 15.97 16.180 16.580 17.030 15.760 64.590 54.930 9.310 7.916 8.720 8.970 9.240 9.020 0.284 0.196 0.270 0.263     305.300 0.00 1 1 16.230 16.490 16.910 16.360 17.370 9.980 8.880 1.5680 15.680 15.820 16.250 15.340 16.640 8.270 6.953 0.6450 334.00 71.40 20 0                             18.146 11.722 6.426 19.412 10.666 8.749
UPLMET_235 2015-09-29 16:00:00 235 12631.0 16.48 16.800 17.230 17.550 16.560 61.170 51.530 8.990 7.458 8.710 8.970 9.240 9.020 0.284 0.196 0.270 0.263     305.300 0.00 1 1 16.700 16.980 17.400 16.890 17.720 9.770 8.210 0.8110 16.260 16.510 16.940 15.990 17.400 8.260 6.575 0.3500 296.90 73.28 20 0                             18.746 11.472 7.279 20.061 10.337 9.724
UPLMET_235 2015-09-29 15:55:00 235 12631.0 16.87 17.200 17.650 17.830 16.920 59.010 50.390 8.820 7.390 8.700 8.970 9.240 9.020 0.284 0.196 0.270 0.263     305.200 0.00 1 1 17.070 17.360 17.820 17.120 17.990 9.620 7.942 2.0490 16.720 17.010 17.440 16.620 17.730 8.180 6.676 0.4970 47.04 37.86 20 0                             19.216 11.341 7.877 20.418 10.289 10.129
UPLMET_235 2015-09-29 15:50:00 235 12631.0 17.21 17.520 17.870 18.030 17.330 57.670 48.680 8.790 7.058 8.690 8.960 9.240 9.020 0.284 0.196 0.270 0.263     305.300 0.00 1 1 17.500 17.790 18.110 17.920 18.150 9.920 8.520 1.0780 17.060 17.370 17.790 16.910 17.950 7.055 6.018 0.2520 346.20 59.32 20 0                             19.635 11.318 8.311 20.677 10.058 10.611
UPLMET_235 2015-09-29 15:45:00 235 12631.0 17.71 17.860 18.170 18.270 17.480 54.360 48.210 8.380 7.140 8.680 8.960 9.240 9.020 0.284 0.196 0.270 0.263     305.300 0.00 1 1 18.000 18.070 18.350 17.910 18.440 9.450 8.420 1.7550 17.520 17.690 18.010 17.030 18.130 6.782 6.059 0.5500 18.48 55.78 20 0                             20.264 11.008 9.249 20.991 10.115 10.871
UPLMET_235 2015-09-29 15:40:00 235 12631.0 18.29 18.430 18.660 18.690 17.930 49.430 45.270 7.521 6.609 8.670 8.960 9.240 9.020 0.284 0.196 0.270 0.263     305.300 0.00 1 1 18.520 18.720 18.920 18.430 18.930 9.010 7.623 1.4700 18.030 18.110 18.360 17.370 18.450 6.260 6.030 0.8300 56.87 50.41 20 0                             21.017 10.382 10.628 21.550 9.752 11.794
UPLMET_235 2015-09-29 15:35:00 235 12631.0 18.63 18.820 19.040 19.000 18.600 45.520 42.480 6.640 5.979 8.660 8.960 9.240 9.020 0.284 0.196 0.270 0.263     305.500 0.00 1 1 18.720 18.940 19.120 18.910 19.030 7.229 6.429 0.9530 18.530 18.680 18.940 18.300 18.930 5.980 5.595 0.2470 65.51 68.28 20 0                             21.470 9.773 11.697 21.972 9.337 12.638
UPLMET_235 2015-09-29 15:30:00 235 12631.0 18.50 18.750 19.030 18.990 18.590 46.040 41.960 6.681 5.792 8.650 8.960 9.240 9.020 0.284 0.196 0.270 0.263     305.700 0.00 1 1 18.590 18.900 19.110 18.870 19.030 7.765 6.394 2.0580 18.430 18.630 18.950 18.290 18.970 6.098 5.592 0.6690 75.02 74.39 20 0                             21.296 9.801 11.491 21.958 9.217 12.744
UPLMET_235 2015-09-29 15:25:00 235 12631.0 18.84 18.980 19.230 19.230 18.660 46.340 42.120 7.084 6.058 8.640 8.960 9.240 9.020 0.284 0.196 0.270 0.263     305.600 0.00 1 1 18.960 19.170 19.360 19.080 19.310 8.660 6.835 1.7190 18.610 18.700 18.990 18.060 19.070 5.894 5.149 0.8490 49.86 57.91 20 0                             21.753 10.076 11.673 22.289 9.388 12.901
UPLMET_235 2015-09-29 15:20:00 235 12631.0 18.96 19.180 19.370 19.310 18.850 42.460 39.250 5.930 5.115 8.630 8.970 9.240 9.020 0.284 0.196 0.270 0.263     305.600 0.00 1 1 19.040 19.300 19.450 19.140 19.350 7.105 5.842 1.3720 18.880 19.080 19.310 18.540 19.270 5.371 4.658 0.5960 101.30 48.00 20 0                             21.917 9.305 12.611 22.400 8.793 13.608
UPLMET_235 2015-09-29 15:15:00 235 12631.0 19.07 19.190 19.390 19.390 18.800 41.900 37.960 5.837 4.712 8.620 8.970 9.240 9.020 0.284 0.196 0.270 0.263     305.700 0.00 1 1 19.300 19.390 19.550 19.150 19.490 6.878 5.101 0.8820 18.930 19.050 19.280 18.560 19.320 4.994 4.253 0.4760 163.70 62.96 20 0                             22.068 9.246 12.821 22.512 8.549 13.966
UPLMET_235 2015-09-29 15:10:00 235 12631.0 19.46 19.640 19.740 19.650 19.190 38.390 35.820 4.923 4.111 8.610 8.970 9.240 9.020 0.284 0.196 0.270 0.263     305.700 0.00 1 1 19.560 19.800 19.900 19.480 19.750 5.852 4.714 3.0830 19.310 19.440 19.580 18.890 19.490 4.110 3.624 1.2340 165.70 57.40 20 0                             22.610 8.676 13.930 22.878 8.196 14.683
UPLMET_235 2015-09-29 15:05:00 235 12631.0 19.40 19.760 19.910 19.790 19.520 36.820 34.340 4.282 3.638 8.610 8.970 9.240 9.020 0.284 0.196 0.270 0.263     305.600 0.00 1 1 19.520 19.810 19.940 19.590 19.820 4.936 4.037 1.5230 19.270 19.600 19.840 19.400 19.760 3.979 3.552 0.4830 89.10 62.58 20 0                             22.526 8.295 14.232 23.078 7.927 15.153
UPLMET_235 2015-09-29 15:00:00 235 12631.0 19.13 19.480 19.830 19.850 19.290 39.190 34.590 4.895 3.779 8.600 8.970 9.240 9.020 0.284 0.196 0.270 0.263     305.800 0.00 1 1 19.270 19.620 19.920 19.500 19.950 7.162 5.375 2.6460 18.990 19.270 19.740 18.850 19.780 3.664 3.213 1.3520 59.86 56.11 20 0                             22.150 8.659 13.470 23.164 8.007 15.152
UPLMET_235 2015-09-29 14:55:00 235 12631.0 19.26 19.520 19.990 20.160 19.050 41.530 34.150 5.855 3.876 8.590 8.970 9.240 9.020 0.284 0.196 0.270 0.263     305.900 0.00 1 1 19.510 19.750 20.350 19.580 20.510 7.648 4.901 0.8820 19.060 19.360 19.790 18.510 19.930 4.168 3.087 0.4080 136.00 51.70 20 0                             22.330 9.257 13.057 23.613 8.062 15.549
UPLMET_235 2015-09-29 14:50:00 235 12631.0 19.60 19.780 20.300 20.390 19.460 36.900 31.830 4.481 3.085 8.590 8.970 9.240 9.020 0.284 0.196 0.270 0.263     305.900 0.00 1 1 19.730 19.950 20.340 19.630 20.510 5.578 3.478 0.6860 19.520 19.710 20.250 19.220 20.320 3.388 2.637 0.2510 125.40 13.30 20 0                             22.808 8.412 14.392 23.951 7.623 16.327
UPLMET_235 2015-09-29 14:45:00 235 12631.0 19.89 20.110 20.300 20.390 19.730 34.350 31.230 3.709 2.815 8.580 8.970 9.250 9.020 0.284 0.196 0.270 0.263     305.900 0.00 1 1 19.940 20.200 20.360 19.920 20.480 5.821 3.871 3.2250 19.750 19.930 20.220 19.400 20.270 2.559 2.337 1.4900 99.30 42.74 20 0                             23.222 7.967 15.245 23.951 7.478 16.471
UPLMET_235 2015-09-29 14:40:00 235 12631.0 19.77 20.070 20.260 20.270 19.790 33.300 31.100 3.145 2.643 8.580 8.970 9.250 9.020 0.284 0.196 0.270 0.263     305.800 0.00 1 1 19.910 20.120 20.310 19.910 20.350 5.858 4.862 4.8020 19.600 19.940 20.230 19.670 20.200 2.141 1.974 1.2220 41.77 57.09 20 0                             23.049 7.656 15.374 23.774 7.387 16.380
UPLMET_235 2015-09-29 14:35:00 235 12631.0 19.50 19.740 20.040 20.190 19.500 41.470 35.090 5.991 4.256 8.570 8.970 9.250 9.020 0.284 0.196 0.270 0.263     305.900 0.00 1 1 19.670 20.000 20.310 20.080 20.310 8.910 6.772 2.4410 19.420 19.600 19.860 18.840 20.130 3.125 2.763 1.2500 64.13 33.71 20 0                             22.666 9.345 13.267 23.657 8.280 15.356
UPLMET_235 2015-09-29 14:30:00 235 12631.0 19.97 20.000 20.260 20.650 19.510 40.730 34.180 6.210 4.298 8.570 8.970 9.250 9.020 0.284 0.196 0.270 0.263     305.900 0.00 1 1 20.250 20.280 20.430 19.740 20.770 7.711 6.264 1.5770 19.690 19.720 20.000 19.070 20.350 4.748 3.204 0.6200 149.10 88.50 20 0                             23.337 9.487 13.832 24.338 8.304 16.019
UPLMET_235 2015-09-29 14:25:00 235 12631.0 20.40 20.500 20.670 20.790 19.990 34.430 31.660 4.187 3.351 8.560 8.970 9.250 9.020 0.284 0.196 0.270 0.263     305.800 0.00 1 1 20.510 20.650 20.830 20.180 20.930 5.973 4.464 1.5680 20.290 20.310 20.460 19.680 20.710 2.716 2.594 1.0350 122.80 42.41 20 0                             23.965 8.240 15.714 24.548 7.768 16.776
UPLMET_235 2015-09-29 14:20:00 235 12631.0 20.54 20.740 20.920 21.070 20.290 31.830 30.000 3.210 2.839 8.560 8.970 9.250 9.020 0.284 0.196 0.270 0.263     306.000 0.00 1 1 20.610 20.840 21.040 20.560 21.130 4.720 4.016 1.7190 20.510 20.640 20.830 20.120 20.960 2.658 2.520 0.8370 61.15 78.55 20 0                             24.173 7.691 16.479 24.974 7.491 17.482
UPLMET_235 2015-09-29 14:15:00 235 12631.0 20.72 20.790 21.020 21.020 20.340 31.730 29.800 3.327 2.704 8.550 8.970 9.250 9.020 0.284 0.196 0.270 0.263     306.100 0.00 1 1 20.810 20.900 21.070 20.470 21.090 4.204 3.325 1.6840 20.590 20.720 20.980 20.260 20.970 2.616 2.345 0.6750 84.40 39.28 20 0                             24.443 7.755 16.687 24.898 7.420 17.478
UPLMET_235 2015-09-29 14:10:00 235 12631.0 21.00 21.090 21.230 21.300 20.460 31.530 29.550 3.476 2.822 8.550 8.970 9.250 9.020 0.284 0.196 0.270 0.263     306.000 0.00 1 1 21.200 21.330 21.430 20.870 21.490 4.693 3.975 2.1920 20.800 20.880 21.050 20.210 21.070 2.519 1.998 0.9610 44.39 67.74 20 0                             24.867 7.837 17.027 25.329 7.482 17.844
UPLMET_235 2015-09-29 14:05:00 235 12631.0 21.26 21.300 21.290 21.310 20.660 31.250 29.890 3.563 2.987 8.550 8.970 9.250 9.020 0.284 0.196 0.270 0.263     306.200 0.00 1 1 21.350 21.360 21.410 20.810 21.400 4.951 4.162 1.6840 21.200 21.260 21.250 20.520 21.240 2.704 2.475 0.7200 73.43 51.78 20 0                             25.267 7.885 17.371 25.345 7.570 17.769
UPLMET_235 2015-09-29 14:00:00 235 12631.0 21.33 21.410 21.510 21.610 20.840 31.580 29.320 3.773 2.979 8.540 8.970 9.250 9.020 0.284 0.196 0.270 0.263     306.200 0.00 1 1 21.360 21.520 21.670 21.040 21.930 5.513 4.545 2.1560 21.210 21.360 21.430 20.720 21.390 2.871 2.313 1.5480 59.68 36.37 20 0                             25.376 8.003 17.362 25.814 7.566 18.246
UPLMET_235 2015-09-29 13:55:00 235 12631.0 21.23 21.390 21.810 22.040 20.870 31.720 29.320 3.744 3.333 8.540 8.970 9.250 9.020 0.284 0.196 0.270 0.263     306.200 0.00 1 1 21.260 21.430 21.940 21.100 22.080 5.568 5.294 2.5480 21.210 21.330 21.610 20.720 21.970 2.223 2.124 0.6660 50.56 41.74 20 0                             25.221 7.987 17.221 26.501 7.758 18.731
UPLMET_235 2015-09-29 13:50:00 235 12631.0 21.56 21.610 22.290 22.120 20.780 28.970 26.450 2.755 1.974 8.540 8.980 9.250 9.020 0.284 0.196 0.270 0.263     306.100 0.00 1 1 21.800 21.880 22.630 21.060 22.190 4.285 2.584 0.6060 21.270 21.380 21.960 20.540 22.070 1.818 1.423 0.2660 296.10 62.77 20 0                             25.736 7.447 18.280 26.630 7.043 19.586
UPLMET_235 2015-09-29 13:45:00 235 12631.0 21.93 21.970 22.720 22.280 21.150 28.180 26.010 2.648 1.845 8.540 8.980 9.250 9.020 0.284 0.196 0.270 0.263     306.100 0.00 1 1 22.050 22.040 22.860 21.470 22.400 4.578 3.236 0.7930 21.810 21.870 22.590 20.560 22.130 0.728 0.336 0.2570 102.10 43.76 20 0                             26.324 7.390 18.906 26.891 6.978 19.896
UPLMET_235 2015-09-29 13:40:00 235 12631.0 22.25 22.230 22.520 22.300 21.300 24.150 23.090 0.805 0.229 8.530 8.980 9.250 9.020 0.284 0.196 0.270 0.263     306.200 0.00 1 1 22.500 22.470 22.590 21.560 22.350 1.720 1.733 1.8350 22.050 22.050 22.420 21.060 22.240 -0.158 -0.699 0.7490 60.57 64.27 20 0                             26.842 6.475 20.359 26.923 6.210 20.707
UPLMET_235 2015-09-29 13:35:00 235 12631.0 22.88 22.380 22.180 22.030 21.190 23.810 22.660 1.066 -0.258 8.530 8.980 9.250 9.020 0.285 0.196 0.270 0.263     306.300 0.00 1 1 23.050 22.430 22.380 21.360 22.250 4.498 1.163 2.1560 22.530 22.300 22.020 21.000 21.900 -0.717 -0.989 0.9010 340.20 77.51 20 0                             27.888 6.598 21.248 26.485 5.994 20.483
UPLMET_235 2015-09-29 13:30:00 235 12631.0 23.27 22.890 22.500 22.310 21.400 22.190 22.160 0.407 -0.371 8.530 8.980 9.250 9.020 0.285 0.196 0.270 0.263     306.100 0.00 1 1 23.610 23.380 22.910 21.500 22.560 2.996 2.036 2.5390 22.980 22.500 22.210 21.280 22.080 -1.603 -1.671 1.6700 49.12 32.55 20 0                             28.553 6.291 22.217 26.940 5.945 20.970
UPLMET_235 2015-09-29 13:25:00 235 12631.0 23.48 23.310 22.920 22.550 21.590 21.160 21.270 -0.015 -0.697 8.530 8.980 9.250 9.020 0.285 0.196 0.270 0.263     306.100 0.00 1 1 23.590 23.480 23.240 21.870 22.680 1.801 0.404 2.0310 23.400 23.160 22.810 21.420 22.480 -1.352 -1.903 0.8030 52.57 40.91 20 0                             28.917 6.101 22.798 27.335 5.805 21.521
UPLMET_235 2015-09-29 13:20:00 235 12631.0 23.42 23.270 23.070 22.710 21.460 23.030 22.410 1.110 0.134 8.530 8.980 9.250 9.020 0.285 0.196 0.270 0.263     306.200 0.00 1 1 23.520 23.430 23.210 21.650 22.870 2.666 1.982 2.3520 23.290 23.130 22.970 21.150 22.600 -0.469 -1.687 0.5360 82.00 53.35 20 0                             28.812 6.619 22.177 27.602 6.168 21.416
UPLMET_235 2015-09-29 13:15:00 235 12631.0 23.28 23.160 23.060 22.760 21.440 20.880 19.870 -0.385 -1.450 8.530 8.980 9.250 9.020 0.285 0.196 0.270 0.263     306.200 0.00 1 1 23.400 23.330 23.180 21.660 22.930 3.409 -0.118 0.9620 23.180 23.010 22.950 21.210 22.610 -2.269 -2.506 0.2940 50.13 70.69 20 0                             28.570 5.939 22.605 27.686 5.493 22.185
UPLMET_235 2015-09-29 13:10:00 235 12631.0 23.31 23.060 22.910 22.460 21.360 20.960 21.130 -0.285 -0.870 8.530 8.990 9.250 9.020 0.285 0.196 0.270 0.263     306.100 0.00 1 1 23.440 23.220 23.090 21.530 22.700 1.307 0.137 1.5320 23.230 22.910 22.700 21.230 22.240 -2.377 -2.387 0.4510 23.65 69.96 20 0                             28.622 5.982 22.623 27.187 5.732 21.442
UPLMET_235 2015-09-29 13:05:00 235 12631.0 23.31 22.960 22.670 22.340 21.150 20.820 20.790 -0.381 -1.171 8.530 8.990 9.250 9.020 0.285 0.196 0.270 0.263     306.100 0.00 1 1 23.580 23.390 23.200 21.690 22.840 1.657 -0.426 1.5860 23.170 22.720 22.430 20.820 22.060 -2.186 -1.871 0.6800 127.00 53.17 20 0                             28.622 5.941 22.663 26.989 5.607 21.378
UPLMET_235 2015-09-29 13:00:00 235 12631.0 23.53 23.410 23.160 22.630 21.660 23.140 23.360 1.213 0.655 8.530 8.990 9.250 9.020 0.285 0.196 0.270 0.263     306.000 0.00 1 1 23.670 23.680 23.330 22.260 22.800 3.832 2.605 1.8800 23.190 23.040 22.920 21.450 22.410 -2.423 -1.008 0.7370 10.61 48.44 20 0                             29.004 6.668 22.293 27.468 6.405 21.052
UPLMET_235 2015-09-29 12:55:00 235 12631.0 23.09 22.670 22.470 22.000 21.290 22.740 23.080 0.629 -0.047 8.530 8.990 9.250 9.020 0.285 0.196 0.270 0.263     306.100 0.00 1 1 23.170 22.970 22.880 21.710 22.360 3.460 1.711 1.5680 22.990 22.420 22.160 20.770 21.790 -1.079 -1.801 0.6120 79.07 36.30 20 0                             28.244 6.393 21.822 26.436 6.087 20.335
UPLMET_235 2015-09-29 12:50:00 235 12631.0 23.08 22.660 22.390 21.990 21.020 24.040 23.920 1.383 0.425 8.530 8.990 9.250 9.020 0.285 0.196 0.270 0.263     306.100 0.00 1 1 23.180 22.880 22.590 21.360 22.140 3.460 2.405 1.9240 22.960 22.560 22.310 20.720 21.900 -1.142 -1.168 1.0860 90.00 23.64 20 0                             28.227 6.751 21.441 26.420 6.299 20.100
UPLMET_235 2015-09-29 12:45:00 235 12631.0 23.15 22.880 22.640 22.100 21.170 24.660 24.540 1.823 0.897 8.530 8.990 9.250 9.020 0.285 0.196 0.270 0.263     306.200 0.00 1 1 23.230 22.990 22.700 21.450 22.180 4.134 2.775 2.0220 23.050 22.770 22.560 20.900 21.950 0.028 -0.220 0.7960 78.28 41.49 20 0                             28.347 6.967 21.357 26.598 6.518 20.071
UPLMET_235 2015-09-29 12:40:00 235 12631.0 22.76 22.450 22.110 21.630 20.930 25.270 24.930 1.853 0.728 8.530 8.990 9.250 9.020 0.285 0.196 0.270 0.263     306.100 0.00 1 1 23.010 22.820 22.560 21.170 21.910 3.248 2.738 1.6660 22.580 22.090 21.720 20.730 21.340 0.132 -0.232 0.6220 98.60 70.20 20 0                             27.686 6.982 20.690 25.846 6.439 19.403
UPLMET_235 2015-09-29 12:35:00 235 12631.0 22.84 22.360 21.850 21.610 20.850 24.830 25.350 1.679 0.941 8.530 8.990 9.250 9.020 0.285 0.196 0.270 0.263     306.100 0.00 1 1 23.020 22.580 22.170 21.150 21.940 3.766 2.645 2.1650 22.640 22.100 21.700 20.680 21.380 -0.160 -0.174 1.1250 87.90 48.90 20 0                             27.820 6.896 20.913 25.814 6.539 19.270
UPLMET_235 2015-09-29 12:30:00 235 12631.0 22.96 22.640 22.320 21.990 21.170 27.020 27.140 2.962 2.216 8.530 9.000 9.250 9.020 0.285 0.196 0.270 0.263     306.100 0.00 1 1 23.090 22.850 22.490 21.660 22.150 4.786 3.562 2.3070 22.860 22.440 22.140 20.840 21.890 1.091 1.026 1.4860 47.12 22.32 20 0                             28.023 7.557 20.451 26.420 7.166 19.250
UPLMET_235 2015-09-29 12:25:00 235 12631.0 22.97 22.750 22.460 22.140 20.960 26.450 27.120 2.676 2.334 8.530 9.000 9.250 9.020 0.285 0.196 0.270 0.263     306.100 0.00 1 1 23.170 23.000 22.650 21.200 22.320 4.333 3.165 2.3700 22.800 22.360 22.140 20.600 21.910 0.930 0.975 0.6900 82.50 31.76 20 0                             28.040 7.405 20.623 26.663 7.227 19.432
UPLMET_235 2015-09-29 12:20:00 235 12631.0 23.11 22.730 22.460 22.190 21.030 27.030 27.830 3.091 2.735 8.530 9.000 9.250 9.020 0.285 0.196 0.270 0.263     306.100 0.00 1 1 23.240 22.980 22.670 21.510 22.270 5.748 4.510 1.6390 22.810 22.360 22.150 20.820 21.950 1.730 1.668 0.6630 49.96 80.50 20 0                             28.278 7.626 20.635 26.744 7.436 19.301
UPLMET_235 2015-09-29 12:15:00 235 12631.0 23.05 22.770 22.440 22.020 20.730 27.580 27.720 3.337 2.541 8.530 9.000 9.250 9.020 0.285 0.196 0.270 0.263     306.000 0.00 1 1 23.200 23.020 22.680 21.060 22.220 4.914 3.881 2.0580 22.960 22.530 22.210 20.430 21.830 1.667 1.254 0.4630 125.60 26.14 20 0                             28.176 7.760 20.405 26.468 7.334 19.131
UPLMET_235 2015-09-29 12:10:00 235 12631.0 23.01 22.600 22.280 21.870 20.590 27.420 27.840 3.222 2.472 8.540 9.000 9.260 9.020 0.285 0.196 0.270 0.263     306.100 0.00 1 1 23.230 22.880 22.540 20.920 22.060 4.673 3.690 1.8980 22.900 22.400 22.090 20.290 21.730 1.689 1.561 0.6440 121.80 39.24 20 0                             28.108 7.698 20.401 26.227 7.298 18.926
UPLMET_235 2015-09-29 12:05:00 235 12631.0 23.39 22.900 22.480 22.020 20.580 26.990 27.920 3.321 2.635 8.540 9.000 9.260 9.020 0.285 0.196 0.270 0.263     306.000 0.00 1 1 23.490 23.110 22.610 20.790 22.100 4.969 3.923 1.8530 23.260 22.690 22.380 20.310 21.950 1.902 1.559 0.5840 123.30 43.39 20 0                             28.760 7.752 20.998 26.468 7.383 19.078
UPLMET_235 2015-09-29 12:00:00 235 12631.0 23.23 22.710 22.380 22.040 20.570 27.560 28.110 3.488 2.752 8.540 9.000 9.260 9.020 0.285 0.196 0.271 0.263     305.900 0.00 1 1 23.300 22.780 22.470 20.940 22.150 4.524 4.033 1.1760 23.120 22.590 22.260 20.260 21.930 2.448 1.782 0.7060 108.80 35.22 20 0                             28.484 7.844 20.634 26.501 7.445 19.051
UPLMET_235 2015-09-29 11:55:00 235 12631.0 23.17 22.560 22.300 22.060 20.590 27.880 29.040 3.598 3.222 8.540 9.010 9.260 9.020 0.285 0.196 0.271 0.263     305.900 0.00 1 1 23.260 22.720 22.400 20.900 22.130 4.756 4.153 0.9800 23.050 22.410 22.190 20.220 21.940 2.362 2.197 0.3570 7.70 68.75 20 0                             28.381 7.905 20.468 26.533 7.698 18.828
UPLMET_235 2015-09-29 11:50:00 235 12631.0 23.24 22.690 22.330 22.050 20.340 28.450 28.600 3.942 3.005 8.540 9.010 9.260 9.020 0.285 0.196 0.271 0.262     305.900 0.00 1 1 23.270 22.810 22.480 20.650 22.170 6.208 3.822 0.8820 23.120 22.540 22.230 20.140 21.980 2.966 2.218 0.4230 174.20 78.36 20 0                             28.501 8.099 20.393 26.517 7.580 18.933
UPLMET_235 2015-09-29 11:45:00 235 12631.0 22.89 22.420 22.050 21.750 20.210 27.820 29.200 3.335 3.040 8.550 9.010 9.260 9.020 0.285 0.196 0.271 0.262     305.900 0.00 1 1 23.090 22.780 22.380 20.660 21.990 4.891 3.865 0.6950 22.760 22.160 21.860 19.870 21.640 2.230 2.131 0.1350 72.57 10.03 20 0                             27.905 7.759 20.142 26.036 7.599 18.434
UPLMET_235 2015-09-29 11:40:00 235 12631.0 22.99 22.400 22.180 21.920 20.030 27.030 27.610 2.991 2.397 8.550 9.010 9.260 9.020 0.286 0.196 0.271 0.262     306.000 0.00 1 1 23.220 22.580 22.340 20.260 22.070 4.783 3.464 1.0330 22.850 22.200 21.940 19.870 21.730 1.919 1.653 0.4600 112.00 40.55 20 0                             28.074 7.572 20.486 26.308 7.259 19.044
UPLMET_235 2015-09-29 11:35:00 235 12631.0 23.06 22.380 22.160 21.960 20.220 27.190 28.130 3.144 2.692 8.550 9.010 9.260 9.020 0.286 0.196 0.271 0.262     305.900 0.00 1 1 23.190 22.560 22.320 20.680 22.120 4.818 4.064 0.8020 22.900 22.220 21.970 19.910 21.830 2.055 1.800 0.4380 77.56 43.45 20 0                             28.193 7.655 20.527 26.372 7.413 18.953
UPLMET_235 2015-09-29 11:30:00 235 12631.0 22.74 22.160 21.890 21.730 20.160 28.540 28.780 3.565 2.812 8.550 9.010 9.260 9.020 0.286 0.196 0.271 0.262     305.900 0.00 1 1 22.890 22.260 21.990 20.320 21.800 4.826 4.240 1.2740 22.550 22.000 21.770 19.890 21.660 1.916 1.688 0.3640 91.60 68.94 20 0                             27.652 7.887 19.760 26.004 7.477 18.520
UPLMET_235 2015-09-29 11:25:00 235 12631.0 22.45 21.900 21.770 21.700 20.280 28.070 28.460 3.081 2.627 8.560 9.020 9.260 9.020 0.286 0.196 0.271 0.262     305.900 0.00 1 1 22.560 22.040 21.860 20.640 21.760 4.244 4.017 1.8090 22.370 21.780 21.690 20.090 21.650 1.883 1.590 0.3950 71.40 50.45 20 0                             27.170 7.621 19.543 25.957 7.379 18.569
UPLMET_235 2015-09-29 11:20:00 235 12631.0 22.44 21.990 21.850 21.570 20.020 28.470 28.370 3.264 2.484 8.560 9.020 9.260 9.020 0.286 0.196 0.271 0.262     305.900 0.00 1 1 22.600 22.200 22.050 20.150 21.740 4.657 3.243 1.0250 22.230 21.660 21.540 19.820 21.320 1.552 1.614 0.1830 129.40 23.14 20 0                             27.154 7.720 19.423 25.751 7.304 18.446
UPLMET_235 2015-09-29 11:15:00 235 12631.0 22.11 21.640 21.440 21.110 19.770 27.640 27.920 2.573 1.863 8.560 9.020 9.260 9.020 0.286 0.196 0.271 0.262     305.800 0.00 1 1 22.260 21.780 21.590 20.100 21.330 3.988 3.281 0.8110 22.030 21.500 21.270 19.390 20.980 1.660 1.007 0.3640 128.30 55.84 20 0                             26.614 7.351 19.258 25.036 6.987 18.046
UPLMET_235 2015-09-29 11:10:00 235 12631.0 22.14 21.650 21.430 21.230 19.800 27.810 27.940 2.687 1.974 8.560 9.020 9.260 9.020 0.286 0.196 0.271 0.262     305.900 0.00 1 1 22.240 21.770 21.530 20.140 21.370 3.638 2.636 1.4880 22.050 21.540 21.340 19.540 21.020 1.925 1.131 0.5730 142.60 52.83 20 0                             26.663 7.411 19.248 25.221 7.043 18.174
UPLMET_235 2015-09-29 11:05:00 235 12631.0 22.13 21.690 21.550 21.340 20.040 28.630 28.670 3.059 2.416 8.570 9.020 9.260 9.020 0.286 0.196 0.271 0.262     305.900 0.00 1 1 22.230 21.950 21.800 20.770 21.500 5.253 4.533 1.6480 22.060 21.550 21.440 19.550 21.190 1.403 1.304 0.5160 353.60 76.17 20 0                             26.646 7.609 19.018 25.391 7.269 18.112
UPLMET_235 2015-09-29 11:00:00 235 12631.0 21.84 21.570 21.420 21.210 20.000 29.390 29.670 3.199 2.781 8.570 9.020 9.260 9.020 0.286 0.196 0.271 0.262     305.800 0.00 1 1 22.120 21.760 21.570 20.300 21.350 4.574 4.321 0.5700 21.520 21.400 21.240 19.770 21.070 1.503 1.312 0.1630 264.60 66.17 20 0                             26.180 7.685 18.485 25.190 7.460 17.716
UPLMET_235 2015-09-29 10:55:00 235 12631.0 21.12 21.130 21.080 20.850 19.660 32.730 31.130 4.106 3.160 8.580 9.030 9.260 9.020 0.286 0.196 0.271 0.262     305.800 0.00 1 1 21.500 21.390 21.270 20.190 21.050 6.230 5.020 1.2470 20.880 20.770 20.770 19.160 20.520 3.071 2.175 0.3100 324.40 48.62 20 0                             25.051 8.193 16.852 24.639 7.664 16.969
UPLMET_235 2015-09-29 10:50:00 235 12631.0 20.95 20.860 20.850 20.640 19.310 30.770 30.570 3.081 2.715 8.580 9.030 9.260 9.020 0.286 0.196 0.271 0.262     305.900 0.00 1 1 21.020 20.990 20.940 19.540 20.700 4.625 4.025 1.3360 20.900 20.760 20.760 18.970 20.520 2.060 1.612 0.4500 71.39 54.58 20 0                             24.791 7.621 17.163 24.323 7.425 16.887
UPLMET_235 2015-09-29 10:45:00 235 12631.0 21.28 20.950 20.860 20.720 19.280 31.810 31.510 3.832 3.225 8.580 9.030 9.260 9.020 0.286 0.196 0.271 0.262     305.800 0.00 1 1 21.420 21.170 21.030 19.860 20.800 6.172 3.900 1.1760 21.030 20.680 20.650 19.040 20.650 2.777 2.503 0.4100 32.52 71.77 20 0                             25.298 8.037 17.251 24.443 7.699 16.741
UPLMET_235 2015-09-29 10:40:00 235 12631.0 21.71 21.240 21.220 20.990 19.320 31.650 31.630 4.144 3.515 8.590 9.030 9.260 9.020 0.286 0.196 0.271 0.262     305.800 0.00 1 1 21.810 21.390 21.390 19.890 21.110 6.030 4.566 1.0870 21.410 21.030 20.930 18.860 20.820 2.968 2.522 0.4930 78.68 51.67 20 0                             25.973 8.215 17.752 24.852 7.859 16.991
UPLMET_235 2015-09-29 10:35:00 235 12631.0 22.00 21.290 21.260 21.140 19.490 30.990 31.650 4.100 3.648 8.590 9.030 9.260 9.020 0.286 0.196 0.271 0.262     305.900 0.00 1 1 22.150 21.410 21.400 19.850 21.230 4.920 4.857 1.0250 21.850 21.150 21.060 19.270 21.070 3.098 2.513 0.4610 6.60 67.14 20 0                             26.436 8.190 18.244 25.082 7.933 17.143
UPLMET_235 2015-09-29 10:30:00 235 12631.0 21.85 21.230 21.370 21.070 19.640 32.960 33.910 4.844 4.581 8.600 9.030 9.260 9.020 0.286 0.196 0.271 0.262     306.000 0.00 1 1 21.960 21.420 21.530 20.220 21.170 6.366 5.610 0.8820 21.760 21.120 21.220 19.250 20.960 3.840 3.472 0.2310 57.49 43.48 20 0                             26.195 8.628 17.561 24.974 8.471 16.506
UPLMET_235 2015-09-29 10:25:00 235 12631.0 21.90 21.360 21.310 21.020 19.620 32.890 33.710 4.859 4.451 8.600 9.040 9.260 9.020 0.286 0.196 0.271 0.262     305.900 0.00 1 1 22.000 21.470 21.450 19.930 21.140 6.735 5.267 0.6860 21.780 21.160 21.190 19.210 20.860 4.018 3.761 0.2730 318.20 53.37 20 0                             26.276 8.637 17.633 24.898 8.394 16.505
UPLMET_235 2015-09-29 10:20:00 235 12631.0 21.82 21.190 21.020 20.760 19.310 32.720 34.230 4.721 4.440 8.600 9.040 9.260 9.020 0.286 0.196 0.271 0.262     305.800 0.00 1 1 21.960 21.340 21.170 19.580 20.830 5.910 5.099 0.7310 21.710 21.030 20.810 18.950 20.630 3.846 3.877 0.1840 32.59 21.59 20 0                             26.148 8.554 17.592 24.503 8.388 16.116
UPLMET_235 2015-09-29 10:15:00 235 12631.0 21.99 21.080 20.880 20.610 19.210 32.900 33.930 4.923 4.164 8.610 9.040 9.260 9.020 0.286 0.197 0.271 0.262     305.800 0.00 1 1 22.220 21.270 21.260 19.670 20.860 6.620 5.309 1.1850 21.850 20.960 20.690 18.800 20.520 3.268 2.815 0.5920 69.59 33.79 20 0                             26.420 8.676 17.728 24.278 8.227 16.040
UPLMET_235 2015-09-29 10:10:00 235 12631.0 22.12 21.340 21.420 21.060 19.090 31.650 32.280 4.506 3.867 8.610 9.040 9.260 9.020 0.286 0.197 0.271 0.262     305.800 0.00 1 1 22.240 21.450 21.590 19.520 21.280 5.191 4.281 1.0420 21.880 21.230 21.240 18.910 20.880 3.803 3.151 0.5170 85.60 11.15 20 0                             26.630 8.426 18.202 24.959 8.056 16.902
UPLMET_235 2015-09-29 10:05:00 235 12631.0 22.28 21.680 21.820 21.480 19.350 30.460 31.930 4.087 4.071 8.620 9.040 9.260 9.020 0.286 0.197 0.271 0.262     305.800 0.00 1 1 22.630 22.070 21.960 19.670 21.550 5.184 4.896 0.7840 21.860 21.220 21.600 19.090 21.350 2.337 2.946 0.2360 350.00 40.33 20 0                             26.891 8.182 18.700 25.610 8.173 17.433
UPLMET_235 2015-09-29 10:00:00 235 12631.0 22.49 21.960 22.000 21.610 19.550 30.570 32.320 4.302 4.359 8.620 9.040 9.260 9.020 0.286 0.197 0.271 0.262     305.800 0.00 1 1 22.890 22.310 22.150 19.860 21.720 5.688 5.341 0.1600 22.240 21.680 21.870 19.160 21.410 2.266 2.867 0.0230 357.00 16.37 20 0                             27.236 8.307 18.910 25.814 8.340 17.471
UPLMET_235 2015-09-29 09:55:00 235 12631.0 22.81 22.210 22.020 21.530 19.170 29.720 31.210 4.195 3.785 8.630 9.040 9.260 9.020 0.286 0.197 0.271 0.262     305.800 0.00 1 1 22.920 22.370 22.130 19.400 21.680 5.915 5.264 0.7840 22.730 22.080 21.910 18.990 21.430 3.023 2.835 0.0610 84.60 4.87 20 0                             27.770 8.244 19.517 25.688 8.010 17.671
UPLMET_235 2015-09-29 09:50:00 235 12631.0 22.56 22.080 21.980 21.440 19.180 29.170 30.820 3.728 3.530 8.630 9.050 9.260 9.030 0.286 0.197 0.271 0.262     306.100 0.00 1 1 22.740 22.190 22.030 19.440 21.500 4.736 4.485 0.9620 22.360 21.870 21.840 19.020 21.350 2.635 2.089 0.2450 71.28 19.25 20 0                             27.352 7.978 19.373 25.547 7.867 17.674
UPLMET_235 2015-09-29 09:45:00 235 12631.0 22.29 21.880 21.760 21.190 19.160 31.190 33.360 4.435 4.442 8.640 9.050 9.260 9.030 0.286 0.197 0.271 0.262     306.000 0.00 1 1 22.410 22.010 21.900 19.460 21.350 5.674 5.660 0.2490 22.120 21.720 21.550 18.800 21.020 2.937 3.660 0.0410 56.90 3.21 20 0                             26.907 8.385 18.515 25.159 8.389 16.766
UPLMET_235 2015-09-29 09:40:00 235 12631.0 22.08 21.550 21.330 20.770 19.350 30.770 31.810 4.057 3.401 8.640 9.050 9.260 9.030 0.286 0.197 0.271 0.262     306.000 0.00 1 1 22.140 21.680 21.590 19.540 21.040 5.358 4.291 0.7130 22.030 21.410 21.080 19.200 20.520 2.281 1.824 0.1420 62.17 3.69 20 0                             26.565 8.165 18.391 24.518 7.796 16.719
UPLMET_235 2015-09-29 09:35:00 235 12631.0 22.15 21.540 21.140 20.580 19.160 28.580 30.130 3.065 2.460 8.650 9.050 9.260 9.030 0.286 0.197 0.271 0.262     306.000 0.00 1 1 22.270 21.650 21.240 19.430 20.720 5.077 4.003 1.3270 22.020 21.410 21.030 18.980 20.470 2.004 1.671 0.8380 70.36 11.10 20 0                             26.679 7.612 19.054 24.233 7.292 16.932
UPLMET_235 2015-09-29 09:30:00 235 12631.0 21.96 21.380 21.120 20.600 18.950 33.550 33.480 5.180 3.976 8.650 9.050 9.260 9.030 0.286 0.197 0.271 0.262     306.000 0.00 1 1 22.060 21.510 21.250 19.320 20.700 7.006 5.481 1.1400 21.920 21.250 21.030 18.750 20.530 3.672 2.684 0.8290 77.45 14.27 20 0                             26.372 8.833 17.524 24.263 8.118 16.140
UPLMET_235 2015-09-29 09:25:00 235 12631.0 22.13 21.750 21.500 20.890 18.910 32.990 31.780 5.084 3.476 8.660 9.050 9.260 9.030 0.286 0.197 0.271 0.262     305.800 0.00 1 1 22.200 21.920 21.680 19.090 21.020 7.643 5.410 1.2470 22.060 21.490 21.260 18.770 20.710 3.165 2.494 0.8710 93.90 9.66 20 0                             26.646 8.774 17.856 24.700 7.837 16.850
UPLMET_235 2015-09-29 09:20:00 235 12631.0 21.81 21.700 21.410 20.780 19.090 34.110 34.240 5.208 4.415 8.660 9.060 9.260 9.030 0.286 0.197 0.271 0.262     305.700 0.00 1 1 22.060 21.940 21.670 19.280 20.990 8.280 6.697 0.5080 21.540 21.510 21.230 18.720 20.650 2.263 2.618 0.2700 103.70 12.69 20 0                             26.132 8.850 17.218 24.533 8.373 16.133
UPLMET_235 2015-09-29 09:15:00 235 12631.0 21.54 21.400 21.240 20.620 18.460 36.940 37.170 6.192 5.490 8.670 9.060 9.260 9.030 0.286 0.197 0.271 0.262     305.600 0.00 1 1 21.580 21.510 21.360 18.610 20.700 8.210 6.271 0.7310 21.410 21.200 21.030 18.270 20.490 4.867 3.715 0.4200 95.50 3.94 20 0                             25.704 9.476 16.209 24.293 9.026 15.263
UPLMET_235 2015-09-29 09:10:00 235 12631.0 20.96 20.780 20.660 20.070 18.460 34.240 33.910 4.589 3.688 8.670 9.060 9.260 9.030 0.286 0.197 0.271 0.262     305.600 0.00 1 1 21.370 21.170 21.010 18.690 20.460 7.914 5.992 0.7840 20.720 20.320 20.220 18.150 19.680 3.106 2.579 0.3110 90.10 3.61 20 0                             24.806 8.476 16.313 23.482 7.955 15.519
UPLMET_235 2015-09-29 09:05:00 235 12631.0 20.84 20.300 20.120 19.550 17.920 34.580 36.000 4.649 4.083 8.670 9.060 9.260 9.030 0.286 0.197 0.271 0.262     305.800 0.00 1 1 20.920 20.430 20.190 18.090 19.640 6.434 5.176 0.8110 20.750 20.110 20.030 17.810 19.430 3.732 2.376 0.3760 83.70 26.49 20 0                             24.624 8.511 16.109 22.737 8.180 14.552
UPLMET_235 2015-09-29 09:00:00 235 12631.0 20.71 20.240 20.150 19.520 17.570 36.330 34.160 5.235 3.310 8.680 9.060 9.260 9.030 0.286 0.197 0.271 0.262     305.700 0.00 1 1 20.760 20.470 20.300 17.830 19.600 6.766 4.512 0.7130 20.580 20.060 20.020 17.440 19.420 3.756 2.575 0.4550 81.90 16.64 20 0                             24.428 8.867 15.553 22.695 7.746 14.942
UPLMET_235 2015-09-29 08:55:00 235 12631.0 20.12 20.100 19.930 19.370 17.650 35.610 34.830 4.404 3.445 8.690 9.060 9.260 9.030 0.286 0.197 0.271 0.262     305.500 0.00 1 1 20.530 20.460 20.280 17.850 19.630 6.417 4.568 0.6150 19.740 19.570 19.440 17.340 18.940 2.854 2.603 0.3980 79.92 11.38 20 0                             23.554 8.366 15.167 22.484 7.820 14.653
UPLMET_235 2015-09-29 08:50:00 235 12631.0 19.72 19.270 19.030 18.600 17.070 35.950 36.210 4.205 3.325 8.690 9.060 9.260 9.030 0.286 0.197 0.271 0.262     305.800 0.00 1 1 19.800 19.530 19.390 17.350 18.890 5.706 4.603 0.8460 19.630 19.160 18.860 16.680 18.490 2.929 2.427 0.5230 100.20 7.86 20 0                             22.978 8.250 14.717 21.429 7.754 13.670
UPLMET_235 2015-09-29 08:45:00 235 12631.0 19.49 19.000 18.990 18.700 16.870 44.720 38.120 7.133 4.150 8.690 9.060 9.260 9.030 0.286 0.197 0.271 0.262     305.800 0.00 1 1 19.710 19.140 19.180 17.090 18.830 9.160 5.187 1.2470 19.350 18.850 18.790 16.600 18.480 5.330 3.281 0.7740 75.92 12.43 20 0                             22.652 10.110 12.522 21.564 8.218 13.344
UPLMET_235 2015-09-29 08:40:00 235 12631.0 19.01 19.080 19.440 19.270 17.320 50.250 39.660 8.400 5.166 8.700 9.070 9.260 9.030 0.286 0.197 0.271 0.262     305.700 0.00 1 1 19.320 19.340 19.810 18.200 19.530 9.840 7.995 1.3630 18.730 18.890 19.050 16.540 18.850 4.562 2.885 0.9680 90.50 25.05 20 0                             21.985 11.023 10.938 22.344 8.824 13.483
UPLMET_235 2015-09-29 08:35:00 235 12631.0 18.50 18.860 19.320 19.080 17.960 48.300 37.250 7.388 4.124 8.700 9.070 9.260 9.030 0.286 0.197 0.271 0.262     305.700 0.00 1 1 18.720 19.210 19.800 18.410 19.460 8.270 6.541 1.0780 18.300 18.480 18.840 17.590 18.720 6.680 2.251 0.6590 125.90 16.51 20 0                             21.296 10.288 11.010 22.081 8.203 13.856
UPLMET_235 2015-09-29 08:30:00 235 12631.0 18.16 18.440 18.820 18.710 17.550 46.600 42.070 6.552 5.570 8.710 9.070 9.260 9.030 0.286 0.197 0.271 0.262     305.500 0.00 1 1 18.300 18.500 18.860 17.660 18.750 7.944 6.326 0.8110 17.950 18.320 18.760 17.370 18.660 5.947 4.719 0.2580 147.10 6.85 20 0                             20.846 9.714 11.132 21.577 9.076 12.500
UPLMET_235 2015-09-29 08:25:00 235 12631.0 17.58 18.040 18.530 18.510 17.410 48.820 40.220 6.682 4.750 8.710 9.070 9.260 9.030 0.286 0.197 0.271 0.262     305.400 0.00 1 1 17.910 18.300 18.750 17.530 18.670 8.880 5.418 0.7930 17.170 17.680 18.230 17.260 18.290 5.821 3.545 0.1850 140.20 12.96 20 0                             20.099 9.801 10.287 21.309 8.572 12.738
UPLMET_235 2015-09-29 08:20:00 235 12631.0 16.86 17.340 17.900 18.110 17.010 51.610 41.450 6.818 4.808 8.720 9.070 9.260 9.030 0.286 0.197 0.271 0.262     305.500 0.00 1 1 17.130 17.630 18.180 17.340 18.270 8.910 5.788 0.5080 16.690 17.220 17.700 16.830 17.880 4.801 3.612 0.0980 172.80 8.26 20 0                             19.204 9.893 9.293 20.781 8.606 12.167
UPLMET_235 2015-09-29 08:15:00 235 12631.0 16.57 17.140 17.700 17.660 16.700 51.090 42.230 6.416 4.674 8.720 9.070 9.260 9.030 0.286 0.197 0.271 0.262     305.600 0.00 1 1 16.680 17.240 17.720 16.930 17.850 8.700 5.677 0.3920 16.280 17.040 17.680 16.580 17.520 4.566 3.328 0.0740 189.00 6.85 20 0                             18.854 9.623 9.221 20.201 8.526 11.670
UPLMET_235 2015-09-29 08:10:00 235 12631.0 15.89 16.600 17.350 17.320 16.770 53.470 40.740 6.443 3.848 8.730 9.070 9.260 9.030 0.286 0.197 0.271 0.262     305.500 0.00 1 1 16.250 16.980 17.660 17.030 17.530 7.909 5.429 0.7840 15.660 16.240 16.910 16.630 17.020 4.888 2.936 0.4210 202.60 6.59 20 0                             18.054 9.641 8.400 19.772 8.046 11.717
UPLMET_235 2015-09-29 08:05:00 235 12631.0 15.52 16.030 16.520 16.780 16.250 55.780 43.670 6.710 4.320 8.740 9.070 9.260 9.030 0.286 0.197 0.271 0.262     305.500 0.00 1 1 15.650 16.200 16.840 16.540 17.010 8.300 5.913 0.7840 15.390 15.900 16.310 15.860 16.560 4.280 1.600 0.4240 202.10 24.76 20 0                             17.631 9.820 7.797 19.107 8.317 10.763
UPLMET_235 2015-09-29 08:00:00 235 12631.0 15.34 15.910 16.280 16.470 16.020 56.090 45.200 6.648 4.574 8.740 9.080 9.260 9.030 0.286 0.197 0.271 0.262     305.400 0.00 1 1 15.400 15.960 16.340 16.170 16.580 7.160 5.285 0.4010 15.260 15.830 16.210 15.820 16.360 6.118 3.678 0.1190 218.90 8.07 20 0                             17.429 9.778 7.653 18.734 8.467 10.266
UPLMET_235 2015-09-29 07:55:00 235 12631.0 15.19 15.880 16.290 16.400 15.900 53.570 42.590 5.817 3.644 8.750 9.080 9.260 9.030 0.286 0.197 0.271 0.262     305.800 0.00 1 1 15.270 15.990 16.400 16.210 16.480 6.616 5.167 1.0600 15.030 15.820 16.210 15.650 16.320 3.550 2.052 0.4160 206.50 10.42 20 0                             17.262 9.233 8.015 18.651 7.931 10.707
UPLMET_235 2015-09-29 07:50:00 235 12631.0 14.97 15.670 16.170 16.280 15.910 56.460 43.950 6.388 3.970 8.750 9.080 9.260 9.030 0.286 0.197 0.271 0.262     305.800 0.00 1 1 15.020 15.790 16.260 16.200 16.340 7.169 5.718 0.9800 14.910 15.580 16.070 15.750 16.250 4.735 1.995 0.4490 205.50 14.51 20 0                             17.019 9.605 7.410 18.509 8.115 10.374
UPLMET_235 2015-09-29 07:45:00 235 12631.0 14.76 15.460 15.900 16.170 15.760 53.300 40.750 5.356 2.794 8.760 9.080 9.270 9.030 0.286 0.197 0.271 0.262     305.700 0.00 1 1 14.890 15.620 16.050 16.230 16.240 6.495 4.312 1.1760 14.670 15.340 15.810 15.500 16.110 3.765 0.808 0.2850 219.60 19.93 20 0                             16.790 8.942 7.841 18.379 7.467 10.890
UPLMET_235 2015-09-29 07:40:00 235 12631.0 14.51 15.320 15.700 15.890 15.580 56.720 43.890 6.024 3.607 8.760 9.080 9.270 9.030 0.286 0.197 0.271 0.262     305.900 0.00 1 1 14.660 15.450 15.830 15.850 16.100 6.672 5.299 1.0330 14.400 15.170 15.570 15.190 15.710 4.969 2.053 0.3980 197.20 16.22 20 0                             16.521 9.366 7.150 18.054 7.910 10.130
UPLMET_235 2015-09-29 07:35:00 235 12631.0 14.32 15.060 15.610 15.720 15.240 58.080 47.170 6.199 4.495 8.770 9.080 9.270 9.030 0.286 0.197 0.271 0.262     305.500 0.00 1 1 14.410 15.150 15.650 15.410 15.750 6.972 5.435 0.8820 14.190 14.870 15.560 15.090 15.690 5.343 3.684 0.3300 191.80 19.68 20 0                             16.320 9.480 6.841 17.859 8.420 9.435
UPLMET_235 2015-09-29 07:30:00 235 12631.0 14.06 14.730 15.380 15.510 15.180 57.070 45.600 5.701 3.820 8.770 9.080 9.270 9.030 0.286 0.197 0.271 0.262     305.600 0.00 1 1 14.180 14.850 15.570 15.460 15.690 6.262 4.617 0.9980 13.940 14.620 15.160 14.870 15.350 4.578 2.668 0.4680 189.50 7.22 20 0                             16.047 9.159 6.889 17.620 8.030 9.585
UPLMET_235 2015-09-29 07:25:00 235 12631.0 13.85 14.510 15.020 15.170 14.720 54.200 45.250 4.757 3.373 8.780 9.080 9.270 9.030 0.286 0.197 0.271 0.262     305.500 0.00 1 1 13.950 14.630 15.150 15.070 15.330 5.397 4.773 0.6860 13.750 14.410 14.950 14.510 15.090 3.932 1.535 0.2030 180.30 6.61 20 0                             15.830 8.576 7.250 17.239 7.780 9.439
UPLMET_235 2015-09-29 07:20:00 235 12631.0 13.65 14.430 15.040 15.090 14.550 56.120 46.410 5.078 3.694 8.780 9.090 9.270 9.030 0.286 0.197 0.271 0.262     305.500 0.00 1 1 13.760 14.470 15.110 14.680 15.110 5.373 3.958 1.1580 13.580 14.350 14.970 14.420 15.060 4.771 3.378 0.5170 206.60 18.85 20 0                             15.625 8.770 6.856 17.151 7.959 9.191
UPLMET_235 2015-09-29 07:15:00 235 12631.0 13.63 14.360 15.170 15.150 14.510 56.620 45.910 5.187 3.594 8.790 9.090 9.270 9.030 0.286 0.197 0.271 0.262     305.600 0.00 1 1 13.670 14.380 15.200 14.700 15.190 5.647 4.099 0.8820 13.590 14.320 15.120 14.420 15.100 4.902 3.111 0.4660 215.40 9.17 20 0                             15.605 8.837 6.769 17.217 7.903 9.313
UPLMET_235 2015-09-29 07:10:00 235 12631.0 13.58 14.260 14.930 15.100 14.590 55.730 45.570 4.916 3.443 8.790 9.090 9.270 9.030 0.286 0.197 0.271 0.262     305.400 0.00 1 1 13.670 14.330 15.140 14.780 15.240 5.242 3.982 1.1140 13.510 14.130 14.660 14.340 14.900 4.537 2.301 0.6670 210.50 8.55 20 0                             15.554 8.672 6.886 17.162 7.819 9.341
UPLMET_235 2015-09-29 07:05:00 235 12631.0 13.46 14.160 14.610 14.690 14.350 56.610 47.040 5.024 3.519 8.800 9.090 9.270 9.030 0.286 0.197 0.271 0.262     305.500 0.00 1 1 13.570 14.280 14.740 14.660 14.900 6.076 3.973 1.2380 13.300 14.030 14.480 14.090 14.480 4.474 2.059 0.8650 213.80 16.71 20 0                             15.433 8.737 6.696 16.715 7.861 8.852
UPLMET_235 2015-09-29 07:00:00 235 12631.0 13.01 13.810 14.290 14.370 14.070 58.720 48.570 5.119 3.675 8.800 9.090 9.270 9.030 0.286 0.197 0.271 0.262     305.500 0.00 1 1 13.290 13.990 14.460 14.370 14.500 5.847 4.165 0.9000 12.780 13.610 14.070 13.790 14.230 4.397 3.050 0.5820 202.10 11.23 20 0                             14.986 8.795 6.186 16.372 7.948 8.420
UPLMET_235 2015-09-29 06:55:00 235 12631.0 12.61 13.440 13.930 14.090 13.760 61.610 49.820 5.443 3.780 8.810 9.090 9.270 9.030 0.286 0.197 0.271 0.262     305.500 0.00 1 1 12.770 13.600 14.060 13.950 14.240 5.711 4.128 0.6860 12.470 13.310 13.830 13.630 13.940 5.171 3.245 0.5620 225.50 2.08 20 0                             14.599 8.996 5.604 16.078 8.007 8.068
UPLMET_235 2015-09-29 06:50:00 235 12631.0 12.30 13.100 13.630 13.750 13.480 61.510 49.990 5.126 3.519 8.810 9.090 9.270 9.030 0.286 0.197 0.271 0.262     305.500 0.00 1 1 12.460 13.290 13.810 13.700 13.900 5.440 3.962 0.6950 12.220 12.940 13.480 13.230 13.590 4.909 2.981 0.4760 234.20 11.56 20 0                             14.304 8.800 5.506 15.727 7.861 7.865
UPLMET_235 2015-09-29 06:45:00 235 12631.0 12.15 12.870 13.380 13.450 13.240 60.680 49.910 4.791 3.219 8.820 9.090 9.270 9.030 0.286 0.197 0.271 0.262     305.500 0.00 1 1 12.220 12.930 13.470 13.280 13.610 4.960 3.657 0.9180 12.040 12.730 13.220 13.150 13.230 4.502 2.713 0.4530 244.30 1.51 20 0                             14.164 8.596 5.569 15.423 7.696 7.725
UPLMET_235 2015-09-29 06:40:00 235 12631.0 11.94 12.530 13.010 13.110 12.810 60.410 51.180 4.531 3.264 8.820 9.090 9.270 9.030 0.286 0.197 0.271 0.262     305.400 0.00 1 1 12.030 12.680 13.170 13.050 13.230 4.726 3.473 0.8110 11.860 12.400 12.910 12.650 13.030 4.367 2.927 0.6390 236.70 0.96 20 0                             13.969 8.441 5.530 15.085 7.720 7.364
UPLMET_235 2015-09-29 06:35:00 235 12631.0 11.87 12.380 12.860 12.990 12.530 59.430 50.760 4.225 3.037 8.830 9.090 9.270 9.030 0.286 0.197 0.271 0.262     305.500 0.00 1 1 11.890 12.410 12.900 12.620 13.050 4.444 3.294 0.7840 11.840 12.350 12.830 12.490 12.960 3.958 2.623 0.6080 233.50 3.00 20 0                             13.905 8.262 5.641 14.967 7.597 7.370
UPLMET_235 2015-09-29 06:30:00 235 12631.0 11.90 12.450 12.900 13.100 12.510 58.370 49.240 4.002 2.704 8.830 9.100 9.270 9.030 0.286 0.197 0.271 0.262     305.400 0.00 1 1 11.940 12.530 13.000 12.590 13.220 4.304 2.992 0.6860 11.850 12.390 12.830 12.440 13.000 3.803 2.416 0.5060 229.50 0.74 20 0                             13.932 8.133 5.800 15.075 7.420 7.652
UPLMET_235 2015-09-29 06:25:00 235 12631.0 11.90 12.560 13.080 13.300 12.700 56.880 47.230 3.635 2.299 8.840 9.100 9.270 9.030 0.286 0.197 0.271 0.262     305.400 0.00 1 1 11.960 12.590 13.140 12.770 13.330 3.859 2.737 0.6950 11.880 12.540 13.010 12.590 13.250 3.278 1.739 0.5350 223.60 8.14 20 0                             13.932 7.926 6.008 15.273 7.209 8.059
UPLMET_235 2015-09-29 06:20:00 235 12631.0 11.94 12.700 13.230 13.410 12.890 55.050 45.030 3.204 1.736 8.840 9.100 9.270 9.030 0.286 0.197 0.271 0.262     305.400 0.00 1 1 12.010 12.770 13.280 13.020 13.440 3.608 1.984 0.9180 11.840 12.570 13.140 12.710 13.350 2.827 1.489 0.7050 231.00 6.48 20 0                             13.969 7.688 6.279 15.383 6.924 8.456
UPLMET_235 2015-09-29 06:15:00 235 12631.0 11.67 12.590 13.220 13.390 12.910 56.120 44.800 3.224 1.648 8.850 9.100 9.270 9.030 0.286 0.197 0.271 0.262     305.400 0.00 1 1 11.840 12.730 13.280 13.100 13.430 3.723 2.012 1.0960 11.590 12.490 13.170 12.720 13.340 2.731 1.357 0.8290 234.40 8.97 20 0                             13.722 7.699 6.021 15.363 6.880 8.480
UPLMET_235 2015-09-29 06:10:00 235 12631.0 11.70 12.570 13.200 13.290 12.930 56.160 44.760 3.260 1.547 8.850 9.100 9.270 9.030 0.286 0.197 0.271 0.262     305.600 0.00 1 1 11.760 12.620 13.260 13.060 13.370 3.564 1.754 1.0690 11.640 12.520 13.130 12.740 13.160 2.829 1.374 0.8030 236.40 10.67 20 0                             13.749 7.718 6.028 15.263 6.831 8.431
UPLMET_235 2015-09-29 06:05:00 235 12631.0 11.53 12.380 12.980 13.110 12.700 56.200 45.540 3.112 1.617 8.860 9.100 9.270 9.030 0.286 0.197 0.271 0.262     305.500 0.00 1 1 11.660 12.490 13.110 12.930 13.160 3.522 2.020 1.1760 11.400 12.300 12.930 12.580 13.060 2.642 1.267 0.7570 233.70 5.12 20 0                             13.596 7.638 5.955 15.085 6.865 8.215
UPLMET_235 2015-09-29 06:00:00 235 12631.0 11.31 12.250 12.890 12.950 12.610 57.360 45.840 3.199 1.570 8.860 9.100 9.270 9.030 0.286 0.197 0.271 0.262     305.500 0.00 1 1 11.400 12.320 12.980 12.750 13.080 3.568 1.794 1.1760 11.220 12.150 12.750 12.490 12.860 2.705 1.268 0.7900 237.80 3.81 20 0                             13.399 7.685 5.713 14.928 6.842 8.085
UPLMET_235 2015-09-29 05:55:00 235 12631.0 11.20 12.060 12.650 12.770 12.370 58.430 47.060 3.353 1.767 8.870 9.100 9.270 9.030 0.286 0.197 0.271 0.262     305.500 0.00 1 1 11.240 12.130 12.730 12.490 12.830 3.648 2.130 1.1760 11.160 12.000 12.580 12.220 12.720 2.968 1.508 0.8580 243.20 2.60 20 0                             13.302 7.769 5.529 14.753 6.939 7.810
UPLMET_235 2015-09-29 05:50:00 235 12631.0 11.12 12.110 12.650 12.790 12.350 58.600 47.390 3.320 1.888 8.870 9.100 9.270 9.030 0.286 0.197 0.271 0.262     305.400 0.00 1 1 11.190 12.170 12.720 12.440 12.830 3.782 2.118 0.9620 11.040 12.070 12.600 12.230 12.770 3.130 1.751 0.7890 247.30 0.82 20 0                             13.231 7.751 5.478 14.772 7.000 7.772
UPLMET_235 2015-09-29 05:45:00 235 12631.0 11.08 12.140 12.700 12.830 12.390 59.800 47.130 3.569 1.841 8.880 9.100 9.270 9.030 0.286 0.197 0.271 0.262     305.500 0.00 1 1 11.170 12.180 12.730 12.450 12.840 3.803 1.974 1.1140 11.000 12.120 12.670 12.330 12.810 3.279 1.711 0.8780 252.30 0.73 20 0                             13.196 7.889 5.305 14.811 6.976 7.830
UPLMET_235 2015-09-29 05:40:00 235 12631.0 11.18 12.020 12.630 12.860 12.340 59.430 47.580 3.578 2.004 8.880 9.100 9.270 9.030 0.286 0.197 0.271 0.262     305.400 0.00 1 1 11.260 12.140 12.700 12.410 12.880 4.098 2.173 1.1580 11.140 11.940 12.580 12.260 12.830 3.120 1.745 0.8950 251.60 1.55 20 0                             13.284 7.894 5.389 14.840 7.058 7.779
UPLMET_235 2015-09-29 05:35:00 235 12631.0 11.44 12.130 12.720 12.980 12.310 58.670 47.340 3.637 2.039 8.890 9.100 9.270 9.030 0.286 0.197 0.271 0.262     305.400 0.00 1 1 11.550 12.320 12.920 12.500 13.130 4.006 2.312 1.2650 11.250 11.950 12.590 12.200 12.860 3.076 1.616 0.9770 250.80 3.48 20 0                             13.515 7.927 5.586 14.957 7.076 7.876
UPLMET_235 2015-09-29 05:30:00 235 12631.0 11.49 12.460 13.030 13.160 12.740 57.350 46.180 3.365 1.861 8.890 9.110 9.270 9.030 0.286 0.197 0.271 0.262     305.400 0.00 1 1 11.540 12.560 13.110 12.950 13.210 3.739 2.125 0.9090 11.410 12.330 12.920 12.520 13.090 2.935 1.136 0.6180 223.80 18.68 20 0                             13.560 7.776 5.783 15.134 6.986 8.145
UPLMET_235 2015-09-29 05:25:00 235 12631.0 11.45 12.330 12.950 13.130 12.610 58.410 47.030 3.583 2.086 8.900 9.110 9.270 9.030 0.286 0.197 0.271 0.262     305.400 0.00 1 1 11.480 12.390 13.030 12.770 13.170 3.989 2.392 1.0600 11.410 12.290 12.910 12.510 13.080 3.037 1.562 0.7250 235.30 14.95 20 0                             13.524 7.897 5.625 15.104 7.100 8.001
UPLMET_235 2015-09-29 05:20:00 235 12631.0 11.47 12.360 13.000 13.140 12.750 58.100 46.140 3.524 1.832 8.900 9.110 9.280 9.030 0.286 0.197 0.271 0.262     305.400 0.00 1 1 11.510 12.430 13.050 12.970 13.200 4.042 2.082 1.3190 11.400 12.250 12.850 12.530 13.030 2.903 1.292 0.8960 230.00 24.06 20 0                             13.542 7.864 5.674 15.114 6.972 8.140
UPLMET_235 2015-09-29 05:15:00 235 12631.0 11.69 12.390 12.950 13.150 12.570 58.330 47.320 3.792 2.188 8.910 9.110 9.280 9.030 0.286 0.197 0.271 0.262     305.400 0.00 1 1 11.790 12.610 13.130 12.900 13.250 4.277 2.497 1.3720 11.480 12.200 12.820 12.390 13.030 3.195 1.663 0.7740 234.60 14.02 20 0                             13.740 8.014 5.726 15.124 7.152 7.967
UPLMET_235 2015-09-29 05:10:00 235 12631.0 11.60 12.480 13.040 13.160 12.830 56.770 46.470 3.318 1.952 8.910 9.110 9.280 9.030 0.286 0.197 0.271 0.262     305.400 0.00 1 1 11.790 12.640 13.150 13.020 13.240 4.103 2.284 1.0780 11.480 12.320 12.930 12.620 13.120 2.757 1.664 0.5600 224.50 12.21 20 0                             13.659 7.750 5.905 15.134 7.032 8.101
UPLMET_235 2015-09-29 05:05:00 235 12631.0 11.61 12.330 12.950 13.190 12.580 58.850 47.160 3.836 2.186 8.920 9.110 9.280 9.030 0.286 0.197 0.271 0.262     305.500 0.00 1 1 11.720 12.470 13.080 12.720 13.310 4.339 2.749 1.1310 11.490 12.220 12.860 12.430 13.130 3.096 1.594 0.6230 239.10 8.66 20 0                             13.668 8.039 5.624 15.164 7.151 8.012
UPLMET_235 2015-09-29 05:00:00 235 12631.0 11.66 12.470 13.080 13.250 12.760 58.850 47.480 3.885 2.329 8.920 9.110 9.280 9.030 0.286 0.197 0.271 0.262     305.500 0.00 1 1 11.710 12.590 13.170 12.980 13.330 4.440 2.691 1.1760 11.610 12.330 12.960 12.540 13.180 3.463 1.804 0.8720 222.60 24.43 20 0                             13.713 8.067 5.643 15.223 7.224 7.995
UPLMET_235 2015-09-29 04:55:00 235 12631.0 11.68 12.650 13.260 13.380 12.890 58.940 47.090 3.929 2.340 8.930 9.110 9.280 9.030 0.286 0.197 0.271 0.262     305.500 0.00 1 1 11.720 12.740 13.340 13.050 13.420 4.274 2.622 1.1140 11.630 12.510 13.130 12.710 13.340 3.429 2.079 0.7770 239.50 6.37 20 0                             13.731 8.092 5.638 15.353 7.230 8.123
UPLMET_235 2015-09-29 04:50:00 235 12631.0 11.68 12.680 13.280 13.360 13.010 59.020 47.720 3.954 2.505 8.930 9.110 9.280 9.030 0.286 0.197 0.271 0.262     305.500 0.00 1 1 11.730 12.790 13.380 13.190 13.420 4.363 2.813 1.3900 11.620 12.480 13.130 12.850 13.260 3.374 2.255 0.9800 244.80 11.79 20 0                             13.731 8.106 5.627 15.333 7.315 8.016
UPLMET_235 2015-09-29 04:45:00 235 12631.0 11.61 12.460 13.080 13.280 12.760 60.340 48.680 4.198 2.707 8.940 9.110 9.280 9.030 0.286 0.197 0.271 0.262     305.500 0.00 1 1 11.670 12.530 13.130 12.890 13.300 4.646 3.141 1.3630 11.560 12.350 13.040 12.680 13.260 3.597 2.347 0.8760 236.10 12.47 20 0                             13.668 8.246 5.421 15.253 7.421 7.828
UPLMET_235 2015-09-29 04:40:00 235 12631.0 11.56 12.570 13.220 13.350 12.880 60.320 48.220 4.150 2.644 8.940 9.110 9.280 9.030 0.286 0.197 0.271 0.262     305.400 0.00 1 1 11.640 12.700 13.330 13.120 13.400 4.586 3.061 1.1310 11.430 12.410 13.090 12.680 13.260 3.735 2.415 0.7430 236.60 12.93 20 0                             13.623 8.218 5.406 15.323 7.388 7.934
UPLMET_235 2015-09-29 04:35:00 235 12631.0 11.43 12.370 13.010 13.080 12.740 61.020 49.000 4.187 2.613 8.950 9.110 9.280 9.030 0.286 0.197 0.271 0.262     305.400 0.00 1 1 11.480 12.600 13.280 13.060 13.240 4.592 3.119 2.4500 11.390 12.200 12.820 12.460 12.990 3.677 1.441 1.0860 247.20 8.08 20 0                             13.506 8.240 5.265 15.055 7.372 7.678
UPLMET_235 2015-09-29 04:30:00 235 12631.0 11.43 12.370 12.960 13.100 12.580 61.430 50.260 4.288 2.993 8.950 9.110 9.280 9.030 0.286 0.197 0.271 0.262     305.400 0.00 1 1 11.480 12.450 13.040 12.710 13.140 4.657 3.202 1.1760 11.400 12.310 12.870 12.470 13.030 3.937 2.699 0.8210 253.60 4.07 20 0                             13.506 8.299 5.209 15.075 7.574 7.498
UPLMET_235 2015-09-29 04:25:00 235 12631.0 11.42 12.390 12.970 13.090 12.650 61.800 50.440 4.364 3.036 8.960 9.110 9.280 9.030 0.286 0.197 0.271 0.262     305.500 0.00 1 1 11.490 12.480 13.020 12.730 13.140 4.748 3.366 1.1760 11.370 12.280 12.880 12.530 13.050 4.062 2.677 0.9300 255.50 8.00 20 0                             13.497 8.343 5.156 15.065 7.597 7.466
UPLMET_235 2015-09-29 04:20:00 235 12631.0 11.70 12.470 13.010 13.190 12.710 61.080 50.090 4.454 3.029 8.960 9.110 9.280 9.030 0.286 0.197 0.271 0.262     305.500 0.00 1 1 11.810 12.730 13.230 13.250 13.300 4.846 3.281 1.5590 11.530 12.300 12.860 12.420 13.060 3.965 2.667 0.9680 253.10 12.73 20 0                             13.749 8.396 5.351 15.164 7.593 7.568
UPLMET_235 2015-09-29 04:15:00 235 12631.0 11.54 12.420 12.910 13.030 12.760 60.780 50.470 4.231 2.987 8.970 9.110 9.280 9.030 0.286 0.197 0.271 0.262     305.400 0.00 1 1 11.690 12.600 13.100 13.080 13.210 4.526 3.239 0.9350 11.430 12.270 12.800 12.470 12.940 3.973 2.740 0.6750 214.30 21.98 20 0                             13.605 8.265 5.336 15.006 7.570 7.432
UPLMET_235 2015-09-29 04:10:00 235 12631.0 11.44 12.190 12.700 12.910 12.460 61.890 51.030 4.401 3.036 8.970 9.110 9.280 9.030 0.286 0.197 0.271 0.262     305.500 0.00 1 1 11.460 12.280 12.790 12.660 12.940 4.751 3.201 0.9710 11.420 12.120 12.660 12.320 12.890 4.094 2.811 0.7600 239.80 12.90 20 0                             13.515 8.365 5.151 14.889 7.597 7.291
UPLMET_235 2015-09-29 04:05:00 235 12631.0 11.50 12.260 12.830 13.120 12.370 62.030 50.140 4.487 2.981 8.980 9.110 9.280 9.030 0.286 0.197 0.271 0.262     305.400 0.00 1 1 11.530 12.430 13.020 12.660 13.300 4.616 3.154 0.5880 11.450 12.110 12.680 12.220 12.970 4.250 2.749 0.2780 226.90 13.26 20 0                             13.569 8.415 5.152 15.094 7.567 7.526
UPLMET_235 2015-09-29 04:00:00 235 12631.0 11.43 12.430 13.120 13.390 12.700 61.760 48.920 4.364 2.886 8.980 9.110 9.280 9.030 0.286 0.197 0.271 0.262     305.500 0.00 1 1 11.510 12.530 13.270 12.890 13.500 4.623 3.136 0.8730 11.370 12.360 13.030 12.570 13.300 4.025 2.489 0.5850 244.00 1.65 20 0                             13.506 8.343 5.165 15.363 7.516 7.847
UPLMET_235 2015-09-29 03:55:00 235 12631.0 11.48 12.620 13.240 13.380 12.950 60.730 47.670 4.165 2.510 8.990 9.110 9.280 9.030 0.286 0.197 0.271 0.262     305.400 0.00 1 1 11.490 12.660 13.310 13.080 13.430 4.466 2.702 0.8820 11.450 12.420 13.060 12.650 13.320 3.877 2.274 0.5820 236.90 3.97 20 0                             13.551 8.227 5.321 15.353 7.318 8.034
UPLMET_235 2015-09-29 03:50:00 235 12631.0 11.50 12.430 13.110 13.380 12.710 61.110 48.300 4.277 2.697 8.990 9.110 9.280 9.030 0.286 0.197 0.271 0.262     305.500 0.00 1 1 11.580 12.480 13.210 12.820 13.430 4.552 2.854 0.8820 11.460 12.380 13.020 12.540 13.330 3.937 2.482 0.5370 249.90 1.23 20 0                             13.569 8.292 5.277 15.353 7.416 7.937
UPLMET_235 2015-09-29 03:45:00 235 12631.0 11.82 12.610 13.270 13.480 12.830 60.170 47.660 4.351 2.594 8.990 9.110 9.280 9.030 0.286 0.197 0.271 0.262     305.600 0.00 1 1 11.960 12.810 13.420 13.080 13.570 4.691 2.792 1.4170 11.600 12.450 13.190 12.700 13.430 3.947 2.361 0.8690 240.00 15.06 20 0                             13.859 8.335 5.520 15.453 7.362 8.088
UPLMET_235 2015-09-29 03:40:00 235 12631.0 11.91 12.800 13.430 13.580 13.100 58.020 46.700 3.920 2.405 9.000 9.110 9.280 9.030 0.286 0.197 0.271 0.262     305.500 0.00 1 1 11.940 12.870 13.490 13.220 13.630 4.106 2.619 1.0780 11.880 12.750 13.370 13.010 13.550 3.619 2.175 0.7740 243.60 4.88 20 0                             13.941 8.087 5.853 15.554 7.263 8.290
UPLMET_235 2015-09-29 03:35:00 235 12631.0 11.87 12.840 13.440 13.590 13.070 58.810 46.740 4.075 2.427 9.000 9.110 9.280 9.030 0.286 0.197 0.271 0.262     305.400 0.00 1 1 11.910 13.030 13.580 13.270 13.660 4.570 2.742 1.4970 11.770 12.730 13.360 12.850 13.540 3.797 1.977 0.8660 258.10 9.64 20 0                             13.905 8.175 5.727 15.564 7.275 8.290
UPLMET_235 2015-09-29 03:30:00 235 12631.0 11.67 12.800 13.390 13.500 13.080 59.080 47.570 3.950 2.593 9.010 9.110 9.280 9.030 0.286 0.197 0.271 0.262     305.600 0.00 1 1 11.740 12.950 13.500 13.150 13.550 4.262 3.004 1.1050 11.570 12.600 13.240 12.920 13.460 3.600 2.361 0.9080 251.40 5.37 20 0                             13.722 8.104 5.615 15.473 7.361 8.113
UPLMET_235 2015-09-29 03:25:00 235 12631.0 11.54 12.630 13.310 13.490 12.990 58.380 46.470 3.662 2.249 9.010 9.110 9.290 9.030 0.286 0.197 0.271 0.262     305.400 0.00 1 1 11.610 12.750 13.390 13.260 13.550 4.450 2.635 1.3720 11.470 12.530 13.210 12.760 13.360 2.916 1.717 0.7590 238.50 15.02 20 0                             13.605 7.941 5.662 15.463 7.183 8.277
UPLMET_235 2015-09-29 03:20:00 235 12631.0 11.45 12.460 13.120 13.280 12.810 60.140 47.540 3.996 2.371 9.020 9.110 9.290 9.030 0.286 0.197 0.271 0.262     305.500 0.00 1 1 11.490 12.560 13.290 13.060 13.350 4.465 2.865 1.0330 11.410 12.380 13.060 12.710 13.240 3.320 1.473 0.7510 246.40 11.29 20 0                             13.524 8.130 5.391 15.253 7.246 8.002
UPLMET_235 2015-09-29 03:15:00 235 12631.0 11.62 12.490 13.110 13.370 12.730 60.390 48.620 4.216 2.779 9.020 9.110 9.290 9.030 0.286 0.197 0.271 0.262     305.400 0.00 1 1 11.790 12.780 13.330 13.200 13.450 4.663 3.191 1.2650 11.460 12.290 12.950 12.470 13.260 3.710 2.231 0.8500 246.30 4.55 20 0                             13.677 8.257 5.417 15.343 7.459 7.883
UPLMET_235 2015-09-29 03:10:00 235 12631.0 11.68 12.540 13.120 13.210 12.880 58.000 47.470 3.697 2.289 9.020 9.110 9.290 9.030 0.286 0.197 0.271 0.262     305.500 0.00 1 1 11.750 12.780 13.330 13.190 13.360 4.327 2.851 1.2830 11.610 12.400 12.980 12.630 13.140 3.057 1.899 0.8480 235.90 10.56 20 0                             13.731 7.960 5.767 15.183 7.203 7.976
UPLMET_235 2015-09-29 03:05:00 235 12631.0 11.65 12.360 12.930 13.110 12.640 58.690 48.280 3.843 2.438 9.030 9.110 9.290 9.030 0.286 0.197 0.271 0.262     305.500 0.00 1 1 11.810 12.510 13.050 12.870 13.170 4.285 2.834 1.1760 11.590 12.280 12.860 12.460 13.060 3.485 2.116 0.7250 218.70 14.68 20 0                             13.704 8.043 5.661 15.085 7.280 7.802
UPLMET_235 2015-09-29 03:00:00 235 12631.0 11.76 12.510 13.020 13.230 12.690 57.960 48.070 3.772 2.490 9.030 9.110 9.290 9.030 0.286 0.197 0.271 0.262     305.400 0.00 1 1 11.830 12.590 13.060 12.900 13.330 4.086 2.945 1.1940 11.670 12.440 12.950 12.600 13.170 3.565 2.114 0.7760 218.80 16.53 20 0                             13.804 8.003 5.803 15.203 7.307 7.895
UPLMET_235 2015-09-29 02:55:00 235 12631.0 11.63 12.580 13.200 13.430 12.810 57.510 46.330 3.531 2.153 9.040 9.110 9.290 9.030 0.286 0.197 0.271 0.262     305.400 0.00 1 1 11.680 12.740 13.390 13.160 13.540 3.839 2.648 1.0780 11.570 12.510 13.080 12.600 13.330 3.156 1.657 0.7340 227.90 28.25 20 0                             13.686 7.868 5.815 15.403 7.134 8.267
UPLMET_235 2015-09-29 02:50:00 235 12631.0 11.61 12.660 13.320 13.450 12.960 57.770 45.560 3.575 1.936 9.040 9.110 9.290 9.030 0.286 0.197 0.271 0.262     305.400 0.00 1 1 11.650 12.750 13.380 13.140 13.490 4.157 2.457 1.2560 11.560 12.530 13.250 12.760 13.410 2.917 1.336 0.7940 242.60 11.62 20 0                             13.668 7.892 5.772 15.423 7.024 8.396
UPLMET_235 2015-09-29 02:45:00 235 12631.0 11.65 12.670 13.240 13.340 12.910 58.210 46.480 3.724 2.114 9.040 9.110 9.290 9.030 0.286 0.197 0.271 0.262     305.400 0.00 1 1 11.680 12.750 13.330 13.070 13.400 4.251 2.459 1.2650 11.620 12.570 13.160 12.740 13.290 3.259 1.722 0.9580 247.00 9.81 20 0                             13.704 7.976 5.727 15.313 7.114 8.195
UPLMET_235 2015-09-29 02:40:00 235 12631.0 11.56 12.540 13.120 13.230 12.850 57.950 46.730 3.575 2.086 9.050 9.110 9.290 9.030 0.286 0.197 0.271 0.262     305.400 0.00 1 1 11.650 12.700 13.270 13.050 13.340 4.008 2.461 1.1230 11.490 12.430 12.990 12.620 13.160 3.023 1.543 0.8210 245.60 8.17 20 0                             13.623 7.892 5.728 15.203 7.100 8.099
UPLMET_235 2015-09-29 02:35:00 235 12631.0 11.41 12.410 12.950 13.090 12.700 58.070 47.200 3.468 2.102 9.050 9.110 9.290 9.030 0.286 0.197 0.271 0.262     305.400 0.00 1 1 11.550 12.610 13.100 13.010 13.190 4.059 2.368 1.3270 11.310 12.160 12.700 12.290 13.000 3.047 1.900 0.8030 248.70 11.32 20 0                             13.488 7.833 5.656 15.065 7.108 7.954
UPLMET_235 2015-09-29 02:30:00 235 12631.0 11.56 12.340 12.900 13.210 12.490 59.010 47.740 3.836 2.371 9.060 9.110 9.290 9.030 0.286 0.197 0.271 0.262     305.500 0.00 1 1 11.790 12.580 13.100 12.770 13.370 4.141 2.587 1.3360 11.320 12.170 12.710 12.280 13.050 3.386 2.124 0.9960 254.10 7.61 20 0                             13.623 8.039 5.584 15.183 7.246 7.935
UPLMET_235 2015-09-29 02:25:00 235 12631.0 11.98 12.730 13.200 13.430 12.930 56.600 46.550 3.634 2.223 9.060 9.110 9.290 9.030 0.286 0.197 0.271 0.262     305.400 0.00 1 1 12.130 12.860 13.300 13.250 13.500 4.012 2.401 1.4700 11.830 12.580 13.100 12.720 13.390 3.306 1.965 0.9030 242.60 14.21 20 0                             14.006 7.925 6.079 15.403 7.170 8.233
UPLMET_235 2015-09-29 02:20:00 235 12631.0 11.92 12.720 13.110 13.280 13.150 55.040 46.140 3.188 1.959 9.060 9.110 9.290 9.030 0.286 0.197 0.271 0.262     305.400 0.00 1 1 12.080 12.830 13.270 13.270 13.440 3.525 2.127 0.9800 11.730 12.490 12.880 12.820 13.100 2.855 1.771 0.7920 211.50 17.16 20 0                             13.951 7.679 6.272 15.253 7.035 8.215
UPLMET_235 2015-09-29 02:15:00 235 12631.0 11.70 12.410 12.880 13.150 12.580 56.140 46.600 3.259 1.978 9.070 9.110 9.290 9.030 0.286 0.197 0.271 0.262     305.500 0.00 1 1 11.740 12.470 12.930 12.750 13.240 3.580 2.240 0.9890 11.640 12.350 12.830 12.440 13.070 2.854 1.418 0.7180 236.20 5.17 20 0                             13.749 7.718 6.031 15.124 7.045 8.076
UPLMET_235 2015-09-29 02:10:00 235 12631.0 11.69 12.450 13.020 13.240 12.610 56.170 45.460 3.259 1.711 9.070 9.110 9.290 9.030 0.286 0.197 0.271 0.262     305.500 0.00 1 1 11.840 12.600 13.130 12.790 13.290 3.576 1.958 1.0780 11.620 12.370 12.920 12.470 13.190 2.963 1.322 0.7210 242.90 13.14 20 0                             13.740 7.718 6.022 15.213 6.912 8.297
UPLMET_235 2015-09-29 02:05:00 235 12631.0 11.90 12.710 13.230 13.350 12.880 55.480 45.260 3.280 1.749 9.070 9.110 9.290 9.030 0.286 0.197 0.271 0.262     305.400 0.00 1 1 11.950 12.800 13.300 13.050 13.380 3.567 1.955 1.4700 11.860 12.570 13.110 12.600 13.270 2.919 1.475 0.8530 251.80 8.05 20 0                             13.932 7.729 6.203 15.323 6.930 8.388
UPLMET_235 2015-09-29 02:00:00 235 12631.0 11.78 12.620 13.200 13.350 12.870 54.620 44.410 2.950 1.491 9.080 9.110 9.290 9.030 0.286 0.197 0.271 0.262     305.500 0.00 1 1 11.850 12.700 13.270 13.010 13.410 3.605 1.864 0.9710 11.730 12.540 13.170 12.760 13.320 2.588 1.221 0.6630 234.90 9.02 20 0                             13.822 7.550 6.273 15.323 6.803 8.518
UPLMET_235 2015-09-29 01:55:00 235 12631.0 11.93 12.670 13.260 13.440 12.940 54.880 43.840 3.152 1.391 9.080 9.110 9.290 9.030 0.286 0.197 0.271 0.262     305.500 0.00 1 1 12.000 12.740 13.290 13.030 13.490 3.556 1.740 1.4700 11.830 12.610 13.220 12.840 13.400 2.728 1.072 0.9960 240.10 17.69 20 0                             13.960 7.659 6.299 15.413 6.754 8.656
UPLMET_235 2015-09-29 01:50:00 235 12631.0 11.99 12.730 13.290 13.480 13.060 54.500 43.970 3.108 1.470 9.080 9.110 9.290 9.030 0.286 0.197 0.271 0.262     305.400 0.00 1 1 12.020 12.770 13.310 13.180 13.520 3.225 1.704 1.0600 11.950 12.690 13.240 12.920 13.380 2.876 1.197 0.5430 230.70 12.43 20 0                             14.015 7.636 6.377 15.453 6.793 8.658
UPLMET_235 2015-09-29 01:45:00 235 12631.0 12.01 12.710 13.280 13.460 12.850 54.590 44.740 3.156 1.694 9.090 9.110 9.290 9.030 0.286 0.197 0.271 0.262     305.300 0.00 1 1 12.110 12.890 13.450 12.980 13.610 3.282 2.102 1.1760 11.960 12.630 13.190 12.730 13.360 2.923 1.302 0.8040 211.50 16.63 20 0                             14.034 7.662 6.373 15.433 6.903 8.528
UPLMET_235 2015-09-29 01:40:00 235 12631.0 12.06 12.950 13.550 13.670 13.220 52.500 42.940 2.647 1.307 9.090 9.110 9.290 9.030 0.286 0.197 0.271 0.262     305.500 0.00 1 1 12.170 13.020 13.600 13.350 13.690 3.038 1.616 0.6860 11.870 12.820 13.460 12.990 13.620 2.431 1.152 0.5740 233.10 4.42 20 0                             14.080 7.390 6.688 15.646 6.714 8.927
UPLMET_235 2015-09-29 01:35:00 235 12631.0 11.92 12.830 13.490 13.640 13.120 52.930 42.380 2.634 1.097 9.090 9.100 9.300 9.030 0.286 0.197 0.271 0.262     305.400 0.00 1 1 11.970 12.960 13.530 13.220 13.670 3.116 1.317 1.3720 11.840 12.730 13.440 13.010 13.610 2.211 0.827 0.8720 247.70 8.10 20 0                             13.951 7.383 6.567 15.615 6.613 8.997
UPLMET_235 2015-09-29 01:30:00 235 12631.0 11.99 12.890 13.510 13.710 13.130 51.510 40.810 2.311 0.640 9.100 9.100 9.300 9.030 0.286 0.197 0.271 0.262     305.400 0.00 1 1 12.070 13.030 13.620 13.290 13.800 2.963 1.080 1.6660 11.870 12.720 13.410 12.970 13.630 1.740 0.095 1.0070 241.70 14.50 20 0                             14.015 7.215 6.796 15.686 6.398 9.285
UPLMET_235 2015-09-29 01:25:00 235 12631.0 12.13 13.100 13.700 13.870 13.350 49.330 38.270 1.835 -0.105 9.100 9.100 9.300 9.030 0.286 0.197 0.271 0.262     305.400 0.00 1 1 12.260 13.290 13.830 13.620 13.900 2.219 0.324 0.9800 12.010 13.000 13.600 13.170 13.810 1.468 -0.485 0.6980 236.50 16.70 20 0                             14.145 6.973 7.167 15.850 6.061 9.784
UPLMET_235 2015-09-29 01:20:00 235 12631.0 12.10 13.050 13.590 13.710 13.410 47.670 37.630 1.333 -0.476 9.100 9.100 9.300 9.030 0.286 0.197 0.271 0.262     305.500 0.00 1 1 12.240 13.270 13.790 13.680 13.840 1.694 -0.196 0.7840 11.890 12.880 13.500 13.180 13.660 1.008 -0.885 0.5610 236.60 12.98 20 0                             14.117 6.726 7.388 15.686 5.899 9.784
UPLMET_235 2015-09-29 01:15:00 235 12631.0 11.93 12.750 13.450 13.660 13.070 49.710 38.270 1.757 -0.295 9.100 9.100 9.300 9.030 0.286 0.197 0.271 0.262     305.300 0.00 1 1 12.110 12.860 13.510 13.230 13.690 2.368 -0.061 0.8820 11.850 12.670 13.410 12.950 13.630 1.403 -0.450 0.7340 247.50 0.49 20 0                             13.960 6.934 7.020 15.635 5.978 9.652
UPLMET_235 2015-09-29 01:10:00 235 12631.0 12.24 12.930 13.490 13.630 13.190 48.200 38.270 1.611 -0.318 9.110 9.100 9.300 9.030 0.286 0.197 0.271 0.262     305.500 0.00 1 1 12.330 13.030 13.520 13.320 13.670 2.445 0.034 1.1050 12.130 12.700 13.450 13.050 13.600 0.872 -0.653 0.6510 232.00 7.98 20 0                             14.248 6.862 7.380 15.605 5.968 9.633
UPLMET_235 2015-09-29 01:05:00 235 12631.0 12.01 12.870 13.480 13.670 13.130 48.230 38.360 1.412 -0.251 9.110 9.100 9.300 9.030 0.286 0.197 0.271 0.262     305.500 0.00 1 1 12.100 12.920 13.510 13.210 13.710 1.680 0.038 0.6950 11.940 12.830 13.450 13.070 13.620 1.140 -0.623 0.5920 232.40 0.04 20 0                             14.034 6.765 7.265 15.646 5.997 9.644
UPLMET_235 2015-09-29 01:00:00 235 12631.0 12.12 12.880 13.480 13.630 13.130 48.290 37.900 1.527 -0.447 9.110 9.100 9.300 9.040 0.286 0.197 0.271 0.262     305.400 0.00 1 1 12.180 12.950 13.500 13.230 13.650 1.988 -0.246 0.6950 12.020 12.840 13.460 13.040 13.620 1.203 -0.685 0.5980 229.80 2.13 20 0                             14.136 6.821 7.310 15.605 5.912 9.691
UPLMET_235 2015-09-29 00:55:00 235 12631.0 11.94 12.850 13.440 13.580 13.230 48.040 37.860 1.288 -0.514 9.110 9.100 9.300 9.030 0.286 0.197 0.271 0.262     305.500 0.00 1 1 12.120 12.950 13.500 13.320 13.650 1.738 -0.253 0.6860 11.770 12.650 13.290 12.990 13.500 0.673 -0.955 0.5630 232.70 7.31 20 0                             13.969 6.705 7.258 15.554 5.883 9.665
UPLMET_235 2015-09-29 00:50:00 235 12631.0 11.79 12.670 13.240 13.450 13.010 50.070 38.620 1.729 -0.352 9.120 9.090 9.300 9.040 0.286 0.197 0.271 0.262     305.500 0.00 1 1 11.830 12.720 13.320 13.090 13.530 2.221 0.028 1.1400 11.750 12.620 13.160 12.890 13.380 1.031 -0.615 0.7060 240.00 2.86 20 0                             13.831 6.920 6.906 15.423 5.953 9.467
UPLMET_235 2015-09-29 00:45:00 235 12631.0 11.76 12.620 13.220 13.440 12.890 50.840 39.440 1.923 -0.070 9.120 9.090 9.300 9.030 0.286 0.197 0.271 0.262     305.500 0.00 1 1 11.820 12.660 13.280 13.050 13.480 2.334 0.169 1.2210 11.740 12.580 13.150 12.780 13.390 1.520 -0.300 0.6620 237.80 13.46 20 0                             13.804 7.017 6.786 15.413 6.077 9.334
UPLMET_235 2015-09-29 00:40:00 235 12631.0 11.83 12.670 13.200 13.450 12.880 51.310 39.980 2.116 0.116 9.120 9.090 9.300 9.030 0.286 0.197 0.271 0.262     305.400 0.00 1 1 11.890 12.720 13.290 13.110 13.530 2.561 0.437 1.2830 11.790 12.620 13.150 12.780 13.380 1.588 -0.551 0.6710 245.20 4.69 20 0                             13.868 7.115 6.752 15.423 6.160 9.257
UPLMET_235 2015-09-29 00:35:00 235 12631.0 11.92 12.840 13.430 13.600 13.100 50.810 40.030 2.054 0.274 9.120 9.090 9.300 9.040 0.286 0.197 0.271 0.262     305.300 0.00 1 1 11.970 12.950 13.490 13.360 13.660 2.798 0.549 1.3720 11.880 12.730 13.310 12.890 13.550 1.598 -0.038 0.7840 230.40 17.57 20 0                             13.951 7.083 6.862 15.574 6.231 9.340
UPLMET_235 2015-09-29 00:30:00 235 12631.0 11.94 12.960 13.580 13.700 13.270 50.010 38.640 1.855 -0.123 9.120 9.090 9.300 9.040 0.286 0.197 0.271 0.262     305.400 0.00 1 1 12.000 13.040 13.660 13.490 13.760 2.185 0.117 0.9620 11.780 12.860 13.480 13.020 13.600 1.490 -0.463 0.5780 244.70 8.70 20 0                             13.969 6.983 6.983 15.676 6.053 9.619
UPLMET_235 2015-09-29 00:25:00 235 12631.0 11.76 12.710 13.330 13.520 12.940 51.000 39.430 1.960 -0.009 9.130 9.090 9.300 9.040 0.286 0.197 0.271 0.262     305.500 0.00 1 1 11.800 12.820 13.500 13.310 13.590 2.227 0.255 1.3100 11.720 12.630 13.260 12.800 13.480 1.226 -0.525 1.0080 249.30 3.48 20 0                             13.804 7.036 6.764 15.494 6.104 9.384
UPLMET_235 2015-09-29 00:20:00 235 12631.0 11.77 12.830 13.430 13.530 13.130 51.070 39.580 1.986 0.059 9.130 9.090 9.300 9.030 0.286 0.197 0.271 0.262     305.500 0.00 1 1 11.800 12.880 13.470 13.250 13.590 2.562 0.251 1.1490 11.720 12.790 13.360 13.020 13.430 1.528 -0.120 0.8040 248.30 0.87 20 0                             13.813 7.049 6.759 15.504 6.134 9.367
UPLMET_235 2015-09-29 00:15:00 235 12631.0 11.75 12.630 13.170 13.320 12.980 51.290 40.140 2.032 0.057 9.130 9.090 9.300 9.030 0.286 0.197 0.271 0.262     305.400 0.00 1 1 11.800 12.770 13.340 13.150 13.410 2.482 0.340 1.0870 11.720 12.510 13.030 12.810 13.230 1.573 -0.269 0.7640 240.70 9.67 20 0                             13.795 7.072 6.720 15.293 6.133 9.154
UPLMET_235 2015-09-29 00:10:00 235 12631.0 11.76 12.540 13.040 13.260 12.790 52.330 41.580 2.327 0.495 9.130 9.080 9.300 9.040 0.286 0.197 0.271 0.262     305.400 0.00 1 1 11.820 12.560 13.050 12.840 13.290 2.589 0.833 0.7660 11.670 12.500 12.980 12.750 13.240 2.099 0.047 0.5920 226.80 4.99 20 0                             13.804 7.223 6.580 15.233 6.331 8.899
UPLMET_235 2015-09-29 00:05:00 235 12631.0 11.71 12.490 13.020 13.290 12.700 53.390 41.690 2.556 0.558 9.130 9.080 9.300 9.040 0.286 0.197 0.271 0.262     305.400 0.00 1 1 11.830 12.600 13.120 12.770 13.340 2.793 0.726 0.6590 11.640 12.450 12.970 12.610 13.240 2.167 0.376 0.4440 229.80 13.66 20 0                             13.759 7.342 6.413 15.263 6.360 8.900
UPLMET_235 2015-09-29 00:00:00 235 12631.0 11.89 12.680 13.190 13.340 12.940 51.270 41.130 2.157 0.418 9.130 9.080 9.300 9.040 0.286 0.197 0.271 0.262     305.400 0.00 1 1 11.950 12.740 13.250 13.090 13.380 2.734 0.688 0.7310 11.830 12.610 13.120 12.800 13.260 1.646 0.201 0.5110 239.40 8.30 20 0                             13.923 7.136 6.785 15.313 6.296 9.015
UPLMET_235 2015-09-28 23:55:00 235 12631.0 11.75 12.520 13.030 13.220 12.810 52.300 41.900 2.312 0.563 9.130 9.080 9.300 9.040 0.286 0.197 0.271 0.262     305.400 0.00 1 1 11.840 12.610 13.100 12.940 13.240 2.537 0.804 0.7570 11.690 12.480 13.000 12.720 13.200 2.087 0.064 0.6420 220.10 6.76 20 0                             13.795 7.215 6.580 15.193 6.363 8.827
UPLMET_235 2015-09-28 23:50:00 235 12631.0 11.79 12.500 13.050 13.300 12.700 52.660 41.710 2.436 0.573 9.130 9.080 9.310 9.040 0.286 0.197 0.271 0.262     305.600 0.00 1 1 11.910 12.570 13.110 12.840 13.380 2.718 0.821 0.8460 11.690 12.400 13.000 12.580 13.220 2.098 0.248 0.5670 228.10 19.19 20 0                             13.831 7.279 6.548 15.273 6.367 8.903
UPLMET_235 2015-09-28 23:45:00 235 12631.0 12.14 12.720 13.230 13.430 12.830 51.790 41.060 2.527 0.471 9.130 9.080 9.310 9.040 0.286 0.197 0.271 0.262     305.400 0.00 1 1 12.320 12.840 13.340 13.040 13.480 2.907 0.683 0.5610 11.940 12.540 13.110 12.630 13.340 1.993 0.100 0.3460 240.00 0.02 20 0                             14.154 7.327 6.824 15.403 6.320 9.078
UPLMET_235 2015-09-28 23:40:00 235 12631.0 12.40 12.980 13.440 13.550 13.080 49.580 40.910 2.158 0.525 9.140 9.070 9.310 9.040 0.286 0.197 0.271 0.262     305.500 0.00 1 1 12.440 13.050 13.530 13.210 13.600 2.616 0.679 0.6410 12.330 12.850 13.340 12.940 13.480 1.872 0.256 0.5280 240.50 0.12 20 0                             14.399 7.136 7.260 15.524 6.345 9.173
UPLMET_235 2015-09-28 23:35:00 235 12631.0 12.37 13.030 13.500 13.570 13.230 49.120 40.950 2.004 0.560 9.140 9.070 9.310 9.040 0.286 0.197 0.271 0.262     305.400 0.00 1 1 12.420 13.080 13.550 13.320 13.610 2.314 0.694 0.6410 12.320 12.960 13.420 13.160 13.540 1.635 0.465 0.5240 242.60 2.36 20 0                             14.370 7.058 7.312 15.544 6.361 9.179
UPLMET_235 2015-09-28 23:30:00 235 12631.0 12.36 12.940 13.430 13.570 13.070 49.970 41.550 2.228 0.762 9.140 9.070 9.310 9.040 0.286 0.197 0.271 0.262     305.300 0.00 1 1 12.410 13.030 13.510 13.180 13.620 2.563 0.947 0.9090 12.290 12.870 13.370 12.950 13.530 1.954 0.613 0.6550 245.30 0.07 20 0                             14.361 7.172 7.185 15.544 6.455 9.085
UPLMET_235 2015-09-28 23:25:00 235 12631.0 12.37 13.050 13.530 13.620 13.230 50.070 41.740 2.271 0.869 9.140 9.070 9.310 9.040 0.286 0.197 0.271 0.262     305.400 0.00 1 1 12.420 13.080 13.540 13.280 13.640 2.838 1.077 0.7130 12.330 13.010 13.520 13.190 13.600 2.051 0.689 0.5010 245.40 0.07 20 0                             14.370 7.194 7.175 15.595 6.505 9.085
UPLMET_235 2015-09-28 23:20:00 235 12631.0 12.24 12.990 13.460 13.560 13.220 50.440 41.840 2.247 0.849 9.140 9.070 9.310 9.040 0.286 0.197 0.271 0.262     305.300 0.00 1 1 12.360 13.050 13.530 13.330 13.610 2.552 0.977 0.8820 12.070 12.910 13.380 13.140 13.480 2.048 0.735 0.6290 246.40 0.48 20 0                             14.248 7.182 7.061 15.534 6.496 9.035
UPLMET_235 2015-09-28 23:15:00 235 12631.0 11.94 12.820 13.330 13.500 13.020 51.550 41.760 2.280 0.769 9.140 9.060 9.310 9.040 0.286 0.197 0.271 0.262     305.400 0.00 1 1 12.040 12.910 13.380 13.170 13.550 2.514 0.899 0.7930 11.890 12.770 13.290 12.890 13.470 1.961 0.519 0.5430 247.50 0.68 20 0                             13.969 7.199 6.768 15.473 6.458 9.012
UPLMET_235 2015-09-28 23:10:00 235 12631.0 11.81 12.800 13.400 13.540 13.090 52.180 41.090 2.334 0.578 9.140 9.060 9.310 9.040 0.286 0.197 0.271 0.262     305.400 0.00 1 1 11.890 12.840 13.420 13.170 13.560 2.769 0.743 1.0250 11.760 12.770 13.360 12.980 13.470 1.911 0.387 0.7600 249.10 0.41 20 0                             13.850 7.227 6.623 15.514 6.370 9.139
UPLMET_235 2015-09-28 23:05:00 235 12631.0 11.94 12.670 13.230 13.370 12.940 52.480 41.780 2.526 0.659 9.140 9.060 9.310 9.040 0.286 0.197 0.271 0.262     305.500 0.00 1 1 12.060 12.750 13.370 13.120 13.460 3.022 0.882 1.0870 11.830 12.630 13.180 12.840 13.300 2.224 0.517 0.9310 245.10 3.77 20 0                             13.969 7.326 6.638 15.343 6.407 8.933
UPLMET_235 2015-09-28 23:00:00 235 12631.0 12.20 12.710 13.180 13.290 12.850 51.100 42.430 2.398 0.801 9.140 9.060 9.310 9.040 0.286 0.197 0.271 0.262     305.400 0.00 1 1 12.260 12.780 13.210 12.900 13.320 2.757 1.023 0.9440 12.090 12.640 13.150 12.820 13.260 2.091 0.470 0.7370 243.30 0.62 20 0                             14.211 7.260 6.949 15.263 6.473 8.787
UPLMET_235 2015-09-28 22:55:00 235 12631.0 12.15 12.810 13.280 13.370 13.030 51.130 43.060 2.362 1.075 9.130 9.060 9.310 9.040 0.286 0.197 0.271 0.262     305.500 0.00 1 1 12.230 12.860 13.320 13.130 13.400 2.588 1.221 0.6950 11.990 12.750 13.220 12.860 13.320 2.219 0.928 0.5650 242.70 0.02 20 0                             14.164 7.241 6.922 15.343 6.602 8.736
UPLMET_235 2015-09-28 22:50:00 235 12631.0 11.97 12.580 13.100 13.250 12.840 52.510 43.160 2.561 1.003 9.130 9.050 9.310 9.040 0.286 0.197 0.271 0.262     305.500 0.00 1 1 12.030 12.730 13.240 13.100 13.300 3.129 1.247 0.9090 11.940 12.530 13.070 12.770 13.220 2.131 0.627 0.6850 242.80 0.08 20 0                             13.997 7.344 6.647 15.223 6.568 8.653
UPLMET_235 2015-09-28 22:45:00 235 12631.0 12.18 12.600 13.120 13.270 12.870 52.800 43.240 2.842 1.049 9.130 9.050 9.310 9.040 0.286 0.197 0.271 0.262     305.400 0.00 1 1 12.300 12.680 13.160 12.970 13.290 3.119 1.207 0.6950 12.040 12.530 13.090 12.800 13.260 2.569 0.858 0.5230 242.70 0.04 20 0                             14.192 7.493 6.699 15.243 6.590 8.652
UPLMET_235 2015-09-28 22:40:00 235 12631.0 12.30 12.710 13.150 13.250 12.930 51.640 43.910 2.643 1.244 9.130 9.050 9.310 9.040 0.286 0.197 0.271 0.262     305.500 0.00 1 1 12.320 12.720 13.180 13.030 13.290 2.876 1.542 0.6770 12.290 12.680 13.110 12.780 13.220 2.384 0.996 0.6040 243.30 0.20 20 0                             14.304 7.387 6.918 15.223 6.683 8.539
UPLMET_235 2015-09-28 22:35:00 235 12631.0 12.33 12.680 13.140 13.250 12.790 52.470 45.010 2.892 1.587 9.130 9.050 9.310 9.040 0.286 0.197 0.271 0.262     305.500 0.00 1 1 12.380 12.730 13.160 12.830 13.280 2.993 1.731 0.7130 12.280 12.640 13.110 12.750 13.230 2.767 1.429 0.6190 243.90 0.02 20 0                             14.333 7.519 6.812 15.223 6.850 8.371
UPLMET_235 2015-09-28 22:30:00 235 12631.0 12.39 12.790 13.230 13.350 12.850 52.390 45.430 2.931 1.810 9.130 9.050 9.310 9.040 0.286 0.197 0.271 0.262     305.400 0.00 1 1 12.430 12.860 13.320 12.960 13.420 3.007 1.905 0.6770 12.360 12.730 13.170 12.800 13.290 2.864 1.739 0.6260 243.90 0.03 20 0                             14.389 7.540 6.851 15.323 6.961 8.362
UPLMET_235 2015-09-28 22:25:00 235 12631.0 12.40 12.910 13.360 13.420 13.080 52.320 44.660 2.913 1.632 9.130 9.040 9.310 9.040 0.286 0.197 0.271 0.262     305.500 0.00 1 1 12.430 12.920 13.390 13.130 13.450 3.001 1.892 0.6330 12.340 12.880 13.330 12.980 13.400 2.812 1.384 0.5510 244.00 0.14 20 0                             14.399 7.531 6.865 15.393 6.872 8.518
UPLMET_235 2015-09-28 22:20:00 235 12631.0 12.17 12.870 13.340 13.380 13.170 52.380 44.900 2.719 1.669 9.120 9.040 9.310 9.040 0.286 0.197 0.271 0.262     305.500 0.00 1 1 12.340 12.920 13.390 13.220 13.420 2.894 1.876 0.6150 12.000 12.760 13.250 13.070 13.310 2.607 1.587 0.5590 244.40 0.13 20 0                             14.182 7.428 6.754 15.353 6.891 8.459
UPLMET_235 2015-09-28 22:15:00 235 12631.0 12.02 12.690 13.200 13.300 12.910 54.110 45.220 3.037 1.693 9.120 9.040 9.310 9.040 0.286 0.197 0.271 0.262     305.500 0.00 1 1 12.180 12.750 13.240 13.040 13.330 3.569 1.844 0.5700 11.940 12.670 13.180 12.840 13.270 2.670 1.556 0.5100 244.70 0.03 20 0                             14.043 7.597 6.444 15.273 6.903 8.366
UPLMET_235 2015-09-28 22:10:00 235 12631.0 12.19 12.760 13.220 13.330 12.890 53.260 45.400 2.970 1.781 9.120 9.040 9.320 9.040 0.286 0.197 0.271 0.262     305.500 0.00 1 1 12.230 12.780 13.250 12.930 13.380 3.370 1.892 0.5970 12.150 12.720 13.180 12.860 13.300 2.809 1.658 0.4930 244.70 0.02 20 0                             14.201 7.561 6.638 15.303 6.946 8.355
UPLMET_235 2015-09-28 22:05:00 235 12631.0 12.16 12.860 13.360 13.480 12.990 52.420 44.290 2.718 1.568 9.120 9.030 9.320 9.040 0.286 0.197 0.271 0.262     305.400 0.00 1 1 12.220 12.940 13.440 13.150 13.540 2.895 1.810 0.8550 12.120 12.790 13.260 12.860 13.400 2.591 1.265 0.5630 244.80 0.02 20 0                             14.173 7.427 6.744 15.453 6.841 8.609
UPLMET_235 2015-09-28 22:00:00 235 12631.0 12.06 12.870 13.400 13.510 13.100 51.240 42.510 2.307 1.026 9.110 9.030 9.320 9.040 0.286 0.197 0.271 0.262     305.500 0.00 1 1 12.160 12.950 13.440 13.180 13.540 2.567 1.319 0.8550 12.000 12.820 13.360 13.020 13.480 2.035 0.664 0.6080 244.70 0.21 20 0                             14.080 7.213 6.865 15.483 6.579 8.901
UPLMET_235 2015-09-28 21:55:00 235 12631.0 12.18 12.870 13.380 13.490 13.080 49.890 41.310 2.045 0.611 9.110 9.030 9.320 9.040 0.286 0.197 0.271 0.262     305.400 0.00 1 1 12.220 12.900 13.420 13.140 13.510 2.249 0.761 0.7570 12.160 12.840 13.350 13.040 13.470 1.592 0.453 0.5500 244.40 0.04 20 0                             14.192 7.079 7.112 15.463 6.385 9.075
UPLMET_235 2015-09-28 21:50:00 235 12631.0 12.07 12.850 13.380 13.480 13.080 49.400 40.810 1.803 0.435 9.110 9.030 9.320 9.040 0.286 0.197 0.271 0.262     305.500 0.00 1 1 12.180 12.900 13.410 13.140 13.500 2.036 0.572 0.8020 11.980 12.790 13.350 13.010 13.460 1.634 0.290 0.6100 244.50 0.16 20 0                             14.089 6.957 7.129 15.453 6.304 9.147
UPLMET_235 2015-09-28 21:45:00 235 12631.0 11.95 12.770 13.340 13.470 13.050 51.040 41.170 2.146 0.546 9.100 9.020 9.320 9.040 0.286 0.197 0.271 0.262     305.400 0.00 1 1 11.990 12.800 13.370 13.120 13.510 2.454 0.779 1.0870 11.890 12.710 13.280 13.010 13.410 1.859 0.399 0.6540 245.40 0.70 20 0                             13.978 7.130 6.844 15.443 6.355 9.085
UPLMET_235 2015-09-28 21:40:00 235 12631.0 12.05 12.740 13.270 13.450 12.980 52.100 42.280 2.533 0.894 9.100 9.020 9.320 9.040 0.286 0.197 0.271 0.262     305.500 0.00 1 1 12.140 12.770 13.280 13.030 13.480 2.891 1.139 0.8730 11.990 12.690 13.250 12.930 13.410 2.175 0.600 0.6590 245.50 0.57 20 0                             14.071 7.330 6.740 15.423 6.517 8.902
UPLMET_235 2015-09-28 21:35:00 235 12631.0 12.17 12.790 13.300 13.470 13.040 51.560 42.480 2.495 0.979 9.100 9.020 9.320 9.040 0.286 0.197 0.271 0.262     305.400 0.00 1 1 12.240 12.830 13.310 13.140 13.480 3.247 1.208 1.1050 12.110 12.740 13.270 12.910 13.460 2.050 0.760 0.6200 243.70 1.81 20 0                             14.182 7.310 6.870 15.443 6.557 8.883
UPLMET_235 2015-09-28 21:30:00 235 12631.0 12.05 12.800 13.350 13.560 12.930 50.950 41.640 2.214 0.782 9.090 9.020 9.320 9.040 0.286 0.197 0.271 0.262     305.500 0.00 1 1 12.100 12.850 13.420 13.030 13.630 2.436 0.964 0.9270 12.010 12.780 13.300 12.880 13.490 2.045 0.617 0.6590 243.50 0.30 20 0                             14.071 7.165 6.902 15.534 6.464 9.066
UPLMET_235 2015-09-28 21:25:00 235 12631.0 12.12 12.940 13.510 13.720 13.100 50.640 40.360 2.196 0.494 9.090 9.010 9.320 9.040 0.286 0.197 0.271 0.262     305.500 0.00 1 1 12.220 12.970 13.570 13.200 13.810 2.605 0.703 0.7930 12.060 12.870 13.430 12.970 13.630 1.860 0.275 0.6510 243.80 0.28 20 0                             14.136 7.156 6.977 15.697 6.331 9.361
UPLMET_235 2015-09-28 21:20:00 235 12631.0 12.31 13.080 13.640 13.790 13.290 49.060 39.180 1.926 0.151 9.090 9.010 9.320 9.040 0.286 0.197 0.271 0.262     305.500 0.00 1 1 12.380 13.150 13.690 13.430 13.830 2.445 0.389 1.0160 12.220 12.970 13.580 13.100 13.750 1.507 -0.153 0.7270 242.50 2.69 20 0                             14.314 7.019 7.291 15.768 6.175 9.590
UPLMET_235 2015-09-28 21:15:00 235 12631.0 12.18 13.030 13.580 13.690 13.360 49.470 39.420 1.915 0.141 9.080 9.010 9.320 9.040 0.286 0.197 0.271 0.262     305.500 0.00 1 1 12.270 13.150 13.670 13.480 13.770 2.498 0.575 1.3010 12.100 12.890 13.420 13.170 13.590 1.458 0.026